[[[{"header":{"parameterUnit":"kt","parameterCategory":2,"dx":1,"dy":1,"la1":29.587661999999998,"la2":31.0,"lo1":-88.76705300000003,"lo2":-86.6583820000003,"nx":115,"ny":88,"refTime":"2022-10-13T06:00:00:Z","depth":0,"parameterNumber":1,"parameterNumberName":"U-component_of_WINDS"},"data":[-8.3559,-8.3559,-8.3559,-8.3559,-8.3559,-8.3559,-8.3559,-8.3559,-8.3559,-8.3559,-8.3559,-8.3559,-8.3559,-8.3559,-8.3559,-8.3559,-8.3559,-8.3559,-8.3559,-8.3559,-8.3559,-8.3559,-8.3559,-8.3559,-8.3559,-8.3559,-8.3559,-8.3559,-8.3559,-8.3559,-8.3559,-8.3559,-8.3559,-8.3559,-8.3534,-8.3317,-8.2881,-8.2881,-8.2577,-8.2382,-8.2601,-8.282,-8.3099,-8.2881,-8.2382,-8.1808,-8.1121,-8.0614,-8.0391,-8.0168,-8.0056,-8.0056,-8.0056,-8.0056,-8.0056,-8.0056,-8.0056,-8.0056,-8.0056,-7.9809,-7.9697,-7.9337,-7.7347,-7.5032,-7.385,-7.1998,-7.0836,-7.05,-6.9326,-6.9566,-6.9446,-6.8987,-6.8866,-6.8866,-6.8866,-6.8505,-6.8264,-6.7902,-6.766,-6.7781,-6.7902,-6.7781,-6.766,-6.7297,-6.6791,-6.6548,-6.667,-6.6426,-6.608,-6.5958,-6.5694,-6.5327,-6.4959,-6.494,-6.4712,-6.4561,-6.4514,-6.4619,-6.4221,-6.311,-6.2116,-6.1243,-6.0993,-6.0993,-6.0993,-6.0886,-6.0815,-6.0726,-6.0726,-6.0565,-6.0726,-6.0565,-5.9979,-5.8469,-5.6277,-8.3559,-8.3559,-8.3559,-8.3559,-8.3559,-8.3559,-8.3559,-8.3559,-8.3559,-8.3559,-8.3559,-8.3559,-8.3559,-8.3559,-8.3559,-8.3559,-8.3559,-8.3559,-8.3559,-8.3559,-8.3559,-8.3559,-8.3559,-8.3559,-8.3559,-8.3559,-8.3559,-8.3559,-8.3559,-8.3559,-8.3559,-8.3559,-8.3559,-8.3559,-8.3559,-8.3426,-8.3317,-8.3317,-8.3208,-8.3232,-8.3341,-8.3559,-8.345,-8.3426,-8.3317,-8.2796,-8.2052,-8.1525,-8.0947,-8.0614,-8.0168,-8.0168,-8.0168,-8.0056,-8.0056,-8.0056,-8.0056,-8.0056,-8.0056,-8.0056,-8.0056,-7.9585,-7.7937,-7.6755,-7.6297,-7.4894,-7.3172,-7.1783,-6.9785,-6.9206,-6.9086,-6.8866,-6.8866,-6.8866,-6.8866,-6.8746,-6.8746,-6.8626,-6.8626,-6.8626,-6.8505,-6.8264,-6.8023,-6.7902,-6.7398,-6.7034,-6.6913,-6.6689,-6.6568,-6.6548,-6.5995,-6.5457,-6.4697,-6.4105,-6.3915,-6.3915,-6.4029,-6.3957,-6.3424,-6.2586,-6.1634,-6.0814,-6.0476,-6.0726,-6.0815,-6.0654,-6.0565,-6.0244,-6.0102,-5.9924,-5.9906,-5.9763,-5.9165,-5.8062,-5.6185,-8.3559,-8.3559,-8.3559,-8.3559,-8.3559,-8.3559,-8.3559,-8.3559,-8.3559,-8.3559,-8.3559,-8.3559,-8.3559,-8.3559,-8.3559,-8.3559,-8.3559,-8.3559,-8.3559,-8.3559,-8.3559,-8.3559,-8.3559,-8.3559,-8.3559,-8.3559,-8.3559,-8.3559,-8.3559,-8.3559,-8.3559,-8.3559,-8.3559,-8.3559,-8.3559,-8.3559,-8.3559,-8.3559,-8.3559,-8.3559,-8.3559,-8.3559,-8.3559,-8.3426,-8.3208,-8.2772,-8.2272,-8.1942,-8.1366,-8.0812,-8.0455,-8.0367,-8.0168,-8.0056,-8.0056,-8.0056,-8.0056,-8.0056,-8.0056,-8.0056,-8.0056,-7.9473,-7.8277,-7.7461,-7.7119,-7.7824,-7.609,-7.282,-7.0955,-6.9326,-6.9086,-6.8866,-6.8866,-6.8866,-6.8866,-6.8866,-6.8866,-6.8826,-6.8806,-6.8806,-6.8706,-6.8405,-6.8185,-6.7945,-6.8065,-6.7684,-6.7963,-6.7862,-6.7519,-6.7277,-6.6349,-6.552,-6.4001,-6.3256,-6.3418,-6.3494,-6.3566,-6.3005,-6.2543,-6.1792,-6.115,-6.0407,-5.9995,-6.0333,-6.0494,-6.0298,-5.9852,-5.9424,-5.9228,-5.9193,-5.905,-5.8854,-5.8062,-5.7297,-5.6446,-8.3559,-8.3559,-8.3559,-8.3559,-8.3559,-8.3559,-8.3559,-8.3559,-8.3559,-8.3559,-8.3559,-8.3559,-8.3559,-8.3559,-8.3559,-8.3559,-8.3559,-8.3559,-8.3559,-8.3559,-8.3559,-8.3559,-8.3559,-8.3559,-8.3559,-8.3559,-8.3559,-8.3559,-8.3559,-8.3559,-8.3559,-8.3559,-8.3559,-8.3559,-8.3559,-8.3559,-8.3559,-8.3559,-8.3559,-8.3559,-8.3559,-8.3559,-8.3559,-8.3426,-8.3208,-8.2881,-8.2553,-8.2138,-8.1674,-8.0987,-8.0876,-8.0566,-8.0168,-8.0056,-8.0056,-8.0056,-8.0056,-8.0056,-8.0056,-8.0056,-8.0056,-7.9473,-7.9112,-7.8277,-7.8277,-7.936,-7.8323,-7.4822,-7.2137,-7.05,-6.9446,-6.9086,-6.8866,-6.8866,-6.8866,-6.8866,-6.8866,-6.8806,-6.8726,-6.8746,-6.8766,-6.8544,-6.8223,-6.8083,-6.8343,-6.8343,-6.8303,-6.8024,-6.7288,-6.6494,-6.5367,-6.4547,-6.3124,-6.2872,-6.3028,-6.3222,-6.3472,-6.3078,-6.2401,-6.1532,-6.0593,-5.9832,-5.9133,-5.97,-5.9975,-5.946,-5.8997,-5.8587,-5.8409,-5.8391,-5.8266,-5.7981,-5.7328,-5.6133,-5.6203,-8.3559,-8.3559,-8.3559,-8.3559,-8.3559,-8.3559,-8.3559,-8.3559,-8.3559,-8.3559,-8.3559,-8.3559,-8.3559,-8.3559,-8.3559,-8.3559,-8.3559,-8.3559,-8.3559,-8.3559,-8.3559,-8.3559,-8.3559,-8.3559,-8.3559,-8.3559,-8.3559,-8.3559,-8.3559,-8.3559,-8.3559,-8.3559,-8.3559,-8.3559,-8.3559,-8.3559,-8.3559,-8.3559,-8.3559,-8.3559,-8.3559,-8.3559,-8.3559,-8.3559,-8.345,-8.3208,-8.2772,-8.2419,-8.198,-8.1319,-8.0765,-8.0678,-8.0256,-8.0056,-8.0056,-8.0056,-8.0056,-8.0056,-8.0056,-8.0056,-8.0056,-8.0056,-7.9944,-7.9585,-7.8887,-7.9248,-7.7142,-7.3872,-7.131,-6.9566,-6.9206,-6.8966,-6.8645,-6.8524,-6.8504,-6.8464,-6.8363,-6.8162,-6.8102,-6.8041,-6.8001,-6.772,-6.7438,-6.7438,-6.7559,-6.6875,-6.6714,-6.6521,-6.5848,-6.4889,-6.4073,-6.3561,-6.2715,-6.2464,-6.2715,-6.2912,-6.3203,-6.3127,-6.2559,-6.1669,-6.0446,-5.9408,-5.8465,-5.8577,-5.875,-5.8433,-5.8141,-5.7838,-5.7606,-5.7589,-5.7446,-5.7125,-5.6139,-5.4924,-5.4634,-8.3559,-8.3559,-8.3559,-8.3559,-8.3559,-8.3559,-8.3559,-8.3559,-8.3559,-8.3559,-8.3559,-8.3559,-8.3559,-8.3559,-8.3559,-8.3559,-8.3559,-8.3559,-8.3559,-8.3559,-8.3559,-8.3559,-8.3559,-8.3559,-8.3559,-8.3559,-8.3559,-8.3559,-8.3559,-8.3559,-8.3559,-8.3559,-8.3559,-8.3559,-8.3559,-8.3559,-8.3559,-8.3559,-8.3559,-8.3559,-8.3559,-8.3559,-8.3559,-8.3559,-8.3559,-8.3426,-8.3208,-8.2748,-8.2224,-8.1564,-8.0987,-8.0678,-8.0168,-8.0056,-8.0056,-8.0056,-8.0056,-8.0056,-8.0056,-8.0056,-8.0056,-8.0056,-8.0056,-8.0032,-7.9562,-7.8365,-7.5934,-7.3372,-7.0872,-6.8806,-6.8826,-6.8786,-6.8464,-6.8142,-6.8062,-6.8001,-6.772,-6.7458,-6.7398,-6.7317,-6.7076,-6.6794,-6.6673,-6.683,-6.6649,-6.611,-6.5794,-6.5639,-6.4903,-6.4155,-6.3565,-6.3266,-6.2705,-6.2336,-6.2342,-6.2564,-6.2666,-6.2539,-6.2181,-6.1547,-6.0363,-5.9392,-5.8836,-5.8271,-5.789,-5.7405,-5.7242,-5.701,-5.7145,-5.6804,-5.6715,-5.6894,-5.6439,-5.4798,-5.3848,-8.3559,-8.3559,-8.3559,-8.3559,-8.3559,-8.3559,-8.3559,-8.3559,-8.3559,-8.3559,-8.3559,-8.3559,-8.3559,-8.3559,-8.3559,-8.3559,-8.3559,-8.3559,-8.3559,-8.3559,-8.3559,-8.3559,-8.3559,-8.3559,-8.3559,-8.3559,-8.3559,-8.3559,-8.3559,-8.3559,-8.3559,-8.3559,-8.3559,-8.3559,-8.3559,-8.3559,-8.3559,-8.3559,-8.3559,-8.3559,-8.3559,-8.3559,-8.3559,-8.3559,-8.3559,-8.3341,-8.3208,-8.2748,-8.209,-8.1564,-8.1098,-8.0678,-8.0168,-8.0056,-8.0056,-8.0056,-8.0056,-8.0056,-8.0056,-8.0056,-8.0056,-8.0056,-8.0056,-7.9874,-7.8472,-7.7097,-7.5536,-7.3389,-7.1186,-6.9917,-6.9584,-6.9128,-6.8785,-6.8066,-6.7176,-6.6774,-6.601,-6.605,-6.6814,-6.6633,-6.613,-6.5808,-6.5386,-6.5466,-6.5748,-6.5567,-6.5406,-6.5057,-6.4483,-6.3934,-6.3542,-6.339,-6.3079,-6.2968,-6.2896,-6.2692,-6.2521,-6.2126,-6.1892,-6.1519,-6.095,-6.0365,-5.9342,-5.8617,-5.8361,-5.7675,-5.6785,-5.6857,-5.7268,-5.6857,-5.6723,-5.6936,-5.6803,-5.5379,-5.4315,-8.3559,-8.3559,-8.3559,-8.3559,-8.3559,-8.3559,-8.3559,-8.3559,-8.3559,-8.3559,-8.3559,-8.3559,-8.3559,-8.3559,-8.3559,-8.3559,-8.3559,-8.3559,-8.3559,-8.3559,-8.3559,-8.3559,-8.3559,-8.3559,-8.3559,-8.3559,-8.3559,-8.3559,-8.3559,-8.3559,-8.3559,-8.3559,-8.3559,-8.3559,-8.3559,-8.3559,-8.3559,-8.3559,-8.3559,-8.3559,-8.3559,-8.3559,-8.3559,-8.3559,-8.3559,-8.3341,-8.2881,-8.2529,-8.187,-8.1319,-8.0876,-8.0566,-8.0256,-8.0056,-8.0056,-8.0056,-8.0056,-8.0056,-8.0056,-8.0056,-8.0032,-7.9495,-7.9682,-7.8308,-7.7176,-7.6869,-7.5451,-7.3565,-7.2189,-7.1248,-6.9818,-6.9208,-6.8578,-6.7643,-6.6427,-6.5627,-6.4742,-6.4883,-6.5728,-6.5748,-6.5205,-6.4903,-6.4501,-6.448,-6.4802,-6.4621,-6.4368,-6.4195,-6.4095,-6.3585,-6.3565,-6.3504,-6.3504,-6.3393,-6.3393,-6.3302,-6.3039,-6.2928,-6.2462,-6.2126,-6.2238,-6.1922,-6.0551,-5.9418,-5.8963,-5.8392,-5.7705,-5.7475,-5.7457,-5.7457,-5.7379,-5.736,-5.7033,-5.5727,-5.5147,-8.3559,-8.3559,-8.3559,-8.3559,-8.3559,-8.3559,-8.3559,-8.3559,-8.3559,-8.3559,-8.3559,-8.3559,-8.3559,-8.3559,-8.3559,-8.3559,-8.3559,-8.3559,-8.3559,-8.3559,-8.3559,-8.3559,-8.3559,-8.3559,-8.3559,-8.3559,-8.3559,-8.3559,-8.3559,-8.3559,-8.3559,-8.3559,-8.3559,-8.3559,-8.3559,-8.3559,-8.3559,-8.3559,-8.3559,-8.3559,-8.3559,-8.3559,-8.3559,-8.3559,-8.3559,-8.3317,-8.2662,-8.2224,-8.1698,-8.1011,-8.0566,-8.0256,-8.0168,-8.0056,-8.0056,-8.0056,-8.0056,-8.0009,-7.9916,-7.9916,-7.9168,-7.8443,-7.8069,-7.7509,-7.6989,-7.6586,-7.5331,-7.4418,-7.3574,-7.1819,-6.9693,-6.7677,-6.6984,-6.6179,-6.5339,-6.5016,-6.4199,-6.3998,-6.4561,-6.446,-6.4098,-6.3998,-6.3725,-6.3957,-6.4098,-6.3857,-6.3504,-6.3565,-6.3605,-6.3524,-6.3524,-6.3504,-6.3504,-6.3504,-6.3504,-6.3504,-6.3504,-6.3504,-6.3151,-6.2796,-6.2816,-6.2481,-6.136,-6.0231,-5.9759,-5.9172,-5.8488,-5.8049,-5.7916,-5.7916,-5.7934,-5.7572,-5.7112,-5.6554,-5.5976,-8.3559,-8.3559,-8.3559,-8.3559,-8.3559,-8.3559,-8.3559,-8.3559,-8.3559,-8.3559,-8.3559,-8.3559,-8.3559,-8.3559,-8.3559,-8.3559,-8.3559,-8.3559,-8.3559,-8.3559,-8.3559,-8.3559,-8.3559,-8.3559,-8.3559,-8.3559,-8.3559,-8.3559,-8.3559,-8.3559,-8.3559,-8.3559,-8.3559,-8.3559,-8.3559,-8.3559,-8.3559,-8.3559,-8.3559,-8.3559,-8.3559,-8.3559,-8.3559,-8.3559,-8.3559,-8.3317,-8.2662,-8.2358,-8.1918,-8.1343,-8.0678,-8.0479,-8.0479,-8.0168,-7.9892,-7.9542,-7.9518,-7.9425,-7.9074,-7.8911,-7.8303,-7.7648,-7.7134,-7.7041,-7.6396,-7.6012,-7.5527,-7.4776,-7.453,-7.3151,-7.0807,-6.9043,-6.6863,-6.594,-6.4981,-6.4616,-6.3937,-6.3716,-6.3504,-6.3504,-6.3504,-6.3524,-6.3524,-6.3685,-6.3837,-6.3544,-6.3504,-6.3504,-6.3504,-6.3504,-6.3504,-6.3504,-6.3504,-6.3504,-6.3504,-6.3504,-6.3504,-6.3504,-6.3393,-6.3151,-6.2928,-6.2593,-6.1922,-6.1697,-6.0777,-5.9967,-5.9513,-5.9058,-5.8716,-5.8506,-5.8506,-5.8278,-5.7475,-5.69,-5.6572,-8.3559,-8.3559,-8.3559,-8.3559,-8.3559,-8.3559,-8.3559,-8.3559,-8.3559,-8.3559,-8.3559,-8.3559,-8.3559,-8.3559,-8.3559,-8.3559,-8.3559,-8.3559,-8.3559,-8.3559,-8.3559,-8.3559,-8.3559,-8.3559,-8.3559,-8.3559,-8.3559,-8.3559,-8.3559,-8.3559,-8.3559,-8.3559,-8.3559,-8.3559,-8.3559,-8.3559,-8.3559,-8.3559,-8.3559,-8.3559,-8.3559,-8.3559,-8.3559,-8.3559,-8.3559,-8.3317,-8.2772,-8.2468,-8.208,-8.1411,-8.0703,-8.034,-8.0136,-7.9851,-7.9214,-7.8583,-7.8513,-7.8046,-7.7181,-7.697,-7.683,-7.6503,-7.6176,-7.6059,-7.5591,-7.5381,-7.5042,-7.4807,-7.4652,-7.3838,-7.3151,-7.1856,-6.8988,-6.7142,-6.5809,-6.4963,-6.4029,-6.3504,-6.3504,-6.3504,-6.3504,-6.3504,-6.3504,-6.3504,-6.3504,-6.3504,-6.3504,-6.3504,-6.3504,-6.3504,-6.3504,-6.3504,-6.3504,-6.3504,-6.3504,-6.3504,-6.3504,-6.3504,-6.3504,-6.3393,-6.3171,-6.2928,-6.3059,-6.3171,-6.2238,-6.0983,-6.0532,-6.008,-6.0419,-6.0532,-5.9986,-5.8849,-5.782,-5.7015,-5.69,-8.3559,-8.3559,-8.3559,-8.3559,-8.3559,-8.3559,-8.3559,-8.3559,-8.3559,-8.3559,-8.3559,-8.3559,-8.3559,-8.3559,-8.3559,-8.3559,-8.3559,-8.3559,-8.3559,-8.3559,-8.3559,-8.3559,-8.3559,-8.3559,-8.3559,-8.3559,-8.3559,-8.3559,-8.3559,-8.3559,-8.3559,-8.3559,-8.3559,-8.3559,-8.3559,-8.3559,-8.3559,-8.3559,-8.3559,-8.3559,-8.3534,-8.351,-8.3486,-8.3461,-8.3363,-8.2989,-8.2615,-8.2324,-8.1914,-8.1009,-8.0178,-7.952,-7.8816,-7.8269,-7.7718,-7.7555,-7.7415,-7.7344,-7.6643,-7.5872,-7.4773,-7.503,-7.4984,-7.475,-7.4399,-7.4306,-7.4469,-7.4319,-7.3333,-7.2108,-7.1216,-7.0023,-6.7887,-6.7323,-6.6066,-6.486,-6.4039,-6.3504,-6.3504,-6.3504,-6.3504,-6.3504,-6.3504,-6.3504,-6.3504,-6.3504,-6.3504,-6.3504,-6.3504,-6.3504,-6.3504,-6.3504,-6.3504,-6.3504,-6.3504,-6.3504,-6.3504,-6.3504,-6.3504,-6.3504,-6.3504,-6.3504,-6.3393,-6.3393,-6.2928,-6.1994,-6.1546,-6.1341,-6.179,-6.235,-6.0983,-5.9513,-5.8488,-5.7687,-5.7457,-8.3559,-8.3559,-8.3559,-8.3559,-8.3559,-8.3559,-8.3559,-8.3559,-8.3559,-8.3559,-8.3559,-8.3559,-8.3559,-8.3559,-8.3559,-8.3559,-8.3559,-8.3559,-8.3559,-8.3559,-8.3559,-8.3559,-8.3559,-8.3559,-8.3559,-8.3559,-8.3559,-8.3559,-8.3559,-8.3559,-8.3559,-8.3559,-8.3559,-8.3559,-8.3559,-8.3559,-8.3559,-8.3559,-8.3559,-8.3559,-8.357,-8.3374,-8.3032,-8.2851,-8.268,-8.21,-8.1826,-8.1778,-8.12,-8.0361,-7.955,-7.9026,-7.8456,-7.7611,-7.7008,-7.648,-7.641,-7.6106,-7.5475,-7.4656,-7.3838,-7.3815,-7.3815,-7.3862,-7.3979,-7.3862,-7.3815,-7.3609,-7.3057,-7.2837,-7.1527,-6.958,-6.7414,-6.6785,-6.5936,-6.4661,-6.3928,-6.3615,-6.3504,-6.3504,-6.3504,-6.3504,-6.3504,-6.3504,-6.3504,-6.3504,-6.3504,-6.3504,-6.3504,-6.3504,-6.3504,-6.3504,-6.3504,-6.3504,-6.3504,-6.3504,-6.3504,-6.3504,-6.3504,-6.3504,-6.3504,-6.3504,-6.3504,-6.3393,-6.3059,-6.2816,-6.2593,-6.2593,-6.2593,-6.2705,-6.179,-6.0419,-5.9399,-5.8488,-5.8145,-8.3559,-8.3559,-8.3559,-8.3559,-8.3559,-8.3559,-8.3559,-8.3559,-8.3559,-8.3559,-8.3559,-8.3559,-8.3559,-8.3559,-8.3559,-8.3559,-8.3559,-8.3559,-8.3559,-8.3559,-8.3559,-8.3559,-8.3559,-8.3559,-8.3559,-8.3559,-8.3559,-8.3559,-8.3559,-8.3559,-8.3559,-8.3559,-8.3559,-8.3559,-8.3559,-8.3559,-8.3559,-8.3534,-8.3241,-8.3241,-8.2778,-8.2446,-8.1957,-8.1631,-8.0972,-8.0282,-8.0282,-8.0525,-8.0347,-7.9975,-7.9111,-7.8473,-7.788,-7.7095,-7.6342,-7.5814,-7.5673,-7.5216,-7.4771,-7.4232,-7.3918,-7.3918,-7.3815,-7.3815,-7.3815,-7.3815,-7.3815,-7.3815,-7.3609,-7.3402,-7.3091,-7.2155,-6.9495,-6.7996,-6.6066,-6.4791,-6.3817,-6.3615,-6.3504,-6.3504,-6.3504,-6.3504,-6.3504,-6.3504,-6.3504,-6.3504,-6.3504,-6.3504,-6.3504,-6.3504,-6.3504,-6.3504,-6.3504,-6.3504,-6.3504,-6.3504,-6.3504,-6.3504,-6.3504,-6.3504,-6.3504,-6.3504,-6.3504,-6.3504,-6.3393,-6.3504,-6.3393,-6.3171,-6.3059,-6.3171,-6.2725,-6.1678,-6.0645,-5.974,-5.9058,-8.3559,-8.3559,-8.3559,-8.3559,-8.3559,-8.3559,-8.3559,-8.3559,-8.3559,-8.3559,-8.3559,-8.3559,-8.3559,-8.3559,-8.3559,-8.3559,-8.3559,-8.3559,-8.3559,-8.3559,-8.3559,-8.3559,-8.3559,-8.3559,-8.3559,-8.3559,-8.3559,-8.3559,-8.3559,-8.3559,-8.3559,-8.3559,-8.3559,-8.351,-8.3534,-8.3461,-8.3315,-8.3241,-8.2739,-8.1997,-8.1411,-8.0948,-8.0801,-8.0679,-8.0428,-8.0233,-8.0233,-8.016,-7.9752,-7.9258,-7.8419,-7.7795,-7.721,-7.6417,-7.5765,-7.552,-7.5251,-7.4888,-7.4699,-7.4353,-7.425,-7.4021,-7.3815,-7.3918,-7.3918,-7.3815,-7.3815,-7.3815,-7.3815,-7.3815,-7.3299,-7.1189,-6.9814,-6.8211,-6.6393,-6.4791,-6.3615,-6.3615,-6.3504,-6.3504,-6.3504,-6.3504,-6.3504,-6.3504,-6.3504,-6.3504,-6.3504,-6.3504,-6.3504,-6.3504,-6.3504,-6.3504,-6.3504,-6.3504,-6.3504,-6.3504,-6.3504,-6.3504,-6.3504,-6.3504,-6.3504,-6.3504,-6.3504,-6.3504,-6.3504,-6.3504,-6.3504,-6.3504,-6.3504,-6.3171,-6.2836,-6.2258,-6.179,-6.1003,-5.9967,-8.3559,-8.3559,-8.3559,-8.3559,-8.3559,-8.3559,-8.3559,-8.3559,-8.3559,-8.3559,-8.3559,-8.3559,-8.3559,-8.3559,-8.3559,-8.3559,-8.3559,-8.3559,-8.3559,-8.3559,-8.3559,-8.3559,-8.3559,-8.3559,-8.3559,-8.3559,-8.3559,-8.3559,-8.3559,-8.3559,-8.3559,-8.3559,-8.3534,-8.3363,-8.2885,-8.2959,-8.2631,-8.2143,-8.1606,-8.0948,-8.0411,-7.9843,-7.9551,-7.9526,-7.9142,-7.8922,-7.8849,-7.8971,-7.8605,-7.8161,-7.7535,-7.6968,-7.6379,-7.5805,-7.5399,-7.5399,-7.5399,-7.5399,-7.5273,-7.4889,-7.4558,-7.425,-7.425,-7.4147,-7.3918,-7.3815,-7.3815,-7.3815,-7.3815,-7.3815,-7.3275,-7.1399,-7.0027,-6.8533,-6.6936,-6.5341,-6.4059,-6.3837,-6.3504,-6.3504,-6.3504,-6.3504,-6.3504,-6.3504,-6.3504,-6.3504,-6.3504,-6.3504,-6.3504,-6.3504,-6.3504,-6.3504,-6.3504,-6.3504,-6.3504,-6.3504,-6.3504,-6.3504,-6.3504,-6.3504,-6.3504,-6.3504,-6.3504,-6.3504,-6.3504,-6.3504,-6.3504,-6.3504,-6.3504,-6.3171,-6.2816,-6.2593,-6.235,-6.1678,-6.089,-8.3559,-8.3559,-8.3559,-8.3559,-8.3559,-8.3559,-8.3559,-8.3559,-8.3559,-8.3559,-8.3559,-8.3559,-8.3559,-8.3559,-8.3559,-8.3559,-8.3559,-8.3559,-8.3559,-8.3559,-8.3559,-8.3559,-8.3559,-8.3559,-8.3559,-8.3559,-8.3559,-8.3559,-8.3559,-8.3559,-8.351,-8.3241,-8.3095,-8.2827,-8.1875,-8.1753,-8.124,-8.0477,-8.0184,-8.0038,-7.9819,-7.9068,-7.8654,-7.8361,-7.7873,-7.7458,-7.758,-7.758,-7.7482,-7.7287,-7.6811,-7.6561,-7.6436,-7.5931,-7.5704,-7.5805,-7.6133,-7.6436,-7.621,-7.5602,-7.4967,-7.4786,-7.4786,-7.4455,-7.425,-7.4021,-7.4021,-7.3918,-7.3815,-7.3815,-7.3609,-7.2178,-7.079,-6.9282,-6.778,-6.5868,-6.4702,-6.4461,-6.3615,-6.3504,-6.3504,-6.3504,-6.3504,-6.3504,-6.3504,-6.3504,-6.3504,-6.3504,-6.3504,-6.3504,-6.3504,-6.3504,-6.3504,-6.3504,-6.3504,-6.3504,-6.3504,-6.3504,-6.3504,-6.3504,-6.3504,-6.3504,-6.3504,-6.3504,-6.3504,-6.3504,-6.3504,-6.3504,-6.3504,-6.3282,-6.2928,-6.2816,-6.2816,-6.2593,-6.2258,-8.3559,-8.3559,-8.3559,-8.3559,-8.3559,-8.3559,-8.3559,-8.3559,-8.3559,-8.3559,-8.3559,-8.3559,-8.3559,-8.3559,-8.3559,-8.3559,-8.3559,-8.3559,-8.3559,-8.3559,-8.3559,-8.3559,-8.3559,-8.3559,-8.3559,-8.3534,-8.3412,-8.3559,-8.329,-8.3266,-8.2949,-8.2485,-8.2348,-8.1728,-8.0899,-8.0679,-8.063,-8.0014,-7.9502,-7.9093,-7.8824,-7.8068,-7.7482,-7.7409,-7.7287,-7.7165,-7.7165,-7.7165,-7.7165,-7.7165,-7.704,-7.704,-7.704,-7.694,-7.6839,-7.6864,-7.694,-7.6739,-7.6537,-7.6008,-7.568,-7.5297,-7.5297,-7.4967,-7.466,-7.4353,-7.425,-7.3918,-7.3815,-7.3815,-7.3609,-7.2387,-7.1339,-7.0261,-6.864,-6.6807,-6.6175,-6.4791,-6.3928,-6.3504,-6.3504,-6.3504,-6.3504,-6.3504,-6.3504,-6.3504,-6.3504,-6.3504,-6.3504,-6.3504,-6.3504,-6.3504,-6.3504,-6.3504,-6.3504,-6.3504,-6.3504,-6.3504,-6.3504,-6.3504,-6.3504,-6.3504,-6.3504,-6.3504,-6.3504,-6.3504,-6.3504,-6.3504,-6.3504,-6.3393,-6.3039,-6.2928,-6.3039,-6.3039,-6.2836,-8.3559,-8.3559,-8.3559,-8.3559,-8.3559,-8.3559,-8.3559,-8.3559,-8.3559,-8.3559,-8.3559,-8.3559,-8.3559,-8.3559,-8.3559,-8.3559,-8.3559,-8.3559,-8.3559,-8.3559,-8.3559,-8.3559,-8.3559,-8.3559,-8.3559,-8.329,-8.2461,-8.1924,-8.1997,-8.207,-8.1655,-8.124,-8.1167,-8.063,-7.9825,-7.9581,-7.9288,-7.8727,-7.8288,-7.7995,-7.7897,-7.7555,-7.7214,-7.7189,-7.7165,-7.7165,-7.7165,-7.7165,-7.7165,-7.7165,-7.7165,-7.7165,-7.7165,-7.7165,-7.7165,-7.7165,-7.7165,-7.7065,-7.6839,-7.6513,-7.621,-7.5907,-7.5602,-7.5195,-7.4786,-7.4558,-7.4353,-7.4021,-7.3815,-7.3815,-7.3815,-7.3115,-7.2178,-7.1444,-7.0978,-7.0005,-6.8297,-6.543,-6.4149,-6.3504,-6.3726,-6.3817,-6.3726,-6.3615,-6.3615,-6.3504,-6.3504,-6.3504,-6.3504,-6.3504,-6.3504,-6.3504,-6.3504,-6.3504,-6.3504,-6.3504,-6.3504,-6.3504,-6.3504,-6.3504,-6.3504,-6.3504,-6.3504,-6.3464,-6.3504,-6.3504,-6.3504,-6.3504,-6.3504,-6.3504,-6.3282,-6.3282,-6.3393,-6.3393,-6.3393,-8.3559,-8.3559,-8.3559,-8.3559,-8.3559,-8.3559,-8.3559,-8.3559,-8.3559,-8.3559,-8.3559,-8.3559,-8.3559,-8.3559,-8.3559,-8.3559,-8.3559,-8.3559,-8.3559,-8.3559,-8.3559,-8.3559,-8.3461,-8.3266,-8.3022,-8.2558,-8.1533,-8.055,-8.0452,-8.0209,-8.0484,-8.0167,-8.0069,-7.9611,-7.8878,-7.8434,-7.8117,-7.7806,-7.7534,-7.7336,-7.7336,-7.7214,-7.7165,-7.7165,-7.7165,-7.7265,-7.7265,-7.7265,-7.7241,-7.7241,-7.7265,-7.7241,-7.7316,-7.7316,-7.7341,-7.7441,-7.7416,-7.7365,-7.704,-7.6638,-7.6436,-7.621,-7.5805,-7.5195,-7.4786,-7.4558,-7.4353,-7.4044,-7.3815,-7.3815,-7.3815,-7.3712,-7.3115,-7.2572,-7.2445,-7.2549,-6.9982,-6.7132,-6.4571,-6.4571,-6.435,-6.4129,-6.4149,-6.4039,-6.3837,-6.3504,-6.3504,-6.3504,-6.3504,-6.3504,-6.3384,-6.3364,-6.3404,-6.3384,-6.3324,-6.3243,-6.3344,-6.3303,-6.3404,-6.3384,-6.3444,-6.3464,-6.3424,-6.3324,-6.3324,-6.3303,-6.3404,-6.3504,-6.3504,-6.3504,-6.3504,-6.3504,-6.3504,-6.3504,-6.3504,-8.3559,-8.3559,-8.3559,-8.3559,-8.3559,-8.3559,-8.3559,-8.3559,-8.3559,-8.3559,-8.3559,-8.3559,-8.3559,-8.3559,-8.3559,-8.3559,-8.3534,-8.351,-8.3217,-8.3217,-8.3168,-8.3168,-8.2997,-8.2363,-8.1704,-8.0769,-8.0264,-8.0167,-8.0142,-8.0184,-7.9812,-7.9093,-7.8995,-7.8788,-7.8157,-7.7686,-7.7537,-7.7665,-7.7341,-7.7165,-7.7165,-7.7265,-7.7265,-7.7265,-7.7265,-7.7541,-7.7716,-7.7541,-7.7316,-7.7816,-7.7441,-7.7541,-7.7816,-7.7915,-7.7915,-7.8015,-7.7791,-7.7516,-7.7141,-7.6739,-7.6436,-7.6311,-7.5805,-7.5297,-7.4763,-7.4558,-7.4353,-7.4021,-7.3815,-7.3815,-7.3815,-7.3815,-7.3712,-7.3505,-7.3632,-7.278,-7.0534,-6.8189,-6.661,-6.6284,-6.5519,-6.4847,-6.4627,-6.3906,-6.3736,-6.3504,-6.3504,-6.3504,-6.3504,-6.3444,-6.3193,-6.3052,-6.2992,-6.2972,-6.258,-6.246,-6.3032,-6.3133,-6.3223,-6.3243,-6.3303,-6.2902,-6.2549,-6.2791,-6.3173,-6.3072,-6.3092,-6.3012,-6.3042,-6.3484,-6.3404,-6.3103,-6.3203,-6.3464,-6.3504,-8.5316,-8.5209,-8.4051,-8.3559,-8.3559,-8.3559,-8.3559,-8.3559,-8.3559,-8.3559,-8.3559,-8.3559,-8.3559,-8.3559,-8.3559,-8.3534,-8.3437,-8.3105,-8.2412,-8.1948,-8.1875,-8.1875,-8.1631,-8.0777,-8.0069,-7.9532,-7.9176,-7.9037,-7.9139,-7.9244,-7.9219,-7.8729,-7.8704,-7.8508,-7.7964,-7.7741,-7.7616,-7.7516,-7.7241,-7.7165,-7.7241,-7.7441,-7.7616,-7.7641,-7.784,-7.8039,-7.8288,-7.7816,-7.7816,-7.7915,-7.8039,-7.8139,-7.8412,-7.8412,-7.8213,-7.8114,-7.799,-7.7716,-7.7441,-7.7141,-7.6842,-7.6412,-7.6133,-7.55,-7.4865,-7.4329,-7.4147,-7.3918,-7.3792,-7.3792,-7.3815,-7.3815,-7.3815,-7.3815,-7.3815,-7.3505,-7.2236,-7.0216,-6.8404,-6.6785,-6.6333,-6.5622,-6.4394,-6.3228,-6.2791,-6.2348,-6.2368,-6.2066,-6.2167,-6.1805,-6.1785,-6.2267,-6.2308,-6.2247,-6.1925,-6.2006,-6.2448,-6.2589,-6.265,-6.265,-6.2388,-6.1885,-6.1503,-6.2308,-6.2992,-6.2851,-6.2348,-6.2127,-6.2106,-6.2368,-6.2529,-6.2609,-6.263,-6.263,-6.277,-8.7565,-8.7434,-8.5586,-8.4781,-8.4781,-8.4375,-8.4159,-8.4184,-8.3751,-8.3496,-8.3433,-8.3384,-8.3345,-8.31,-8.3085,-8.3174,-8.2748,-8.2112,-8.1297,-8.0362,-8.0233,-8.0215,-7.9562,-7.9229,-7.8764,-7.8746,-7.831,-7.8188,-7.8312,-7.8685,-7.8758,-7.8709,-7.8709,-7.8634,-7.8288,-7.8189,-7.7915,-7.7765,-7.7565,-7.7665,-7.7641,-7.7915,-7.8114,-7.8114,-7.8412,-7.8733,-7.8708,-7.8412,-7.8213,-7.8238,-7.8188,-7.8063,-7.8258,-7.8109,-7.7714,-7.7469,-7.742,-7.7323,-7.6879,-7.6757,-7.673,-7.6056,-7.5627,-7.5267,-7.4329,-7.3748,-7.345,-7.3184,-7.3394,-7.3394,-7.3418,-7.3628,-7.3792,-7.3815,-7.3815,-7.3745,-7.3203,-7.187,-6.9848,-6.7817,-6.6644,-6.5381,-6.3468,-6.2957,-6.1724,-6.1121,-6.0759,-6.0396,-5.9994,-5.9551,-6.0155,-6.108,-6.1221,-6.1422,-6.1161,-6.1201,-6.1503,-6.1664,-6.1583,-6.1503,-6.0738,-6.0195,-6.0396,-6.1201,-6.2267,-6.2147,-6.1543,-6.1302,-6.1342,-6.1201,-6.1201,-6.1785,-6.2147,-6.1724,-6.1785,-8.9656,-8.9656,-8.8939,-8.8655,-8.7931,-8.6595,-8.5386,-8.5455,-8.407,-8.3223,-8.2905,-8.2864,-8.2551,-8.2059,-8.2119,-8.1797,-8.138,-8.1153,-8.0675,-8.0264,-7.9947,-7.9597,-7.8628,-7.8584,-7.8709,-7.8734,-7.866,-7.8634,-7.8708,-7.8733,-7.8733,-7.8832,-7.8832,-7.8931,-7.9103,-7.8807,-7.8906,-7.8906,-7.8535,-7.8337,-7.8436,-7.8535,-7.8634,-7.8708,-7.8807,-7.9103,-7.9201,-7.9004,-7.8682,-7.9249,-7.7591,-7.7338,-7.7597,-7.6434,-7.6134,-7.6374,-7.6499,-7.6284,-7.5728,-7.5158,-7.4797,-7.5186,-7.4266,-7.3366,-7.3189,-7.2863,-7.2256,-7.1724,-7.1968,-7.2568,-7.2755,-7.3403,-7.3857,-7.3895,-7.3801,-7.3426,-7.2716,-7.2257,-7.1682,-7.0345,-6.7454,-6.6156,-6.4807,-6.3262,-6.106,-6.0421,-6.0054,-5.9793,-5.9451,-5.8928,-5.925,-5.9914,-6.0195,-6.0477,-6.0437,-6.0356,-6.0517,-6.0557,-6.0417,-6.0175,-5.9431,-5.929,-5.939,-5.9612,-6.0396,-6.0598,-6.0396,-6.0638,-6.0819,-6.0678,-6.0276,-6.104,-6.1885,-6.1443,-6.1785,-8.7987,-8.706,-8.5618,-8.4925,-8.4823,-8.4071,-8.3654,-8.3446,-8.2607,-8.215,-8.2143,-8.1965,-8.1693,-8.1402,-8.1431,-8.1042,-8.0528,-7.9989,-7.9641,-7.9361,-7.8849,-7.8599,-7.861,-7.8535,-7.8733,-7.8733,-7.9004,-7.9201,-7.9201,-7.9521,-7.9619,-7.9521,-7.9619,-7.9593,-7.9568,-7.9201,-7.9201,-7.9004,-7.8832,-7.8733,-7.8733,-7.9004,-7.9201,-7.9201,-7.9495,-7.9716,-7.9789,-7.9495,-7.8744,-7.7951,-7.7327,-7.6835,-7.7138,-7.6615,-7.6319,-7.6081,-7.62,-7.5893,-7.547,-7.5066,-7.4571,-7.402,-7.3556,-7.2795,-7.2301,-7.2004,-7.1957,-7.1662,-7.2336,-7.2673,-7.2887,-7.3672,-7.4279,-7.4102,-7.3472,-7.2699,-7.19,-7.1806,-7.0788,-6.8734,-6.7013,-6.5559,-6.2594,-6.1492,-6.0372,-5.9675,-5.9393,-5.9209,-5.9192,-5.8686,-5.8566,-5.8827,-5.9089,-5.927,-5.929,-5.927,-5.937,-5.929,-5.9149,-5.9089,-5.8686,-5.8606,-5.8706,-5.8827,-5.8928,-5.9048,-5.9089,-5.923,-5.9612,-5.9773,-5.9471,-5.9813,-6.0879,-6.1141,-6.2006,-8.8022,-8.644,-8.471,-8.3756,-8.3351,-8.2689,-8.2534,-8.2382,-8.1687,-8.1534,-8.1445,-8.1216,-8.1042,-8.0896,-8.0846,-8.0589,-8.0036,-7.9342,-7.8921,-7.8596,-7.786,-7.8188,-7.8832,-7.9029,-7.9128,-7.9226,-7.9619,-7.9691,-7.9814,-7.9984,-8.0205,-8.0302,-8.0205,-7.9984,-7.9764,-7.9691,-7.9495,-7.9226,-7.9128,-7.9128,-7.9226,-7.9495,-7.9691,-7.9789,-8.001,-8.0205,-8.0205,-7.9609,-7.8471,-7.7058,-7.6652,-7.6356,-7.6399,-7.5976,-7.5513,-7.5354,-7.5429,-7.5294,-7.5015,-7.4779,-7.4392,-7.3478,-7.324,-7.2785,-7.2037,-7.1843,-7.1676,-7.1655,-7.2352,-7.2544,-7.2423,-7.3214,-7.3756,-7.3727,-7.3299,-7.2492,-7.1671,-7.1236,-7.0028,-6.6882,-6.6067,-6.399,-6.1595,-6.0156,-5.9583,-5.8912,-5.8649,-5.8527,-5.8811,-5.8609,-5.8344,-5.8344,-5.8344,-5.8324,-5.8304,-5.8304,-5.8304,-5.8304,-5.8344,-5.8425,-5.8364,-5.8304,-5.8304,-5.8304,-5.8606,-5.8686,-5.8485,-5.8364,-5.8344,-5.8706,-5.8807,-5.939,-6.0296,-6.1227,-6.1966,-9.1602,-9.0267,-8.9484,-8.7765,-8.6406,-8.4655,-8.3728,-8.3755,-8.2359,-8.1453,-8.1156,-8.0905,-8.0728,-8.0367,-8.037,-8.0024,-7.9598,-7.9328,-7.9081,-7.8833,-7.8734,-7.8931,-7.9397,-7.9814,-8.001,-8.001,-8.0107,-8.0179,-8.0107,-8.0205,-8.0302,-8.0302,-8.0302,-8.0205,-8.0205,-8.0205,-8.0082,-8.001,-8.0107,-8.0107,-8.0107,-8.0154,-8.0103,-8.0103,-8.0002,-8.0022,-7.9819,-7.8911,-7.7921,-7.6906,-7.5513,-7.5008,-7.4988,-7.3906,-7.3693,-7.4064,-7.3836,-7.3963,-7.3772,-7.3574,-7.3461,-7.3869,-7.3269,-7.2896,-7.2664,-7.2145,-7.1571,-7.0799,-7.138,-7.1461,-7.1056,-7.1942,-7.2444,-7.2122,-7.2737,-7.2615,-7.1128,-7.077,-6.9122,-6.6603,-6.4693,-6.3074,-6.0936,-5.9503,-5.9035,-5.8792,-5.8589,-5.869,-5.8771,-5.8589,-5.8406,-5.8324,-5.8324,-5.8304,-5.8304,-5.8304,-5.8304,-5.8304,-5.8324,-5.8344,-5.8324,-5.8304,-5.8304,-5.8304,-5.8405,-5.8385,-5.8324,-5.8324,-5.8324,-5.8445,-5.8827,-5.935,-6.0074,-6.0985,-6.1744,-8.5476,-8.4169,-8.3881,-8.3496,-8.2966,-8.2185,-8.1817,-8.162,-8.0703,-8.0402,-8.0496,-8.0198,-7.9946,-7.9865,-7.9789,-7.9495,-7.9103,-7.9004,-7.9226,-7.9619,-7.9716,-7.9814,-8.001,-8.023,-8.0302,-8.0302,-8.0302,-8.0302,-8.0302,-8.0302,-8.0302,-8.0302,-8.0302,-8.0277,-8.0302,-8.0302,-8.0302,-8.0302,-8.0277,-8.0302,-8.0175,-7.9591,-7.921,-7.9133,-7.8574,-7.8244,-7.8143,-7.7076,-7.6314,-7.5714,-7.4684,-7.4101,-7.4166,-7.3746,-7.3493,-7.3671,-7.3671,-7.3671,-7.3671,-7.3224,-7.3041,-7.2813,-7.2365,-7.1998,-7.1906,-7.1906,-7.1691,-7.1388,-7.1917,-7.2231,-7.201,-7.294,-7.2856,-7.1662,-7.2291,-7.2324,-7.1708,-7.0329,-6.8066,-6.5587,-6.3976,-6.2211,-6.0643,-5.9479,-5.9681,-5.9176,-5.8873,-5.8873,-5.8589,-5.8507,-5.8406,-5.8304,-5.8304,-5.8304,-5.8304,-5.8304,-5.8304,-5.8304,-5.8304,-5.8304,-5.8304,-5.8304,-5.8304,-5.8304,-5.8304,-5.8304,-5.8304,-5.8304,-5.8344,-5.8666,-5.8908,-5.9511,-6.0195,-6.1006,-6.1402,-8.2951,-8.1699,-8.1122,-8.0762,-8.0302,-8.0302,-8.0302,-8.0205,-7.9887,-7.9887,-8.0179,-7.9887,-7.9789,-7.9789,-7.9789,-7.9593,-7.9226,-7.9226,-7.9619,-8.0107,-8.0205,-8.0205,-8.0205,-8.0302,-8.0302,-8.0302,-8.0302,-8.0302,-8.0302,-8.0302,-8.0099,-7.9819,-7.9743,-7.9616,-7.921,-7.926,-7.926,-7.9286,-7.926,-7.9286,-7.9184,-7.8473,-7.8092,-7.8016,-7.738,-7.6593,-7.5983,-7.5196,-7.4764,-7.4764,-7.4053,-7.3671,-7.3671,-7.3671,-7.3671,-7.3671,-7.3671,-7.3671,-7.3671,-7.3314,-7.3019,-7.2634,-7.2339,-7.2042,-7.2042,-7.2092,-7.2158,-7.2067,-7.2609,-7.2634,-7.2529,-7.3179,-7.2955,-7.1729,-7.2042,-7.2348,-7.1687,-7.0606,-6.8068,-6.5332,-6.4171,-6.2584,-6.0522,-5.966,-5.9782,-5.9399,-5.9197,-5.8974,-5.8771,-5.8792,-5.8711,-5.8304,-5.8304,-5.8304,-5.8304,-5.8304,-5.8304,-5.8304,-5.8304,-5.8304,-5.8304,-5.8304,-5.8304,-5.8304,-5.8304,-5.8304,-5.8304,-5.8304,-5.8304,-5.8505,-5.8787,-5.9451,-6.0336,-6.0819,-6.1101,-8.5891,-8.4196,-8.3019,-8.1455,-8.0399,-8.0302,-8.0302,-8.0302,-8.0205,-8.0205,-8.0302,-8.0205,-8.0205,-8.0205,-8.0205,-8.0128,-7.9854,-7.9752,-7.9875,-7.9972,-8.0048,-8.0048,-7.9997,-7.9946,-7.9946,-7.9997,-8.0175,-8.0175,-8.0022,-7.9946,-7.9514,-7.8752,-7.86,-7.8193,-7.7152,-7.7355,-7.7228,-7.7304,-7.738,-7.7253,-7.705,-7.7076,-7.6974,-7.6974,-7.6822,-7.5856,-7.3951,-7.3799,-7.3824,-7.3773,-7.3697,-7.3671,-7.3671,-7.3671,-7.3671,-7.3671,-7.3671,-7.3671,-7.3697,-7.3671,-7.3582,-7.3493,-7.3582,-7.3403,-7.3378,-7.3378,-7.3109,-7.2544,-7.2609,-7.2454,-7.1613,-7.201,-7.2413,-7.2133,-7.2634,-7.2519,-7.1861,-7.177,-7.0625,-6.7503,-6.5813,-6.4224,-6.112,-5.9962,-5.9983,-6.0003,-5.9802,-5.9479,-5.9479,-5.9882,-5.9419,-5.8812,-5.8406,-5.8304,-5.8304,-5.8304,-5.8304,-5.8304,-5.8304,-5.8304,-5.8304,-5.8304,-5.8304,-5.8304,-5.8304,-5.8304,-5.8304,-5.8304,-5.8304,-5.8364,-5.8566,-5.8968,-5.9652,-6.0235,-6.0658,-8.3983,-8.1794,-8.1219,-8.0665,-8.0302,-8.0302,-8.0302,-8.0302,-8.0302,-8.0302,-8.0302,-8.0302,-8.0302,-8.0302,-8.0302,-7.9591,-7.8143,-7.8092,-7.8066,-7.8041,-7.8066,-7.8092,-7.8066,-7.8066,-7.8041,-7.8092,-7.8066,-7.8066,-7.8066,-7.8066,-7.7863,-7.7507,-7.7507,-7.7304,-7.7076,-7.7025,-7.7025,-7.7025,-7.7025,-7.6999,-7.6898,-7.6237,-7.5805,-7.5729,-7.512,-7.4383,-7.3748,-7.3671,-7.3671,-7.3671,-7.3671,-7.3671,-7.3671,-7.3671,-7.3671,-7.3671,-7.3671,-7.3671,-7.3671,-7.3671,-7.3671,-7.3671,-7.3671,-7.3671,-7.3671,-7.3671,-7.3582,-7.3314,-7.3403,-7.3314,-7.293,-7.2994,-7.3174,-7.3199,-7.3289,-7.3289,-7.293,-7.1861,-7.0232,-6.8256,-6.61,-6.3998,-6.2451,-6.1957,-6.1681,-6.1482,-6.1362,-6.1063,-6.0963,-6.1383,-6.1582,-5.9761,-5.8792,-5.8406,-5.8406,-5.8507,-5.8507,-5.8406,-5.8304,-5.8304,-5.8304,-5.8304,-5.8304,-5.8304,-5.8304,-5.8304,-5.8304,-5.8304,-5.8324,-5.8344,-5.8505,-5.8767,-5.9209,-5.9672,-6.0074,-8.2113,-7.9795,-7.9274,-7.9108,-7.9108,-7.9108,-7.9108,-7.9108,-7.9133,-7.9133,-7.9133,-7.9083,-7.9108,-7.9133,-7.9108,-7.832,-7.7101,-7.7025,-7.7025,-7.7025,-7.7025,-7.7025,-7.7025,-7.7025,-7.7025,-7.7025,-7.7025,-7.7025,-7.7025,-7.7025,-7.6796,-7.6466,-7.6364,-7.6161,-7.5856,-7.5805,-7.5805,-7.578,-7.5805,-7.5805,-7.5678,-7.5069,-7.4688,-7.4637,-7.4027,-7.3671,-7.3671,-7.3671,-7.3671,-7.3671,-7.3671,-7.3671,-7.3671,-7.3671,-7.3671,-7.3671,-7.3671,-7.3671,-7.3671,-7.3671,-7.3671,-7.3671,-7.3671,-7.3671,-7.3671,-7.3671,-7.3608,-7.3493,-7.3518,-7.3671,-7.3671,-7.3671,-7.3582,-7.3493,-7.3582,-7.3608,-7.3199,-7.2429,-7.1381,-7.0165,-6.7974,-6.5428,-6.4365,-6.3064,-6.2473,-6.2232,-6.2035,-6.1858,-6.188,-6.2177,-6.166,-6.0062,-5.9075,-5.869,-5.8589,-5.869,-5.8711,-5.8507,-5.8304,-5.8304,-5.8304,-5.8304,-5.8304,-5.8304,-5.8304,-5.8304,-5.8304,-5.8304,-5.8304,-5.8364,-5.8485,-5.8767,-5.9169,-5.9028,-5.937,-8.0497,-7.899,-7.7625,-7.7152,-7.705,-7.7101,-7.7076,-7.7228,-7.7126,-7.7076,-7.7177,-7.7152,-7.6974,-7.6872,-7.6847,-7.6822,-7.6771,-7.6669,-7.6644,-7.6644,-7.6695,-7.6796,-7.6847,-7.6847,-7.6796,-7.6568,-7.6542,-7.6593,-7.6695,-7.6745,-7.6288,-7.5247,-7.5196,-7.4713,-7.4002,-7.39,-7.3722,-7.3926,-7.3926,-7.3799,-7.3748,-7.3748,-7.3748,-7.3773,-7.3671,-7.3671,-7.3671,-7.3671,-7.3671,-7.3671,-7.3671,-7.3671,-7.3671,-7.3671,-7.3671,-7.3671,-7.3671,-7.3671,-7.3671,-7.3671,-7.3671,-7.3671,-7.3671,-7.3671,-7.3671,-7.3671,-7.3467,-7.2994,-7.3493,-7.3671,-7.3671,-7.3671,-7.3493,-7.3109,-7.3378,-7.3378,-7.2994,-7.3289,-7.3608,-7.284,-7.1199,-6.8724,-6.5502,-6.3118,-6.2353,-6.2353,-6.2056,-6.1979,-6.255,-6.2078,-6.1262,-6.0163,-5.956,-5.9358,-5.9378,-5.95,-5.9318,-5.8913,-5.8711,-5.8426,-5.8304,-5.8304,-5.8304,-5.8304,-5.8304,-5.8304,-5.8304,-5.8304,-5.8304,-5.8344,-5.8485,-5.8485,-5.8646,-5.8425,-5.8566,-7.9482,-7.8964,-7.7573,-7.7025,-7.7025,-7.7025,-7.7025,-7.7025,-7.7025,-7.7025,-7.7025,-7.7025,-7.6136,-7.4738,-7.4586,-7.4586,-7.4586,-7.4586,-7.4586,-7.4586,-7.4586,-7.4586,-7.4586,-7.4586,-7.4586,-7.4586,-7.4637,-7.4611,-7.4586,-7.4586,-7.4434,-7.418,-7.4103,-7.3951,-7.3697,-7.3671,-7.3671,-7.3671,-7.3671,-7.3671,-7.3671,-7.3671,-7.3671,-7.3671,-7.3671,-7.3671,-7.3671,-7.3671,-7.3671,-7.3671,-7.3671,-7.3671,-7.3671,-7.3671,-7.3671,-7.3671,-7.3671,-7.3671,-7.3671,-7.3671,-7.3671,-7.3671,-7.3671,-7.3671,-7.3671,-7.3671,-7.3582,-7.3493,-7.3582,-7.3671,-7.3671,-7.3671,-7.3671,-7.3493,-7.3582,-7.3697,-7.3467,-7.3608,-7.284,-7.0857,-7.0257,-6.8491,-6.5689,-6.4379,-6.3794,-6.3891,-6.3891,-6.3989,-6.3989,-6.3282,-6.2374,-6.1539,-6.1042,-6.0984,-6.1262,-6.0605,-5.9903,-5.9378,-5.8994,-5.8711,-5.8406,-5.8304,-5.8304,-5.8304,-5.8304,-5.8304,-5.8304,-5.8304,-5.8304,-5.8304,-5.8344,-5.8364,-5.8304,-5.8324,-5.8324,-7.6888,-7.6824,-7.5968,-7.5653,-7.5653,-7.5653,-7.5628,-7.5653,-7.5653,-7.5653,-7.5653,-7.5653,-7.4942,-7.3697,-7.3671,-7.3671,-7.3671,-7.3671,-7.3671,-7.3671,-7.3671,-7.3671,-7.3671,-7.3671,-7.3671,-7.3671,-7.3671,-7.3671,-7.3671,-7.3671,-7.3671,-7.3671,-7.3671,-7.3671,-7.3671,-7.3671,-7.3671,-7.3671,-7.3671,-7.3671,-7.3671,-7.3671,-7.3671,-7.3671,-7.3671,-7.3671,-7.3671,-7.3671,-7.3671,-7.3671,-7.3467,-7.3493,-7.3697,-7.3493,-7.3493,-7.3671,-7.3671,-7.3671,-7.3671,-7.3671,-7.3671,-7.3671,-7.3671,-7.3671,-7.3671,-7.3671,-7.3671,-7.3671,-7.3671,-7.3671,-7.3671,-7.3671,-7.3671,-7.3671,-7.3671,-7.3671,-7.3671,-7.3084,-7.2042,-7.014,-6.9424,-6.8303,-6.6433,-6.5689,-6.5326,-6.479,-6.4499,-6.4304,-6.4326,-6.3794,-6.3162,-6.2747,-6.2473,-6.2177,-6.1461,-6.0505,-5.9903,-5.9479,-5.9075,-5.8792,-5.8406,-5.8304,-5.8304,-5.8304,-5.8304,-5.8304,-5.8304,-5.8304,-5.8304,-5.8304,-5.8304,-5.8304,-5.8304,-5.8304,-5.8304,-7.3722,-7.3671,-7.3773,-7.3671,-7.3748,-7.3722,-7.3773,-7.3748,-7.3697,-7.3671,-7.3799,-7.3671,-7.3722,-7.3671,-7.3671,-7.3671,-7.3671,-7.3671,-7.3671,-7.3671,-7.3671,-7.3671,-7.3671,-7.3671,-7.3671,-7.3671,-7.3671,-7.3671,-7.3671,-7.3671,-7.3671,-7.3671,-7.3671,-7.3671,-7.3671,-7.3671,-7.3671,-7.3671,-7.3671,-7.3671,-7.3671,-7.3671,-7.3671,-7.3671,-7.3671,-7.3671,-7.3671,-7.3671,-7.3671,-7.3671,-7.3199,-7.3109,-7.3493,-7.3199,-7.3109,-7.3557,-7.3671,-7.3671,-7.3671,-7.3671,-7.3671,-7.3671,-7.3671,-7.3671,-7.3671,-7.3392,-7.324,-7.324,-7.3341,-7.3367,-7.3519,-7.3595,-7.3671,-7.3671,-7.3467,-7.3493,-7.3403,-7.2248,-7.09,-7.0417,-6.9331,-6.8467,-6.7243,-6.6601,-6.605,-6.4887,-6.4401,-6.4229,-6.4131,-6.3891,-6.3696,-6.3478,-6.3282,-6.2692,-6.1702,-6.0626,-6.0204,-5.966,-5.8994,-5.8711,-5.8609,-5.8528,-5.8304,-5.8304,-5.8304,-5.8304,-5.8304,-5.8304,-5.8304,-5.8304,-5.8304,-5.8304,-5.8304,-5.8304,-5.8304,-7.3671,-7.3671,-7.3671,-7.3671,-7.3671,-7.3671,-7.3671,-7.3671,-7.3646,-7.3671,-7.3671,-7.3671,-7.3671,-7.3671,-7.3671,-7.3671,-7.3671,-7.3671,-7.3671,-7.3671,-7.3671,-7.3671,-7.3671,-7.3671,-7.3671,-7.3671,-7.3671,-7.3671,-7.3671,-7.3671,-7.3671,-7.3671,-7.3671,-7.3671,-7.3671,-7.3671,-7.3671,-7.3671,-7.3671,-7.3671,-7.3671,-7.3671,-7.3671,-7.3671,-7.3646,-7.3671,-7.3671,-7.3671,-7.3671,-7.3671,-7.3199,-7.293,-7.2994,-7.293,-7.2904,-7.3109,-7.3467,-7.3671,-7.3671,-7.3671,-7.3671,-7.3671,-7.3671,-7.3671,-7.3494,-7.1563,-7.0394,-7.0953,-7.1588,-7.2046,-7.235,-7.3062,-7.3671,-7.3582,-7.2609,-7.2189,-7.3174,-7.1315,-6.9307,-6.8444,-6.781,-6.684,-6.5785,-6.5252,-6.5133,-6.4768,-6.4618,-6.4499,-6.4499,-6.4476,-6.4401,-6.4206,-6.35,-6.2987,-6.3696,-6.2593,-6.1561,-6.1539,-6.0384,-5.952,-5.9238,-5.8711,-5.8406,-5.8304,-5.8304,-5.8304,-5.8304,-5.8304,-5.8304,-5.8304,-5.8304,-5.8304,-5.8304,-5.8304,-5.8304,-7.3671,-7.3671,-7.3671,-7.3671,-7.3671,-7.3671,-7.3671,-7.3595,-7.2554,-7.2071,-7.2122,-7.263,-7.2884,-7.2935,-7.3443,-7.3671,-7.3671,-7.3671,-7.3671,-7.3671,-7.3671,-7.3671,-7.3671,-7.3671,-7.3671,-7.3671,-7.3671,-7.3671,-7.3671,-7.3671,-7.3671,-7.3671,-7.3671,-7.3671,-7.3671,-7.3671,-7.3671,-7.3671,-7.3138,-7.2884,-7.2859,-7.235,-7.2071,-7.2096,-7.2071,-7.2096,-7.2071,-7.2071,-7.1984,-7.1834,-7.1307,-7.1042,-7.1105,-7.1105,-7.1105,-7.137,-7.1809,-7.2096,-7.2071,-7.2071,-7.2071,-7.2071,-7.2071,-7.2071,-7.2071,-7.0572,-6.9785,-7.0166,-7.0547,-7.0902,-7.1131,-7.169,-7.1809,-7.1219,-7.0461,-6.9665,-6.9087,-6.7587,-6.6475,-6.5611,-6.4864,-6.4392,-6.403,-6.4001,-6.4113,-6.4648,-6.4693,-6.4693,-6.4693,-6.4314,-6.4017,-6.4096,-6.3696,-6.3576,-6.3794,-6.2769,-6.1858,-6.1482,-6.0405,-5.95,-5.9116,-5.8812,-5.8304,-5.8304,-5.8304,-5.8304,-5.8304,-5.8304,-5.8304,-5.8304,-5.8304,-5.8304,-5.8304,-5.8304,-5.8304,-7.3163,-7.3189,-7.3214,-7.3189,-7.3189,-7.3189,-7.3189,-7.3011,-7.108,-7.0191,-7.0242,-7.1233,-7.169,-7.1715,-7.2732,-7.3189,-7.3163,-7.3163,-7.3189,-7.3189,-7.3341,-7.3443,-7.3443,-7.3621,-7.3671,-7.3671,-7.3671,-7.3671,-7.3671,-7.3671,-7.3671,-7.3671,-7.3671,-7.3671,-7.3671,-7.3671,-7.3519,-7.3189,-7.2198,-7.169,-7.1665,-7.0699,-7.0191,-7.0081,-7.0131,-7.0081,-6.9996,-7.0046,-6.985,-6.9533,-6.8956,-6.8783,-6.887,-6.8684,-6.8732,-6.9136,-6.9386,-6.9641,-6.9878,-6.9903,-6.9928,-7.0166,-7.0191,-6.9963,-6.9472,-6.9607,-6.9708,-6.9734,-6.9556,-6.9683,-6.9623,-6.9629,-6.9204,-6.8225,-6.7802,-6.661,-6.4456,-6.3875,-6.345,-6.2746,-6.2086,-6.2242,-6.2819,-6.2952,-6.3265,-6.3979,-6.3957,-6.418,-6.3934,-6.3287,-6.2868,-6.3517,-6.3715,-6.3398,-6.2962,-6.2042,-6.1204,-6.0605,-5.9585,-5.8684,-5.8002,-5.77,-5.7861,-5.8244,-5.8304,-5.8203,-5.7962,-5.8002,-5.7861,-5.8022,-5.8022,-5.8123,-5.8284,-5.8143,-5.8001,-7.0801,-7.0801,-7.0775,-7.0801,-7.0801,-7.0775,-7.0801,-7.0775,-7.0369,0.0,0.0,-7.0394,-7.0496,-7.0521,-7.0725,-7.0801,-7.0801,-7.0801,-7.0801,-7.0852,-7.1792,-7.2223,-7.23,-7.3214,-7.3671,-7.3671,-7.3671,-7.3671,-7.3671,-7.3671,-7.3671,-7.3671,-7.3671,-7.3671,-7.3671,-7.3671,-7.2732,-7.0902,-7.0598,-7.0471,-7.0496,-7.0267,-6.9996,-6.9679,-6.9679,-6.9508,-6.9215,-6.9215,-6.9215,-6.9129,-6.8548,-6.8312,-6.8374,-6.7559,-6.7064,-6.7185,-6.6762,-6.7103,-6.8343,-6.8418,-6.894,-7.0115,-7.0191,-6.8939,-6.5902,-6.6777,-6.7448,-6.7448,-6.7237,-6.7146,-6.7171,-6.6991,-6.6876,-6.6636,-6.548,-6.4481,-6.3806,-6.2855,-6.1826,-6.1281,-6.1413,-6.1907,-6.2041,-6.2086,-6.2198,-6.2354,-6.2417,-6.2216,-6.2037,-6.0899,-6.0808,-6.3431,-6.3002,-6.2118,-6.1886,-6.1388,-6.0617,-5.9838,-5.8794,-5.7628,-5.6482,-5.6091,-5.6695,-5.7741,-5.8284,-5.7841,-5.7016,-5.6513,-5.6353,-5.7057,-5.7218,-5.7419,-5.8022,-5.7741,-5.7077,-7.0191,-7.0191,-7.0191,-7.0191,0.0,-7.0191,-6.9531,-6.8489,-6.8514,-6.8489,-6.854,-6.9124,-6.9378,-6.9404,-6.9937,-7.0191,-7.0191,-7.0191,-7.0191,-7.0217,-7.0775,-7.1055,-7.1055,-7.1639,-7.1919,-7.1919,-7.1919,-7.1919,-7.1893,-7.1919,-7.1893,-7.1919,-7.1893,-7.1893,-7.1893,-7.1893,-7.108,-6.9404,-6.9378,-6.921,-6.9016,-6.846,-6.8015,-6.7513,-6.7513,0.0,0.0,0.0,0.0,0.0,0.0,0.0,0.0,-6.4795,-6.364,-6.3181,-6.1819,-6.1216,-6.1601,-6.2203,-6.291,-6.3725,-6.4783,-6.4372,-6.1903,-6.3518,-6.4711,-6.4816,-6.4281,-6.3927,-6.4058,-6.3484,-6.2896,-6.2733,-6.2048,-6.1464,-6.1208,-6.0658,-6.0096,-5.9716,-6.0007,-6.0453,-6.0944,-6.1011,-6.1189,-6.1751,-6.1725,-6.177,-6.1569,-6.0029,-5.9538,-6.1926,-6.1881,-6.161,-6.1469,-6.0888,-6.0211,-5.927,-5.8226,-5.7145,-5.594,-5.4894,-5.4542,-5.5407,-5.6393,-5.6695,-5.5829,-5.5648,-5.5749,-5.6151,-5.6292,-5.6594,-5.7379,-5.7278,-5.6918,-6.9556,-6.9531,-6.9556,-6.9556,-6.9556,-6.9556,-6.8514,-6.6863,-6.6863,-6.6863,-6.6939,-6.7879,-6.8286,-6.8337,-6.9175,-6.9556,-6.9556,-6.9556,-6.9531,-6.9556,-6.9785,-6.9886,-6.9886,-7.009,-7.0191,-7.0191,-7.0191,-7.0191,-7.0191,-7.0191,-7.0191,-7.0191,-7.0191,-7.0191,-7.0166,0.0,0.0,0.0,-6.8286,-6.8095,-6.7654,-6.6798,-6.5911,-6.5203,-6.5037,0.0,-6.4515,-6.4681,-6.454,-6.4039,-6.4123,0.0,-6.3546,0.0,0.0,0.0,0.0,0.0,0.0,0.0,0.0,0.0,-5.7644,-5.8116,-5.7696,-5.9898,-6.1591,-6.2151,-6.1032,-6.0528,-6.101,-5.9757,-5.8831,-5.863,-5.8623,-5.8521,-5.8217,-5.8177,-5.8266,-5.8422,-5.8489,-5.8869,-5.9806,-6.0007,-6.0297,-6.0922,-6.1259,-6.1167,-6.1123,-5.936,-5.8645,-5.9694,-6.0654,-6.0939,-6.0452,-5.988,-5.9193,-5.8098,-5.7132,-5.626,-5.5314,-5.399,-5.3146,-5.3246,-5.416,-5.4964,-5.4542,-5.4803,-5.5085,-5.5347,-5.5367,-5.5588,-5.6292,-5.6256,-5.6259,-6.727,-6.7295,-6.7295,-6.7295,-6.7295,-6.7295,-6.7117,-6.6863,-6.6863,-6.6863,-6.6863,-6.7016,-6.7092,-6.7092,-6.7244,-6.7295,-6.7295,-6.7295,-6.7295,-6.7346,-6.8337,-6.8794,-6.8845,-6.9759,-7.0191,-7.0191,-7.0191,-7.0191,-7.0191,-7.0191,-7.0191,-7.0191,-7.0191,-7.0191,-7.009,-6.826,-6.7219,-6.7092,-6.7092,-6.7066,-6.7011,-6.6558,-6.5475,-6.3931,-6.3404,-6.2389,-6.0825,-6.1536,-6.1559,-6.0761,-6.145,-6.1525,-6.0631,-5.7487,-5.5159,0.0,-5.0321,0.0,0.0,0.0,0.0,0.0,0.0,0.0,0.0,-5.6005,-5.8006,-5.9342,-5.7952,-5.7396,-5.8365,-5.6425,-5.5412,-5.6169,-5.6219,-5.6242,-5.623,-5.6168,-5.6503,-5.7418,-5.753,-5.7887,-5.8735,-5.8936,-5.8936,-5.9136,-5.9159,-5.9092,-5.8936,-5.7485,-5.6949,-5.869,-5.9047,-5.9025,-5.8088,-5.7797,-5.7054,-5.5417,-5.4703,-5.4242,-5.3565,-5.3105,-5.3045,-5.3065,-5.3226,-5.3387,-5.3327,-5.3347,-5.3649,-5.424,-5.4226,-5.4171,-5.4276,-5.3513,-5.3071,-6.6863,-6.6863,-6.6863,-6.6127,-6.5034,-6.5009,-6.5034,-6.5034,-6.5009,-6.5034,-6.5034,-6.5034,-6.5034,-6.5009,-6.5034,-6.5009,-6.5009,-6.5034,-6.5364,-6.6025,-6.6533,-6.7066,-6.7651,-6.8108,-6.8337,-6.8337,-6.8337,-6.8337,-6.8337,-6.8337,-6.8337,-6.8337,-6.8337,-6.8032,-6.7473,-6.6482,-6.6279,-6.6863,-6.6131,-6.5285,-6.4349,-6.4814,-6.4481,-6.3332,-6.2922,-6.2304,-6.1302,-6.0167,-5.9526,-5.9331,-5.8782,-5.7942,-5.689,-5.3436,-5.0461,0.0,0.0,0.0,0.0,0.0,0.0,0.0,0.0,0.0,0.0,0.0,-5.5306,-5.4949,-5.483,-5.4215,-5.3007,-5.285,-5.2687,-5.2598,-5.3044,-5.3459,-5.3459,-5.4339,-5.5187,-5.5655,-5.6168,-5.6637,-5.7039,-5.7083,-5.7284,-5.7887,-5.744,-5.6972,-5.657,-5.6191,-5.6129,-5.7008,-5.8091,-5.8071,-5.6139,-5.5421,-5.4612,-5.3311,-5.2709,-5.2331,-5.2063,-5.151,-5.1122,-5.1464,-5.1806,-5.2017,-5.1654,-5.1574,-5.1876,-5.2378,-5.1767,-5.0893,-5.0559,-5.038,-5.0052,-6.6076,-6.5898,-6.3764,-6.257,-6.1986,-6.1986,-6.257,-6.351,-6.351,-6.3409,-6.3228,-6.3485,-6.3102,-6.2244,-6.1705,-6.169,-6.2234,-6.2234,-6.323,-6.4831,-6.4882,-6.5314,-6.6076,-6.6101,-6.6076,-6.6076,-6.5822,-6.5796,-6.605,-6.5822,-6.5796,-6.6025,-6.5742,-6.4851,-6.3532,-6.4065,-6.4803,-6.5535,-6.4822,-6.3639,-6.2013,-6.2431,-6.2228,-6.1135,-6.0895,-6.0533,-5.9703,-5.7948,-5.699,-5.7076,-5.5616,-5.43,-5.2977,-4.8912,0.0,0.0,0.0,0.0,0.0,0.0,0.0,0.0,0.0,-3.837,-4.0755,0.0,-5.0507,0.0,-5.0689,-5.0639,-4.8939,-4.9665,0.0,0.0,-4.9645,-4.9942,-4.9742,-5.1237,-5.2486,-5.291,-5.3825,-5.4673,-5.5365,-5.5454,-5.5767,-5.6481,-5.5744,-5.512,-5.4932,-5.5081,-5.5182,-5.5649,-5.6769,-5.6901,-5.4918,-5.3653,-5.2751,-5.169,-5.111,-5.0747,-5.066,-5.0095,-4.9834,-5.0418,-5.0961,-5.0961,-5.0458,-5.0405,-5.0647,-5.0751,-4.9377,-4.7898,-4.7851,-4.7861,-4.7573,-6.3815,-6.3103,-5.4949,-5.3806,-5.7457,-5.7508,-5.9725,-6.3459,-6.3485,-6.3069,-6.2238,-6.315,-6.1805,-5.8562,-5.6219,0.0,-5.855,-5.8534,-6.0413,-6.3688,-6.3713,-6.3739,-6.3815,-6.384,-6.3815,-6.3815,-6.2773,-6.2824,-6.3739,-6.2748,-6.2799,-6.3739,-6.2494,-6.0628,-5.8426,-6.0527,-6.1761,-6.1862,-6.2741,-6.2465,-6.1101,-5.9332,-5.7589,-5.5945,-5.5462,-5.451,-5.2832,-5.3331,-5.3289,-5.2533,-5.1837,-5.0617,-4.8724,0.0,0.0,0.0,0.0,0.0,0.0,0.0,0.0,0.0,0.0,0.0,0.0,0.0,0.0,-4.3626,-4.4696,0.0,-4.8578,-4.727,0.0,0.0,0.0,-4.5383,-4.4765,-4.5567,-4.6882,-4.8693,0.0,0.0,-5.4138,-5.4495,-5.4539,-5.4606,-5.3758,-5.3641,-5.4936,-5.3923,-5.3502,-5.4432,-5.4828,-5.4636,-5.3715,-5.2778,-5.1728,-5.0558,-4.9941,-4.9558,-4.9472,-4.9754,-5.0438,-5.09,-5.1202,-5.1021,-5.0485,-5.0068,-5.0096,-4.9179,-4.7924,-4.7228,-4.7516,-4.6887,-4.5378,-5.5804,-4.9595,-4.5408,-4.5427,-4.8157,-4.7943,-5.0878,-5.5905,-5.5647,-5.5965,-5.6632,-5.6784,-5.4966,-5.1702,-5.0652,0.0,0.0,0.0,-5.5589,-5.9217,-6.0599,-6.2051,-6.3176,-6.3458,-6.3407,-6.315,-6.295,-6.3129,-6.351,-6.3103,-6.0471,-5.5817,0.0,-5.395,-5.4081,-5.6067,-5.7771,-5.9027,-5.9322,-5.9095,-5.8399,-5.6744,-5.5683,-5.5241,-5.5051,-5.4375,-5.314,-5.1863,-5.0666,-4.9482,-4.7179,-4.4591,0.0,0.0,0.0,0.0,0.0,0.0,0.0,0.0,0.0,0.0,0.0,-2.8855,-3.038,0.0,0.0,0.0,-3.696,-3.7788,-4.2268,-4.4144,0.0,0.0,0.0,0.0,0.0,0.0,0.0,-4.4765,-4.7283,-4.9742,-5.146,-5.117,-5.1036,-5.1638,-5.175,-5.1494,-5.1026,0.0,-5.1228,-5.0883,-5.1528,-5.1581,-5.0409,-4.9024,-4.802,-4.7969,-4.8144,-4.8301,-4.8321,-4.8482,-4.8487,-4.819,-4.8594,-4.8772,-4.7742,-4.6483,-4.532,-4.4102,-4.3714,-4.351,-4.3027,-4.2899,-4.2487,-4.5414,0.0,0.0,0.0,0.0,-3.8587,-4.2091,-4.8109,-4.7762,-4.8654,-5.0381,-5.0067,0.0,0.0,0.0,0.0,0.0,0.0,-5.0653,-5.4464,-5.746,-5.9498,-6.0727,-6.095,-6.0876,-6.0478,-6.012,-6.0115,-6.0368,-5.8777,-5.428,-4.7168,0.0,0.0,0.0,0.0,-5.3612,-5.5709,-5.6386,-5.6265,-5.5531,-5.4362,-5.3635,-5.3424,-5.3297,-5.2857,-5.212,-4.944,-4.7509,-4.6269,-4.2406,0.0,0.0,0.0,0.0,0.0,0.0,0.0,0.0,0.0,0.0,0.0,0.0,0.0,0.0,0.0,0.0,0.0,0.0,0.0,-3.6377,-4.0032,-4.1159,0.0,0.0,0.0,0.0,0.0,0.0,0.0,0.0,0.0,-4.7118,-4.7518,-4.8162,0.0,0.0,-4.9791,-4.8438,-4.8457,-4.8596,-4.81,-4.9344,0.0,-4.7275,-4.5666,-4.497,-4.561,-4.6169,-4.6429,-4.603,-4.593,-4.5645,-4.5243,-4.5893,-4.5545,-4.3243,-4.1535,-4.0506,-3.9928,-3.9903,-3.9741,-3.8895,-3.8932,-3.9096,0.0,0.0,0.0,0.0,-3.0335,0.0,0.0,0.0,-4.1221,-4.2149,0.0,-4.3824,0.0,0.0,0.0,0.0,-3.8235,-4.1699,0.0,0.0,-5.4292,-5.6123,-5.5424,-5.5213,-5.485,-5.441,-5.2412,-5.1953,-5.2603,-4.728,-4.2552,0.0,0.0,0.0,0.0,0.0,-4.9595,-5.1687,-5.4102,-5.4643,-5.299,-5.2033,-5.0845,-4.9294,-4.8903,-4.8407,-4.7744,-4.5346,-4.3477,-4.2545,-3.7848,0.0,0.0,0.0,0.0,0.0,0.0,0.0,0.0,0.0,0.0,0.0,0.0,0.0,0.0,0.0,0.0,0.0,0.0,0.0,0.0,-3.4916,0.0,0.0,0.0,0.0,0.0,0.0,0.0,0.0,0.0,-4.1271,-4.0646,-4.3982,-4.6778,-4.7387,0.0,0.0,0.0,0.0,-4.5465,-4.6896,-4.8867,-4.8992,-4.5208,-4.4197,-4.3861,-4.3999,0.0,0.0,-4.2197,-4.1806,-4.1876,-4.3308,-4.354,-4.1892,-3.6384,-3.5821,-3.6507,-3.764,-3.7167,-3.6722,-3.6593,-3.6156,-3.5484,0.0,0.0,0.0,0.0,0.0,0.0,0.0,0.0,0.0,-3.481,-3.7437,-3.6514,0.0,0.0,0.0,0.0,0.0,0.0,0.0,0.0,-4.7063,-4.947,-5.0376,-5.0127,-4.9778,-4.934,-4.8028,-4.4752,0.0,0.0,0.0,0.0,0.0,0.0,0.0,0.0,-4.4087,-4.634,-4.9242,-5.0135,-4.8973,-4.8348,-4.7661,-4.6851,-4.6691,-4.5903,-4.4261,-4.2209,-3.9826,0.0,0.0,0.0,0.0,0.0,0.0,0.0,0.0,0.0,0.0,0.0,0.0,0.0,0.0,0.0,0.0,0.0,0.0,0.0,0.0,0.0,0.0,0.0,-3.2928,0.0,0.0,0.0,0.0,0.0,0.0,0.0,0.0,0.0,-3.5869,-3.858,-4.1347,-4.3404,-4.3963,-4.4709,-4.6113,0.0,0.0,0.0,0.0,0.0,0.0,0.0,-3.958,-3.9978,-3.9504,-3.9309,-3.9899,-3.7251,-3.5576,-3.7602,0.0,0.0,-3.1115,-3.073,-3.1644,-3.1904,-3.2113,-3.226,-3.2204,-3.2469,-3.1669,0.0,0.0,0.0,0.0,0.0,0.0,0.0,0.0,0.0,-2.6673,-2.9663,0.0,0.0,0.0,0.0,0.0,0.0,0.0,0.0,0.0,0.0,0.0,-4.3962,-4.3871,0.0,0.0,0.0,0.0,0.0,0.0,0.0,0.0,0.0,0.0,0.0,0.0,-4.0341,-4.3209,-4.6264,-4.7415,-4.6679,-4.6235,-4.5887,-4.5537,-4.5537,-4.4529,-4.243,0.0,0.0,0.0,0.0,0.0,0.0,0.0,0.0,0.0,0.0,0.0,0.0,0.0,0.0,0.0,0.0,0.0,0.0,0.0,0.0,0.0,0.0,0.0,0.0,0.0,-2.9409,0.0,0.0,0.0,0.0,0.0,0.0,0.0,0.0,0.0,0.0,-3.3704,-3.6608,-3.8959,-4.0084,-4.1542,-4.3531,-4.379,-4.3788,0.0,0.0,0.0,0.0,0.0,0.0,0.0,0.0,0.0,0.0,0.0,0.0,0.0,-3.336,-3.2261,-2.6221,-2.607,-2.6825,-2.6702,0.0,0.0,0.0,0.0,0.0,0.0,0.0,0.0,0.0,0.0,0.0,0.0,0.0,0.0,0.0,-2.0951,0.0,0.0,-1.9757,0.0,0.0,0.0,0.0,0.0,0.0,0.0,0.0,0.0,0.0,0.0,0.0,0.0,0.0,0.0,0.0,0.0,0.0,0.0,0.0,0.0,0.0,-3.8621,-4.2406,-4.5349,-4.6715,-4.6209,-4.5826,-4.5357,-4.5044,-4.4985,-4.412,-4.2155,0.0,0.0,0.0,0.0,0.0,0.0,0.0,0.0,0.0,0.0,0.0,0.0,0.0,0.0,0.0,0.0,0.0,0.0,0.0,0.0,0.0,0.0,0.0,0.0,0.0,0.0,-2.6513,-2.8437,-2.9006,0.0,0.0,0.0,0.0,0.0,0.0,0.0,0.0,0.0,-3.4374,-3.6899,-3.9231,-4.0781,-4.159,-4.1383,-3.9699,-4.0871,-4.0515,-3.6104,-3.504,-3.463,0.0,0.0,0.0,0.0,0.0,0.0,0.0,0.0,0.0,0.0,0.0,0.0,0.0,0.0,0.0,0.0,0.0,0.0,0.0,0.0,0.0,0.0,0.0,0.0,0.0,0.0,0.0,0.0,0.0,0.0,0.0,0.0,0.0,0.0,0.0,0.0,0.0,0.0,0.0,0.0,0.0,0.0,0.0,0.0,0.0,0.0,0.0,0.0,0.0,0.0,0.0,0.0,0.0,0.0,-3.6357,-3.9698,-4.292,-4.4428,-4.398,-4.3551,-4.327,-4.3175,-4.2591,-4.1051,-3.8498,0.0,0.0,0.0,0.0,0.0,0.0,0.0,0.0,0.0,0.0,0.0,0.0,0.0,0.0,0.0,0.0,0.0,0.0,0.0,0.0,0.0,0.0,0.0,0.0,0.0,0.0,0.0,-2.7961,-2.8614,-2.69,0.0,0.0,0.0,0.0,0.0,0.0,0.0,0.0,0.0,0.0,-3.7401,-3.8977,-4.0309,-4.0708,-3.9441,-3.729,-3.5399,-3.4293,-3.3361,-3.2208,-3.0801,0.0,0.0,0.0,0.0,0.0,0.0,0.0,0.0,0.0,0.0,0.0,0.0,0.0,0.0,0.0,0.0,0.0,0.0,0.0,0.0,0.0,0.0,0.0,0.0,0.0,0.0,0.0,0.0,0.0,0.0,0.0,0.0,0.0,0.0,0.0,0.0,0.0,0.0,0.0,0.0,0.0,0.0,0.0,0.0,0.0,0.0,0.0,0.0,0.0,0.0,0.0,0.0,0.0,-3.4764,-3.7719,-4.1241,-4.296,-4.2759,-4.2538,-4.2229,-4.1867,-4.0879,-3.8737,0.0,0.0,0.0,0.0,0.0,0.0,0.0,0.0,0.0,0.0,0.0,0.0,0.0,0.0,0.0,0.0,0.0,0.0,0.0,0.0,0.0,0.0,0.0,0.0,0.0,0.0,0.0,0.0,-2.5269,-2.6483,-2.5944,0.0,0.0,0.0,0.0,0.0,0.0,0.0,0.0,0.0,0.0,-3.3462,-3.4676,-3.6653,0.0,0.0,-3.355,-3.1544,-3.1687,-3.0948,-2.9807,-2.8052,-2.6514,0.0,0.0,0.0,0.0,0.0,0.0,0.0,0.0,0.0,0.0,0.0,0.0,0.0,0.0,0.0,0.0,0.0,0.0,0.0,0.0,0.0,0.0,0.0,0.0,0.0,0.0,0.0,0.0,0.0,0.0,0.0,0.0,0.0,0.0,0.0,0.0,0.0,0.0,0.0,0.0,0.0,0.0,0.0,0.0,0.0,0.0,0.0,0.0,0.0,0.0,0.0,0.0,-3.3662,-3.6456,-4.0275,-4.2189,-4.2189,-4.2209,-4.1807,-4.091,-3.9726,-3.7082,0.0,0.0,0.0,0.0,0.0,0.0,0.0,0.0,0.0,0.0,0.0,0.0,0.0,0.0,0.0,0.0,0.0,0.0,0.0,0.0,0.0,0.0,0.0,0.0,0.0,0.0,0.0,0.0,0.0,0.0,0.0,0.0,0.0,0.0,0.0,0.0,0.0,0.0,0.0,0.0,0.0,-2.8542,-2.8754,-3.1444,-3.2927,0.0,-3.005,-2.9124,-2.847,-2.8139,-2.741,-2.5884,0.0,0.0,0.0,0.0,0.0,0.0,0.0,0.0,0.0,0.0,0.0,0.0,0.0,0.0,0.0,0.0,0.0,0.0,0.0,0.0,0.0,0.0,0.0,0.0,0.0,0.0,0.0,0.0,0.0,0.0,0.0,0.0,0.0,0.0,0.0,0.0,0.0,0.0,0.0,0.0,0.0,0.0,0.0,0.0,0.0,0.0,0.0,0.0,0.0,0.0,0.0,0.0,0.0,0.0,-3.553,-3.8735,-4.0378,-4.0308,-4.0378,-4.0207,-3.9946,-3.8008,0.0,0.0,0.0,0.0,0.0,0.0,0.0,0.0,0.0,0.0,0.0,0.0,0.0,0.0,0.0,0.0,0.0,0.0,0.0,0.0,0.0,0.0,0.0,0.0,0.0,0.0,0.0,-1.3624,0.0,0.0,0.0,0.0,0.0,0.0,0.0,0.0,0.0,0.0,0.0,0.0,0.0,0.0,-2.8866,-2.7434,-2.9679,-3.0927,0.0,0.0,-2.821,-2.6606,-2.6901,-2.6391,0.0,0.0,0.0,0.0,0.0,0.0,0.0,0.0,0.0,0.0,0.0,0.0,0.0,0.0,0.0,0.0,0.0,0.0,0.0,0.0,0.0,0.0,0.0,0.0,0.0,0.0,0.0,0.0,0.0,0.0,0.0,0.0,0.0,0.0,0.0,0.0,0.0,0.0,0.0,0.0,0.0,0.0,0.0,0.0,0.0,0.0,0.0,0.0,0.0,0.0,0.0,0.0,0.0,0.0,-3.0746,-3.3991,-3.7418,-3.9332,-3.9625,-3.9208,-3.8821,-3.8377,-3.5887,-3.2669,0.0,0.0,0.0,0.0,0.0,0.0,0.0,0.0,0.0,0.0,0.0,0.0,0.0,0.0,0.0,0.0,0.0,0.0,0.0,0.0,0.0,0.0,0.0,0.0,0.0,0.0,0.0,0.0,0.0,0.0,0.0,0.0,0.0,0.0,0.0,0.0,0.0,0.0,0.0,0.0,0.0,0.0,-2.7966,-2.8195,0.0,0.0,0.0,-2.6414,-2.5647,0.0,0.0,0.0,0.0,0.0,0.0,0.0,0.0,0.0,0.0,0.0,0.0,0.0,0.0,0.0,0.0,0.0,0.0,0.0,0.0,0.0,0.0,0.0,0.0,0.0,0.0,0.0,0.0,0.0,0.0,0.0,0.0,0.0,0.0,0.0,0.0,0.0,0.0,0.0,0.0,0.0,0.0,0.0,0.0,0.0,0.0,0.0,0.0,0.0,0.0,0.0,0.0,0.0,0.0,0.0,0.0,0.0,-3.2314,-3.6081,-3.8427,-3.9263,-3.8286,-3.7451,-3.6611,-3.3725,-3.0332,0.0,0.0,0.0,0.0,0.0,0.0,0.0,0.0,0.0,0.0,0.0,0.0,0.0,0.0,0.0,0.0,0.0,0.0,0.0,0.0,0.0,0.0,0.0,0.0,0.0,0.0,0.0,0.0,0.0,0.0,0.0,0.0,0.0,0.0,0.0,0.0,0.0,0.0,0.0,0.0,0.0,-2.4145,-2.8507,-2.6559,-2.4718,0.0,0.0,-2.412,-2.4732,-2.4386,0.0,0.0,0.0,0.0,0.0,0.0,0.0,0.0,0.0,0.0,0.0,0.0,0.0,0.0,0.0,0.0,0.0,0.0,0.0,0.0,0.0,0.0,0.0,0.0,0.0,0.0,0.0,0.0,0.0,0.0,0.0,0.0,0.0,0.0,0.0,0.0,0.0,0.0,0.0,0.0,0.0,0.0,0.0,0.0,0.0,0.0,0.0,0.0,0.0,0.0,0.0,0.0,0.0,0.0,0.0,0.0,-3.1268,-3.3954,-3.6033,-3.7521,-3.6612,-3.6003,-3.5763,-3.3186,-2.9985,0.0,0.0,0.0,0.0,0.0,0.0,0.0,0.0,0.0,0.0,0.0,0.0,0.0,0.0,0.0,0.0,0.0,0.0,0.0,0.0,0.0,0.0,0.0,0.0,0.0,0.0,0.0,0.0,0.0,0.0,0.0,0.0,0.0,0.0,0.0,0.0,0.0,0.0,0.0,0.0,0.0,-2.2966,-2.4161,-2.3786,0.0,0.0,0.0,0.0,-2.2602,-2.2129,0.0,0.0,0.0,0.0,0.0,0.0,0.0,0.0,0.0,0.0,0.0,0.0,0.0,0.0,0.0,0.0,0.0,0.0,0.0,0.0,0.0,0.0,0.0,0.0,0.0,0.0,0.0,0.0,0.0,0.0,0.0,0.0,0.0,0.0,0.0,0.0,0.0,0.0,0.0,0.0,0.0,0.0,0.0,0.0,0.0,0.0,0.0,0.0,0.0,0.0,0.0,0.0,0.0,0.0,0.0,0.0,-3.0304,-3.2641,-3.4604,-3.6334,-3.5476,-3.4703,-3.4216,-3.1683,-2.8679,0.0,0.0,0.0,0.0,0.0,0.0,0.0,0.0,0.0,0.0,0.0,0.0,0.0,0.0,0.0,0.0,0.0,0.0,0.0,0.0,0.0,0.0,0.0,0.0,0.0,0.0,0.0,0.0,0.0,0.0,0.0,0.0,0.0,0.0,0.0,0.0,0.0,0.0,0.0,0.0,-1.9368,-2.0755,-2.127,0.0,0.0,0.0,0.0,0.0,0.0,-2.1297,-2.0313,0.0,0.0,0.0,0.0,0.0,0.0,0.0,0.0,0.0,0.0,0.0,0.0,0.0,0.0,0.0,0.0,0.0,0.0,0.0,0.0,0.0,0.0,0.0,0.0,0.0,0.0,0.0,0.0,0.0,0.0,0.0,0.0,0.0,0.0,0.0,0.0,0.0,0.0,0.0,0.0,0.0,0.0,0.0,0.0,0.0,0.0,0.0,0.0,0.0,0.0,0.0,0.0,0.0,0.0,0.0,-2.9247,-3.1489,-3.3618,-3.5449,-3.4669,-3.3754,-3.2828,-3.0259,-2.737,-2.4309,0.0,0.0,0.0,0.0,0.0,0.0,0.0,0.0,0.0,0.0,0.0,0.0,0.0,0.0,0.0,0.0,0.0,0.0,0.0,0.0,0.0,0.0,0.0,0.0,0.0,0.0,0.0,0.0,0.0,0.0,0.0,0.0,0.0,0.0,0.0,0.0,0.0,0.0,0.0,-1.7109,-1.8318,0.0,0.0,0.0,0.0,0.0,0.0,0.0,0.0,-1.925,0.0,0.0,0.0,0.0,0.0,0.0,0.0,0.0,0.0,0.0,0.0,0.0,0.0,0.0,0.0,0.0,0.0,0.0,0.0,0.0,0.0,0.0,0.0,0.0,0.0,0.0,0.0,0.0,0.0,0.0,0.0,0.0,0.0,0.0,0.0,0.0,0.0,0.0,0.0,0.0,0.0,0.0,0.0,0.0,0.0,0.0,0.0,0.0,0.0,0.0,0.0,0.0,0.0,0.0,0.0,0.0,-2.9823,-3.2201,-3.4504,-3.4375,-3.3754,-3.2847,-3.0441,-2.7407,-2.3772,0.0,0.0,0.0,0.0,0.0,0.0,0.0,0.0,0.0,0.0,0.0,0.0,0.0,0.0,0.0,0.0,0.0,0.0,0.0,0.0,0.0,0.0,0.0,0.0,0.0,0.0,0.0,0.0,0.0,0.0,0.0,0.0,0.0,0.0,0.0,0.0,0.0,0.0,-1.4156,-1.5615,0.0,0.0,0.0,0.0,0.0,0.0,0.0,0.0,-1.7728,0.0,0.0,0.0,0.0,0.0,0.0,0.0,0.0,0.0,0.0,0.0,0.0,0.0,0.0,0.0,0.0,0.0,0.0,0.0,0.0,0.0,0.0,0.0,0.0,0.0,0.0,0.0,0.0,0.0,0.0,0.0,0.0,0.0,0.0,0.0,0.0,0.0,0.0,0.0,0.0,0.0,0.0,0.0,0.0,0.0,0.0,0.0,0.0,0.0,0.0,0.0,0.0,0.0,0.0,0.0,0.0,0.0,0.0,-3.125,-3.234,-3.3177,-3.2667,-3.0797,-2.8791,-2.6498,0.0,0.0,0.0,0.0,0.0,0.0,0.0,0.0,0.0,0.0,0.0,0.0,0.0,0.0,0.0,0.0,0.0,0.0,0.0,0.0,0.0,0.0,0.0,0.0,0.0,0.0,0.0,0.0,0.0,0.0,0.0,0.0,0.0,0.0,0.0,0.0,0.0,0.0,0.0,0.0,0.0,0.0,0.0,0.0,0.0,0.0,0.0,0.0,0.0,0.0,0.0,0.0,0.0,0.0,0.0,0.0,0.0,0.0,0.0,0.0,0.0,0.0,0.0,0.0,0.0,0.0,0.0,0.0,0.0,0.0,0.0,0.0,0.0,0.0,0.0,0.0,0.0,0.0,0.0,0.0,0.0,0.0,0.0,0.0,0.0,0.0,0.0,0.0,0.0,0.0,0.0,0.0,0.0,0.0,0.0,0.0,0.0,0.0,0.0,0.0,0.0,0.0,0.0,0.0,0.0,0.0,0.0,0.0,-3.0514,-3.0529,-3.2341,-3.2141,-2.9633,-2.716,-2.5073,0.0,0.0,0.0,0.0,0.0,0.0,0.0,0.0,0.0,0.0,0.0,0.0,0.0,0.0,0.0,0.0,0.0,0.0,0.0,0.0,0.0,0.0,0.0,0.0,0.0,0.0,0.0,0.0,0.0,0.0,0.0,0.0,0.0,0.0,0.0,0.0,0.0,0.0,0.0,0.0,0.0,0.0,0.0,0.0,0.0,0.0,0.0,0.0,-1.5356,0.0,0.0,0.0,0.0,0.0,0.0,0.0,0.0,0.0,0.0,0.0,0.0,0.0,0.0,0.0,0.0,0.0,0.0,0.0,0.0,0.0,0.0,0.0,0.0,0.0,0.0,0.0,0.0,0.0,0.0,0.0,0.0,0.0,0.0,0.0,0.0,0.0,0.0,0.0,0.0,0.0,0.0,0.0,0.0,0.0,0.0,0.0,0.0,0.0,0.0,0.0,0.0,0.0,0.0,0.0,0.0,0.0,0.0,0.0,-3.0078,-3.0514,-3.2962,-3.3383,-3.1514,-2.6655,-2.3047,0.0,0.0,0.0,0.0,0.0,0.0,0.0,0.0,0.0,0.0,0.0,0.0,0.0,0.0,0.0,0.0,0.0,0.0,0.0,0.0,0.0,0.0,0.0,0.0,0.0,0.0,0.0,0.0,0.0,0.0,0.0,0.0,0.0,0.0,0.0,0.0,0.0,0.0,0.0,0.0,0.0,0.0,0.0,0.0,0.0,0.0,0.0,0.0,0.0,0.0,0.0,0.0,0.0,0.0,0.0,0.0,0.0,0.0,0.0,0.0,0.0,0.0,0.0,0.0,0.0,0.0,0.0,0.0,0.0,0.0,0.0,0.0,0.0,0.0,0.0,0.0,0.0,0.0,0.0,0.0,0.0,0.0,0.0,0.0,0.0,0.0,0.0,0.0,0.0,0.0,0.0,0.0,0.0,0.0,0.0,0.0,0.0,0.0,0.0,0.0,0.0,0.0,0.0,0.0,0.0,0.0,0.0,0.0,-2.7214,-2.7381,-2.9858,-3.014,-2.8103,-2.4144,-2.1169,0.0,0.0,0.0,0.0,0.0,0.0,0.0,0.0,0.0,0.0,0.0,0.0,0.0,0.0,0.0,0.0,0.0,0.0,0.0,0.0,0.0,0.0,0.0,0.0,0.0,0.0,0.0,0.0,0.0,0.0,0.0,0.0,0.0,0.0,0.0,0.0,0.0,0.0,0.0,0.0,0.0,0.0,0.0,0.0,0.0,0.0,0.0,0.0,0.0,0.0,0.0,0.0,0.0,0.0,0.0,0.0,0.0,0.0,0.0,0.0,0.0,0.0,0.0,0.0,0.0,0.0,0.0,0.0,0.0,0.0,0.0,0.0,0.0,0.0,0.0,0.0,0.0,0.0,0.0,0.0,0.0,0.0,0.0,0.0,0.0,0.0,0.0,0.0,0.0,0.0,0.0,0.0,0.0,0.0,0.0,0.0,0.0,0.0,0.0,0.0,0.0,0.0,0.0,0.0,0.0,0.0,0.0,0.0,0.0,-2.4673,-2.6092,-2.6045,-2.4181,-2.1736,-1.9564,0.0,0.0,0.0,0.0,0.0,0.0,0.0,0.0,0.0,0.0,0.0,0.0,0.0,0.0,0.0,0.0,0.0,0.0,0.0,0.0,0.0,0.0,0.0,0.0,0.0,0.0,0.0,0.0,0.0,0.0,0.0,0.0,0.0,0.0,0.0,0.0,0.0,0.0,0.0,0.0,0.0,0.0,0.0,0.0,0.0,0.0,0.0,0.0,0.0,0.0,0.0,0.0,0.0,0.0,0.0,0.0,0.0,0.0,0.0,0.0,0.0,0.0,0.0,0.0,0.0,0.0,0.0,0.0,0.0,0.0,0.0,0.0,0.0,0.0,0.0,0.0,0.0,0.0,0.0,0.0,0.0,0.0,0.0,0.0,0.0,0.0,0.0,0.0,0.0,0.0,0.0,0.0,0.0,0.0,0.0,0.0,0.0,0.0,0.0,0.0,0.0,0.0,0.0,0.0,0.0,0.0,0.0,0.0,0.0,-2.3429,-2.249,-2.1775,-2.1185,-2.0086,-1.8197,0.0,0.0,0.0,0.0,0.0,0.0,0.0,0.0,0.0,0.0,0.0,0.0,0.0,0.0,0.0,0.0,0.0,0.0,0.0,0.0,0.0,0.0,0.0,0.0,0.0,0.0,0.0,0.0,0.0,0.0,0.0,0.0,0.0,0.0,0.0,0.0,0.0,0.0,0.0,0.0,0.0,0.0,0.0,0.0,0.0,0.0,0.0,0.0,0.0,0.0,0.0,0.0,0.0,0.0,0.0,0.0,0.0,0.0,0.0,0.0,0.0,0.0,0.0,0.0,0.0,0.0,0.0,0.0,0.0,0.0,0.0,0.0,0.0,0.0,0.0,0.0,0.0,0.0,0.0,0.0,0.0,0.0,0.0,0.0,0.0,0.0,0.0,0.0,0.0,0.0,0.0,0.0,0.0,0.0,0.0,0.0,0.0,0.0,0.0,0.0,0.0,0.0,0.0,0.0,0.0,0.0,0.0,0.0,0.0,-1.8969,-1.8969,-1.8811,-1.844,-1.7019,-1.5517,-1.3983,0.0,0.0,0.0,0.0,0.0,0.0,0.0,0.0,0.0,0.0,0.0,0.0,0.0,0.0,0.0,0.0,0.0,0.0,0.0,0.0,0.0,0.0,0.0,0.0,0.0,0.0,0.0,0.0,0.0,0.0,0.0,0.0,0.0,0.0,0.0,0.0,0.0,0.0,0.0,0.0,0.0,0.0,0.0,0.0,0.0,0.0,0.0,0.0,0.0,0.0,0.0,0.0,0.0,0.0,0.0,0.0,0.0,0.0,0.0,0.0,0.0,0.0,0.0,0.0,0.0,0.0,0.0,0.0,0.0,0.0,0.0,0.0,0.0,0.0,0.0,0.0,0.0,0.0,0.0,0.0,0.0,0.0,0.0,0.0,0.0,0.0,0.0,0.0,0.0,0.0,0.0,0.0,0.0,0.0,0.0,0.0,0.0,0.0,0.0,0.0,0.0,0.0,0.0,0.0,0.0,0.0,0.0,0.0,-1.6189,-1.6824,-1.709,-1.6761,-1.53,-1.3998,0.0,0.0,0.0,0.0,0.0,0.0,0.0,0.0,0.0,0.0,0.0,0.0,0.0,0.0,0.0,0.0,0.0,0.0,0.0,0.0,0.0,0.0,0.0,0.0,0.0,0.0,0.0,0.0,0.0,0.0,0.0,0.0,0.0,0.0,0.0,0.0,0.0,0.0,0.0,0.0,0.0,0.0,0.0,0.0,0.0,0.0,0.0,0.0,0.0,0.0,0.0,0.0,0.0,0.0,0.0,0.0,0.0,0.0,0.0,0.0,0.0,0.0,0.0,0.0,0.0,0.0,0.0,0.0,0.0,0.0,0.0,0.0,0.0,0.0,0.0,0.0,0.0,0.0,0.0,0.0,0.0,0.0,0.0,0.0,0.0,0.0,0.0,0.0,0.0,0.0,0.0,0.0,0.0,0.0,0.0,0.0,0.0,0.0,0.0,0.0,0.0,0.0,0.0,0.0,0.0,0.0,0.0,0.0,-1.3596,-1.5663,-1.6259,-1.6544,-1.6494,-1.5366,-1.3965,0.0,0.0,0.0,0.0,0.0,0.0,0.0,0.0,0.0,0.0,0.0,0.0,0.0,0.0,0.0,0.0,0.0,0.0,0.0,0.0,0.0,0.0,0.0,0.0,0.0,0.0,0.0,0.0,0.0,0.0,0.0,0.0,0.0,0.0,0.0,0.0,0.0,0.0,0.0,0.0,0.0,0.0,0.0,0.0,0.0,0.0,0.0,0.0,0.0,0.0,0.0,0.0,0.0,0.0,0.0,0.0,0.0,0.0,0.0,0.0,0.0,0.0,0.0,0.0,0.0,0.0,0.0,0.0,0.0,0.0,0.0,0.0,0.0,0.0,0.0,0.0,0.0,0.0,0.0,0.0,0.0,0.0,0.0,0.0,0.0,0.0,0.0,0.0,0.0,0.0,0.0,0.0,0.0,0.0,0.0,0.0,0.0,0.0,0.0,0.0,0.0,0.0,0.0,0.0,0.0,0.0,0.0,0.0,0.0,-1.4523,0.0,-1.6099,-1.5993,-1.4935,-1.3841,0.0,0.0,0.0,0.0,0.0,0.0,0.0,0.0,0.0,0.0,0.0,0.0,0.0,0.0,0.0,0.0,0.0,0.0,0.0,0.0,0.0,0.0,0.0,0.0,0.0,0.0,0.0,0.0,0.0,0.0,0.0,0.0,0.0,0.0,0.0,0.0,0.0,0.0,0.0,0.0,0.0,0.0,0.0,0.0,0.0,0.0,0.0,0.0,0.0,0.0,0.0,0.0,0.0,0.0,0.0,0.0,0.0,0.0,0.0,0.0,0.0,0.0,0.0,0.0,0.0,0.0,0.0,0.0,0.0,0.0,0.0,0.0,0.0,0.0,0.0,0.0,0.0,0.0,0.0,0.0,0.0,0.0,0.0,0.0,0.0,0.0,0.0,0.0,0.0,0.0,0.0,0.0,0.0,0.0,0.0,0.0,0.0,0.0,0.0,0.0,0.0,0.0,0.0,0.0,0.0,0.0,0.0,0.0,0.0,-1.3968,-1.4764,-1.5456,-1.5929,-1.4996,-1.402,0.0,0.0,0.0,0.0,0.0,0.0,0.0,0.0,0.0,0.0,0.0,0.0,0.0,0.0,0.0,0.0,0.0,0.0,0.0,0.0,0.0,0.0,0.0,0.0,0.0,0.0,0.0,0.0,0.0,0.0,0.0,0.0,0.0,0.0,0.0,0.0,0.0,0.0,0.0,0.0,0.0,0.0,0.0,0.0,0.0,0.0,0.0,0.0,0.0,0.0,0.0,0.0,0.0,0.0,0.0,0.0,0.0,0.0,0.0,0.0,0.0,0.0,0.0,0.0,0.0,0.0,0.0,0.0,0.0,0.0,0.0,0.0,0.0,0.0,0.0,0.0,0.0,0.0,0.0,0.0,0.0,0.0,0.0,0.0,0.0,0.0,0.0,0.0,0.0,0.0,0.0,0.0,0.0,0.0,0.0,0.0,0.0,0.0,0.0,0.0,0.0,0.0,0.0,0.0,0.0,0.0,0.0,0.0,0.0,-1.3949,-1.4033,-1.4759,-1.6238,-1.5487,-1.4504,0.0,0.0,0.0,0.0,0.0,0.0,0.0,0.0,0.0,0.0,0.0,0.0,0.0,0.0,0.0,0.0,0.0,0.0,0.0,0.0,0.0,0.0,0.0,0.0,0.0,0.0,0.0,0.0,0.0,0.0,0.0,0.0,0.0,0.0,0.0,0.0,0.0,0.0,0.0,0.0,0.0,0.0,0.0,0.0,0.0,0.0,0.0,0.0,0.0,0.0,0.0,0.0,0.0,0.0,0.0,0.0,0.0,0.0,0.0,0.0,0.0,0.0,0.0,0.0,0.0,0.0,0.0,0.0,0.0,0.0,0.0,0.0,0.0,0.0,0.0,0.0,0.0,0.0,0.0,0.0,0.0,0.0,0.0,0.0,0.0,0.0,0.0,0.0,0.0,0.0,0.0,0.0,0.0,0.0,0.0,0.0,0.0,0.0,0.0,0.0,0.0,0.0,0.0,0.0,0.0,0.0,0.0,0.0,0.0,0.0,-1.4239,-1.4954,-1.6467,-1.6174,-1.5249,-1.3741,0.0,0.0,0.0,0.0,0.0,0.0,0.0,0.0,0.0,0.0,0.0,0.0,0.0,0.0,0.0,0.0,0.0,0.0,0.0,0.0,0.0,0.0,0.0,0.0,0.0,0.0,0.0,0.0,0.0,0.0,0.0,0.0,0.0,0.0,0.0,0.0,0.0,0.0,0.0,0.0,0.0,0.0,0.0,0.0,0.0,0.0,0.0,0.0,0.0,0.0,0.0,0.0,0.0,0.0,0.0,0.0,0.0,0.0,0.0,0.0,0.0,0.0,0.0,0.0,0.0,0.0,0.0,0.0,0.0,0.0,0.0,0.0,0.0,0.0,0.0,0.0,0.0,0.0,0.0,0.0,0.0,0.0,0.0,0.0,0.0,0.0,0.0,0.0,0.0,0.0,0.0,0.0,0.0,0.0,0.0,0.0,0.0,0.0,0.0,0.0,0.0,0.0,0.0,0.0,0.0,0.0,0.0,0.0,0.0,0.0,-1.5124,-1.6762,-1.6283,-1.5183,0.0,0.0,0.0,0.0,0.0,0.0,0.0,0.0,0.0,0.0,0.0,0.0,0.0,0.0,0.0,0.0,0.0,0.0,0.0,0.0,0.0,0.0,0.0,0.0,0.0,0.0,0.0,0.0,0.0,0.0,0.0,0.0,0.0,0.0,0.0,0.0,0.0,0.0,0.0,0.0,0.0,0.0,0.0,0.0,0.0,0.0,0.0,0.0,0.0,0.0,0.0,0.0,0.0,0.0,0.0,0.0,0.0,0.0,0.0,0.0,0.0,0.0,0.0,0.0,0.0,0.0,0.0,0.0,0.0,0.0,0.0,0.0,0.0,0.0,0.0,0.0,0.0,0.0,0.0,0.0,0.0,0.0,0.0,0.0,0.0,0.0,0.0,0.0,0.0,0.0,0.0,0.0,0.0,0.0,0.0,0.0,0.0,0.0,0.0,0.0,0.0,0.0,0.0,0.0,0.0,0.0,0.0,0.0,0.0,0.0,0.0,-1.5387,-1.6907,-1.6059,0.0,-1.3096,0.0,0.0,0.0,0.0,0.0,0.0,0.0,0.0,0.0,0.0,0.0,0.0,0.0,0.0,0.0,0.0,0.0,0.0,0.0,0.0,0.0,0.0,0.0,0.0,0.0,0.0,0.0,0.0,0.0,0.0,0.0,0.0,0.0,0.0,0.0,0.0,0.0,0.0,0.0,0.0,0.0,0.0,0.0,0.0,0.0,0.0,0.0,0.0,0.0,0.0,0.0,0.0,0.0,0.0,0.0,0.0,0.0,0.0,0.0,0.0,0.0,0.0,0.0,0.0,0.0,0.0,0.0,0.0,0.0,0.0,0.0,0.0,0.0,0.0,0.0,0.0,0.0,0.0,0.0,0.0,0.0,0.0,0.0,0.0,0.0,0.0,0.0,0.0,0.0,0.0,0.0,0.0,0.0,0.0,0.0,0.0,0.0,0.0,0.0,0.0,0.0,0.0,0.0,0.0,0.0,0.0,0.0,0.0,0.0,0.0,0.0,0.0,-1.6314,-1.5473,-1.502,0.0,0.0,0.0,0.0,0.0,0.0,0.0,0.0,0.0,0.0,0.0,0.0,0.0,0.0,0.0,0.0,0.0,0.0,0.0,0.0,0.0,0.0,0.0,0.0,0.0,0.0,0.0,0.0,0.0,0.0,0.0,0.0,0.0,0.0,0.0,0.0,0.0,0.0,0.0,0.0,0.0,0.0,0.0,0.0,0.0,0.0,0.0,0.0,0.0,0.0,0.0,0.0,0.0,0.0,0.0,0.0,0.0,0.0,0.0,0.0,0.0,0.0,0.0,0.0,0.0,0.0,0.0,0.0,0.0,0.0,0.0,0.0,0.0,0.0,0.0,0.0,0.0,0.0,0.0,0.0,0.0,0.0,0.0,0.0,0.0,0.0,0.0,0.0,0.0,0.0,0.0,0.0,0.0,0.0,0.0,0.0,0.0,0.0,0.0,0.0,0.0,0.0,0.0,0.0,0.0,0.0,0.0,0.0,0.0,0.0,-1.5198,-1.6896,-1.5854,-1.4986,-1.4483,0.0,0.0,0.0,0.0,0.0,0.0,0.0,0.0,0.0,0.0,0.0,0.0,0.0,0.0,0.0,0.0,0.0,0.0,0.0,0.0,0.0,0.0,0.0,0.0,0.0,0.0,0.0,0.0,0.0,0.0,0.0,0.0,0.0,0.0,0.0,0.0,0.0,0.0,0.0,0.0,0.0,0.0,0.0,0.0,0.0,0.0,0.0,0.0,0.0,0.0,0.0,0.0,0.0,0.0,0.0,0.0,0.0,0.0,0.0,0.0,0.0,0.0,0.0,0.0,0.0,0.0,0.0,0.0,0.0,0.0,0.0,0.0,0.0,0.0,0.0,0.0,0.0,0.0,0.0,0.0,0.0,0.0,0.0,0.0,0.0,0.0,0.0,0.0,0.0,0.0,0.0,0.0,0.0,0.0,0.0,0.0,0.0,0.0,0.0,0.0,0.0,0.0,0.0,0.0,0.0,0.0,0.0,0.0,0.0,0.0,0.0,0.0,0.0,0.0,-1.349,0.0,0.0,0.0,0.0,0.0,0.0,0.0,0.0,0.0,0.0,0.0,0.0,0.0,0.0,0.0,0.0,0.0,0.0,0.0,0.0,0.0,0.0,0.0,0.0,0.0,0.0,0.0,0.0,0.0,0.0,0.0,0.0,0.0,0.0,0.0,0.0,0.0,0.0,0.0,0.0,0.0,0.0,0.0,0.0,0.0,0.0,0.0,0.0,0.0,0.0,0.0,0.0,0.0,0.0,0.0,0.0,0.0,0.0,0.0,0.0,0.0,0.0,0.0,0.0,0.0,0.0,0.0,0.0,0.0,0.0,0.0,0.0,0.0,0.0,0.0,0.0,0.0,0.0,0.0,0.0,0.0,0.0,0.0,0.0,0.0,0.0,0.0,0.0,0.0,0.0,0.0,0.0,0.0,0.0,0.0,0.0,0.0,0.0,0.0,0.0,0.0,0.0,0.0,0.0,0.0,0.0,0.0,0.0,0.0,0.0,0.0,0.0,0.0,0.0,0.0,0.0,0.0,0.0,0.0,0.0,0.0,0.0,0.0,0.0,0.0,0.0,0.0,0.0,0.0,0.0,0.0,0.0,0.0,0.0,0.0,0.0,0.0,0.0,0.0,0.0,0.0,0.0,0.0,0.0,0.0,0.0,0.0,0.0,0.0,0.0,0.0,0.0,0.0,0.0,0.0,0.0,0.0,0.0,0.0,0.0,0.0,0.0,0.0,0.0,0.0,0.0,0.0,0.0,0.0,0.0,0.0,0.0,0.0,0.0,0.0,0.0,0.0,0.0,0.0,0.0,0.0,0.0,0.0,0.0,0.0,0.0,0.0,0.0,0.0,0.0,0.0,0.0,0.0,0.0,0.0,0.0,0.0,0.0,0.0,0.0,0.0,0.0,0.0,0.0,0.0,0.0,0.0,0.0,0.0,0.0,0.0,0.0,0.0,0.0,0.0,0.0,0.0,0.0,0.0,0.0,0.0,0.0,0.0,0.0,0.0,0.0,0.0,0.0,0.0,0.0,0.0,0.0,0.0,0.0,0.0,0.0,0.0,0.0,0.0,0.0,0.0,0.0,0.0,0.0,0.0,0.0,0.0,0.0,0.0,0.0,0.0,0.0,0.0,0.0,0.0,0.0,0.0,0.0,0.0,0.0,0.0,0.0,0.0,0.0,0.0,0.0,0.0,0.0,0.0,0.0,0.0,0.0,0.0,0.0,0.0,0.0,0.0,0.0,0.0,0.0,0.0,0.0,0.0,0.0,0.0,0.0,0.0,0.0,0.0,0.0,0.0,0.0,0.0,0.0,0.0,0.0,0.0,0.0,0.0,0.0,0.0,0.0,0.0,0.0,0.0,0.0,0.0,0.0,0.0,0.0,0.0,0.0,0.0,0.0,0.0,0.0,0.0,0.0,0.0,0.0,0.0,0.0,0.0,0.0,0.0,0.0,0.0,0.0,0.0,0.0,0.0,0.0,0.0,0.0,0.0,0.0,0.0,0.0,0.0,0.0,0.0,0.0,0.0,0.0,0.0,0.0,0.0,0.0,0.0,0.0,0.0,0.0,0.0,0.0,0.0,0.0,0.0,0.0,0.0,0.0,0.0,0.0,0.0,0.0,0.0,0.0,0.0,0.0,0.0,0.0,0.0,0.0,0.0,0.0,0.0,0.0,0.0,0.0,0.0,0.0,0.0,0.0,0.0,0.0,0.0,0.0,0.0,0.0,0.0,0.0,0.0,0.0,0.0,0.0,0.0,0.0,0.0,0.0,0.0,0.0,0.0,0.0,0.0,0.0,0.0,0.0,0.0,0.0,0.0,0.0,0.0,0.0,0.0,0.0,0.0,0.0,0.0,0.0,0.0,0.0,0.0,0.0,0.0,0.0,0.0,0.0,0.0,0.0,0.0,0.0,0.0,0.0,0.0,0.0,0.0,0.0,0.0,0.0,0.0,0.0,0.0,0.0,0.0,0.0,0.0,0.0,0.0,0.0,0.0,0.0,0.0,0.0,0.0,0.0,0.0,0.0,0.0,0.0,0.0,0.0,0.0,0.0,0.0,0.0,0.0,0.0,0.0,0.0,0.0,0.0,0.0,0.0,0.0,0.0,0.0,0.0,0.0,0.0,0.0,0.0,0.0,0.0,0.0,0.0,0.0,0.0,0.0,0.0,0.0,0.0,0.0,0.0,0.0,0.0,0.0,0.0,0.0,0.0,0.0,0.0,0.0,0.0,0.0,0.0,0.0,0.0,0.0,0.0,0.0,0.0,0.0,0.0,0.0,0.0,0.0,0.0,0.0,0.0,0.0,0.0,0.0,0.0,0.0,0.0,0.0,0.0,0.0,0.0,0.0,0.0,0.0,0.0,0.0,0.0,0.0,0.0,0.0,0.0,0.0,0.0,0.0,0.0,0.0,0.0,0.0,0.0,0.0,0.0,0.0,0.0,0.0,0.0,0.0,0.0,0.0,0.0,0.0,0.0,0.0,0.0,0.0,0.0,0.0,0.0,0.0,0.0,0.0,0.0,0.0,0.0,0.0,0.0,0.0,0.0,0.0,0.0,0.0,0.0,0.0,0.0,0.0,0.0,0.0,0.0,0.0,0.0,0.0,0.0,0.0,0.0,0.0,0.0,0.0,0.0,0.0,0.0,0.0,0.0,0.0,0.0,0.0,0.0,0.0,0.0,0.0,0.0,0.0,0.0,0.0,0.0,0.0,0.0,0.0,0.0,0.0,0.0,0.0,0.0,0.0,0.0,0.0,0.0,0.0,0.0,0.0,0.0,0.0,0.0,0.0,0.0,0.0,0.0,0.0,0.0,0.0,0.0,0.0,0.0,0.0,0.0,0.0,0.0,0.0,0.0,0.0,0.0,0.0,0.0,0.0,0.0,0.0,0.0,0.0,0.0,0.0,0.0,0.0,0.0,0.0,0.0,0.0,0.0,0.0,0.0,0.0,0.0,0.0,0.0,0.0,0.0,0.0,0.0,0.0,0.0,0.0,0.0,0.0,0.0,0.0,0.0,0.0,0.0,0.0,0.0,0.0,0.0,0.0,0.0,0.0,0.0,0.0,0.0,0.0,0.0,0.0,0.0,0.0,0.0,0.0,0.0,0.0,0.0,0.0,0.0,0.0,0.0,0.0,0.0,0.0,0.0,0.0,0.0,0.0,0.0,0.0,0.0,0.0,0.0,0.0,0.0,0.0,0.0,0.0,0.0,0.0,0.0,0.0,0.0,0.0,0.0,0.0,0.0,0.0,0.0,0.0,0.0,0.0,0.0,0.0,0.0,0.0,0.0,0.0,0.0,0.0,0.0,0.0,0.0,0.0,0.0,0.0,0.0,0.0,0.0,0.0,0.0,0.0,0.0,0.0,0.0,0.0,0.0,0.0,0.0,0.0,0.0,0.0,0.0,0.0,0.0,0.0,0.0,0.0,0.0,0.0,0.0,0.0,0.0,0.0,0.0,0.0,0.0,0.0,0.0,0.0,0.0,0.0,0.0,0.0,0.0,0.0,0.0,0.0,0.0,0.0,0.0,0.0,0.0,0.0,0.0,0.0,0.0,0.0,0.0,0.0,0.0,0.0,0.0,0.0,0.0,0.0,0.0,0.0,0.0,0.0,0.0,0.0,0.0,0.0,0.0,0.0,0.0,0.0,0.0,0.0,0.0,0.0,0.0,0.0,0.0,0.0,0.0,0.0,0.0,0.0,0.0,0.0,0.0,0.0,0.0,0.0,0.0,0.0,0.0,0.0,0.0,0.0,0.0,0.0,0.0,0.0,0.0,0.0,0.0,0.0,0.0,0.0,0.0,0.0,0.0,0.0,0.0,0.0,0.0,0.0,0.0,0.0,0.0,0.0,0.0,0.0,0.0,0.0,0.0,0.0,0.0,0.0,0.0,0.0,0.0,0.0,0.0,0.0,0.0,0.0,0.0,0.0,0.0,0.0,0.0,0.0,0.0,0.0,0.0,0.0,0.0,0.0,0.0,0.0,0.0,0.0,0.0,0.0,0.0,0.0,0.0,0.0,0.0,0.0,0.0,0.0,0.0,0.0,0.0,0.0,0.0,0.0,0.0,0.0,0.0,0.0,0.0,0.0,0.0,0.0,0.0,0.0,0.0,0.0,0.0,0.0,0.0,0.0,0.0,0.0,0.0,0.0,0.0,0.0,0.0,0.0,0.0,0.0,0.0,0.0,0.0,0.0,0.0,0.0,0.0,0.0,0.0,0.0,0.0,0.0,0.0,0.0,0.0,0.0,0.0,0.0,0.0,0.0,0.0,0.0,0.0,0.0,0.0,0.0,0.0,0.0,0.0,0.0,0.0,0.0,0.0,0.0,0.0,0.0,0.0,0.0,0.0,0.0,0.0,0.0,0.0,0.0,0.0]}],[{"header":{"parameterUnit":"kt","parameterCategory":2,"dx":1,"dy":1,"la1":29.587661999999998,"la2":31.0,"lo1":-88.76705300000003,"lo2":-86.6583820000003,"nx":115,"ny":88,"refTime":"2022-10-13T06:00:00:Z","depth":0,"parameterNumber":2,"parameterNumberName":"V-component_of_WINDS"},"data":[9.9581,9.9581,9.9581,9.9581,9.9581,9.9581,9.9581,9.9581,9.9581,9.9581,9.9581,9.9581,9.9581,9.9581,9.9581,9.9581,9.9581,9.9581,9.9581,9.9581,9.9581,9.9581,9.9581,9.9581,9.9581,9.9581,9.9581,9.9581,9.9581,9.9581,9.9581,9.9581,9.9581,9.9581,9.9552,9.9734,10.0097,10.0097,10.0397,10.0606,10.0426,10.0246,9.9916,10.0097,10.0606,10.1025,10.1528,10.2029,10.2204,10.2379,10.2467,10.2467,10.2467,10.2467,10.2467,10.2467,10.2467,10.2467,10.2467,10.2611,10.2698,10.2928,10.429,10.5922,10.6703,10.8007,10.8818,10.9081,10.9876,10.9724,10.98,11.0134,11.0209,11.0209,11.0209,11.0434,11.0583,11.0806,11.0954,11.088,11.0806,11.088,11.0954,11.1175,11.1435,11.158,11.1507,11.1653,11.1902,11.1974,11.2085,11.2299,11.2513,11.248,11.2085,11.1822,11.2024,11.2489,11.2935,11.356,11.4107,11.4578,11.4711,11.4711,11.4711,11.451,11.4376,11.4208,11.4208,11.3907,11.4208,11.4207,11.4002,11.4443,11.5705,9.9581,9.9581,9.9581,9.9581,9.9581,9.9581,9.9581,9.9581,9.9581,9.9581,9.9581,9.9581,9.9581,9.9581,9.9581,9.9581,9.9581,9.9581,9.9581,9.9581,9.9581,9.9581,9.9581,9.9581,9.9581,9.9581,9.9581,9.9581,9.9581,9.9581,9.9581,9.9581,9.9581,9.9581,9.9581,9.9643,9.9734,9.9734,9.9825,9.9854,9.9763,9.9581,9.9672,9.9643,9.9734,10.0217,10.0875,10.1351,10.1764,10.2029,10.2379,10.2379,10.2379,10.2467,10.2467,10.2467,10.2467,10.2467,10.2467,10.2467,10.2467,10.2785,10.3897,10.468,10.5014,10.5973,10.7215,10.8196,10.954,10.9951,11.0027,11.0209,11.0209,11.0209,11.0209,11.0284,11.0284,11.0359,11.0359,11.0359,11.0434,11.0583,11.0732,11.0806,11.1069,11.1289,11.1362,11.154,11.1613,11.158,11.1203,11.1124,11.1216,11.1033,11.0704,11.0704,11.0902,11.1337,11.1817,11.3199,11.4109,11.3774,11.3739,11.4208,11.4376,11.4074,11.3907,11.3303,11.3035,11.27,11.2666,11.2398,11.2157,11.2133,11.3932,9.9581,9.9581,9.9581,9.9581,9.9581,9.9581,9.9581,9.9581,9.9581,9.9581,9.9581,9.9581,9.9581,9.9581,9.9581,9.9581,9.9581,9.9581,9.9581,9.9581,9.9581,9.9581,9.9581,9.9581,9.9581,9.9581,9.9581,9.9581,9.9581,9.9581,9.9581,9.9581,9.9581,9.9581,9.9581,9.9581,9.9581,9.9581,9.9581,9.9581,9.9581,9.9581,9.9581,9.9643,9.9825,10.0187,10.0696,10.0965,10.1381,10.1823,10.2057,10.2174,10.2379,10.2467,10.2467,10.2467,10.2467,10.2467,10.2467,10.2467,10.2467,10.2872,10.3642,10.4206,10.4459,10.3982,10.5211,10.7454,10.874,10.9876,11.0027,11.0209,11.0209,11.0209,11.0209,11.0209,11.0209,11.0145,11.0113,11.0113,11.022,11.0273,10.9918,11.0066,11.026,11.045,11.0635,11.0741,11.0995,11.1142,11.015,10.9585,10.9469,10.9287,10.9018,10.9149,10.9547,10.9958,11.0264,11.0905,11.1173,11.1838,11.2834,11.3471,11.3773,11.3404,11.2566,11.1761,11.1392,11.1325,11.1057,11.0689,10.9776,10.9192,10.9891,9.9581,9.9581,9.9581,9.9581,9.9581,9.9581,9.9581,9.9581,9.9581,9.9581,9.9581,9.9581,9.9581,9.9581,9.9581,9.9581,9.9581,9.9581,9.9581,9.9581,9.9581,9.9581,9.9581,9.9581,9.9581,9.9581,9.9581,9.9581,9.9581,9.9581,9.9581,9.9581,9.9581,9.9581,9.9581,9.9581,9.9581,9.9581,9.9581,9.9581,9.9581,9.9581,9.9581,9.9643,9.9825,10.0097,10.0368,10.0756,10.1084,10.1587,10.1675,10.1969,10.2379,10.2467,10.2467,10.2467,10.2467,10.2467,10.2467,10.2467,10.2467,10.2872,10.3101,10.3642,10.3642,10.2959,10.3702,10.6116,10.796,10.9081,10.98,11.0027,11.0209,11.0209,11.0209,11.0209,11.0209,11.0113,10.9984,11.0016,11.0048,10.9694,10.9179,10.9221,10.9372,10.9372,10.9308,10.9392,10.9535,10.8508,10.7194,10.7424,10.7431,10.727,10.7267,10.7329,10.7754,10.8161,10.8903,10.8481,10.7921,10.8778,10.9764,11.1399,11.25,11.1828,11.0957,11.0186,10.985,10.9817,10.9582,10.9046,10.8103,10.783,10.7108,9.9581,9.9581,9.9581,9.9581,9.9581,9.9581,9.9581,9.9581,9.9581,9.9581,9.9581,9.9581,9.9581,9.9581,9.9581,9.9581,9.9581,9.9581,9.9581,9.9581,9.9581,9.9581,9.9581,9.9581,9.9581,9.9581,9.9581,9.9581,9.9581,9.9581,9.9581,9.9581,9.9581,9.9581,9.9581,9.9581,9.9581,9.9581,9.9581,9.9581,9.9581,9.9581,9.9581,9.9581,9.9672,9.9825,10.0187,10.0428,10.0787,10.1321,10.1763,10.1881,10.2262,10.2467,10.2467,10.2467,10.2467,10.2467,10.2467,10.2467,10.2467,10.2467,10.2554,10.2785,10.3274,10.3045,10.4489,10.6734,10.8508,10.9724,10.9951,11.0102,10.9855,10.9662,10.963,10.9565,10.9404,10.9082,10.8986,10.8889,10.8825,10.8374,10.7923,10.7923,10.8116,10.7022,10.6764,10.6974,10.6409,10.4859,10.4558,10.5004,10.4893,10.4733,10.4893,10.5483,10.5972,10.6635,10.7541,10.7354,10.6566,10.6626,10.6844,10.8166,10.9625,10.9321,10.9348,10.8778,10.8342,10.8308,10.804,10.7437,10.727,10.7215,10.6937,9.9581,9.9581,9.9581,9.9581,9.9581,9.9581,9.9581,9.9581,9.9581,9.9581,9.9581,9.9581,9.9581,9.9581,9.9581,9.9581,9.9581,9.9581,9.9581,9.9581,9.9581,9.9581,9.9581,9.9581,9.9581,9.9581,9.9581,9.9581,9.9581,9.9581,9.9581,9.9581,9.9581,9.9581,9.9581,9.9581,9.9581,9.9581,9.9581,9.9581,9.9581,9.9581,9.9581,9.9581,9.9581,9.9643,9.9825,10.0158,10.0637,10.1173,10.1587,10.1881,10.2379,10.2467,10.2467,10.2467,10.2467,10.2467,10.2467,10.2467,10.2467,10.2467,10.2467,10.2437,10.2755,10.3289,10.4996,10.6756,10.8613,11.0113,11.0145,11.008,10.9565,10.905,10.8921,10.8825,10.8374,10.7955,10.7859,10.773,10.7344,10.6893,10.67,10.6691,10.6402,10.5798,10.5548,10.5555,10.4627,10.317,10.3222,10.3494,10.3081,10.2727,10.299,10.361,10.4036,10.4599,10.5563,10.5802,10.5346,10.5243,10.5598,10.6214,10.6897,10.7116,10.7375,10.6939,10.691,10.6834,10.6666,10.6441,10.6426,10.6683,10.7123,9.9581,9.9581,9.9581,9.9581,9.9581,9.9581,9.9581,9.9581,9.9581,9.9581,9.9581,9.9581,9.9581,9.9581,9.9581,9.9581,9.9581,9.9581,9.9581,9.9581,9.9581,9.9581,9.9581,9.9581,9.9581,9.9581,9.9581,9.9581,9.9581,9.9581,9.9581,9.9581,9.9581,9.9581,9.9581,9.9581,9.9581,9.9581,9.9581,9.9581,9.9581,9.9581,9.9581,9.9581,9.9581,9.9763,9.9825,10.0158,10.0697,10.1173,10.1498,10.1881,10.2379,10.2467,10.2467,10.2467,10.2467,10.2467,10.2467,10.2467,10.2467,10.2467,10.2467,10.2464,10.2731,10.3246,10.4206,10.5544,10.7042,10.7921,10.8181,10.8248,10.7971,10.7618,10.7505,10.6861,10.5637,10.5702,10.6925,10.6635,10.583,10.5315,10.4639,10.4768,10.5219,10.4929,10.4671,10.462,10.3949,10.2815,10.2433,10.2438,10.2184,10.2252,10.2386,10.2555,10.2526,10.2633,10.3261,10.3661,10.3732,10.403,10.4355,10.4937,10.5558,10.5674,10.5682,10.5815,10.6025,10.5815,10.5844,10.5687,10.5715,10.6382,10.6887,9.9581,9.9581,9.9581,9.9581,9.9581,9.9581,9.9581,9.9581,9.9581,9.9581,9.9581,9.9581,9.9581,9.9581,9.9581,9.9581,9.9581,9.9581,9.9581,9.9581,9.9581,9.9581,9.9581,9.9581,9.9581,9.9581,9.9581,9.9581,9.9581,9.9581,9.9581,9.9581,9.9581,9.9581,9.9581,9.9581,9.9581,9.9581,9.9581,9.9581,9.9581,9.9581,9.9581,9.9581,9.9581,9.9763,10.0097,10.0338,10.0876,10.1321,10.1675,10.1969,10.2262,10.2467,10.2467,10.2467,10.2467,10.2467,10.2467,10.2467,10.2437,10.1749,10.1988,10.2283,10.1952,10.1088,10.2199,10.3611,10.5035,10.563,10.649,10.6571,10.6616,10.6178,10.6048,10.5026,10.3609,10.3834,10.5187,10.5219,10.4349,10.3866,10.3223,10.319,10.3705,10.3416,10.3261,10.3234,10.3073,10.2004,10.1972,10.1875,10.1875,10.1944,10.1944,10.2046,10.2119,10.2188,10.2429,10.2633,10.2565,10.2801,10.357,10.4224,10.4482,10.4802,10.5182,10.5308,10.5274,10.5274,10.5404,10.537,10.5591,10.62,10.6503,9.9581,9.9581,9.9581,9.9581,9.9581,9.9581,9.9581,9.9581,9.9581,9.9581,9.9581,9.9581,9.9581,9.9581,9.9581,9.9581,9.9581,9.9581,9.9581,9.9581,9.9581,9.9581,9.9581,9.9581,9.9581,9.9581,9.9581,9.9581,9.9581,9.9581,9.9581,9.9581,9.9581,9.9581,9.9581,9.9581,9.9581,9.9581,9.9581,9.9581,9.9581,9.9581,9.9581,9.9581,9.9581,9.9734,10.0278,10.0637,10.1114,10.1617,10.1969,10.2262,10.2379,10.2467,10.2467,10.2467,10.2467,10.2407,10.2287,10.2287,10.133,10.0403,9.9924,9.9879,9.9657,9.8913,9.9967,10.1262,10.2672,10.3768,10.4798,10.5976,10.5652,10.4634,10.431,10.3796,10.274,10.2418,10.3319,10.3158,10.2579,10.2418,10.223,10.2353,10.2579,10.2192,10.1875,10.1972,10.2036,10.1907,10.1907,10.1875,10.1875,10.1875,10.1875,10.1875,10.1875,10.1875,10.205,10.2224,10.2256,10.2461,10.3137,10.38,10.4029,10.432,10.4705,10.4993,10.5023,10.5023,10.5056,10.5212,10.5462,10.5805,10.6112,9.9581,9.9581,9.9581,9.9581,9.9581,9.9581,9.9581,9.9581,9.9581,9.9581,9.9581,9.9581,9.9581,9.9581,9.9581,9.9581,9.9581,9.9581,9.9581,9.9581,9.9581,9.9581,9.9581,9.9581,9.9581,9.9581,9.9581,9.9581,9.9581,9.9581,9.9581,9.9581,9.9581,9.9581,9.9581,9.9581,9.9581,9.9581,9.9581,9.9581,9.9581,9.9581,9.9581,9.9581,9.9581,9.9734,10.0278,10.0577,10.0935,10.1351,10.1881,10.2087,10.2087,10.2379,10.2257,10.1809,10.1779,10.1659,10.121,10.1001,10.0223,9.9385,9.8727,9.8607,9.8003,9.7291,9.7764,9.9007,9.9808,10.0683,10.2068,10.3087,10.3701,10.2761,10.2741,10.2163,10.2321,10.1967,10.1875,10.1875,10.1875,10.1907,10.1907,10.2165,10.216,10.194,10.1875,10.1875,10.1875,10.1875,10.1875,10.1875,10.1875,10.1875,10.1875,10.1875,10.1875,10.1875,10.1944,10.205,10.2188,10.2393,10.2801,10.2935,10.3437,10.3865,10.4126,10.4385,10.4577,10.4738,10.4738,10.4866,10.5308,10.562,10.5839,9.9581,9.9581,9.9581,9.9581,9.9581,9.9581,9.9581,9.9581,9.9581,9.9581,9.9581,9.9581,9.9581,9.9581,9.9581,9.9581,9.9581,9.9581,9.9581,9.9581,9.9581,9.9581,9.9581,9.9581,9.9581,9.9581,9.9581,9.9581,9.9581,9.9581,9.9581,9.9581,9.9581,9.9581,9.9581,9.9581,9.9581,9.9581,9.9581,9.9581,9.9581,9.9581,9.9581,9.9581,9.9581,9.9734,10.0187,10.0487,10.0461,10.0759,10.1231,10.1228,10.1197,10.1518,10.139,10.0582,10.0492,9.9894,9.8787,9.8518,9.8338,9.7919,9.7501,9.7351,9.6753,9.6483,9.67,9.6833,9.7288,9.7764,9.8185,9.8902,9.991,10.0248,10.0855,10.0996,10.1726,10.1875,10.1875,10.1875,10.1875,10.1875,10.1875,10.1875,10.1875,10.1875,10.1875,10.1875,10.1875,10.1875,10.1875,10.1875,10.1875,10.1875,10.1875,10.1875,10.1875,10.1875,10.1875,10.1944,10.2082,10.2188,10.2151,10.2082,10.2565,10.3272,10.3537,10.38,10.3603,10.3537,10.3898,10.4546,10.5119,10.5558,10.562,9.9581,9.9581,9.9581,9.9581,9.9581,9.9581,9.9581,9.9581,9.9581,9.9581,9.9581,9.9581,9.9581,9.9581,9.9581,9.9581,9.9581,9.9581,9.9581,9.9581,9.9581,9.9581,9.9581,9.9581,9.9581,9.9581,9.9581,9.9581,9.9581,9.9581,9.9581,9.9581,9.9581,9.9581,9.9581,9.9581,9.9581,9.9581,9.9581,9.9581,9.9552,9.9523,9.9494,9.9465,9.9349,9.9563,9.9775,9.9867,9.9812,9.9815,9.99,9.9746,9.953,9.9284,9.9475,9.9266,9.9086,9.8996,9.8099,9.7112,9.5706,9.6035,9.5975,9.5676,9.5227,9.5107,9.5317,9.5338,9.6003,9.6784,9.7348,9.8396,9.9239,9.9576,10.0051,10.0837,10.1495,10.1875,10.1875,10.1875,10.1875,10.1875,10.1875,10.1875,10.1875,10.1875,10.1875,10.1875,10.1875,10.1875,10.1875,10.1875,10.1875,10.1875,10.1875,10.1875,10.1875,10.1875,10.1875,10.1875,10.1875,10.1875,10.1944,10.1944,10.2188,10.2668,10.2938,10.3104,10.2836,10.2497,10.3272,10.4126,10.4705,10.5149,10.5274,9.9581,9.9581,9.9581,9.9581,9.9581,9.9581,9.9581,9.9581,9.9581,9.9581,9.9581,9.9581,9.9581,9.9581,9.9581,9.9581,9.9581,9.9581,9.9581,9.9581,9.9581,9.9581,9.9581,9.9581,9.9581,9.9581,9.9581,9.9581,9.9581,9.9581,9.9581,9.9581,9.9581,9.9581,9.9581,9.9581,9.9581,9.9581,9.9581,9.9581,9.9374,9.9142,9.8735,9.8738,9.8534,9.8278,9.8604,9.8546,9.8285,9.8139,9.8456,9.8245,9.7972,9.8449,9.8344,9.7889,9.78,9.7411,9.6603,9.5556,9.4509,9.4479,9.4479,9.4539,9.4688,9.4539,9.4479,9.464,9.521,9.5569,9.6223,9.7547,9.901,9.9481,10.0092,10.101,10.1565,10.1806,10.1875,10.1875,10.1875,10.1875,10.1875,10.1875,10.1875,10.1875,10.1875,10.1875,10.1875,10.1875,10.1875,10.1875,10.1875,10.1875,10.1875,10.1875,10.1875,10.1875,10.1875,10.1875,10.1875,10.1875,10.1875,10.1944,10.2151,10.2256,10.2393,10.2393,10.2393,10.2325,10.2836,10.3603,10.4191,10.4705,10.4896,9.9581,9.9581,9.9581,9.9581,9.9581,9.9581,9.9581,9.9581,9.9581,9.9581,9.9581,9.9581,9.9581,9.9581,9.9581,9.9581,9.9581,9.9581,9.9581,9.9581,9.9581,9.9581,9.9581,9.9581,9.9581,9.9581,9.9581,9.9581,9.9581,9.9581,9.9581,9.9581,9.9581,9.9581,9.9581,9.9581,9.9581,9.9552,9.9203,9.9203,9.8651,9.8037,9.7456,9.7284,9.6499,9.5888,9.5888,9.6179,9.618,9.5946,9.6611,9.669,9.6389,9.6921,9.6839,9.6385,9.6206,9.5841,9.5273,9.4586,9.4398,9.4398,9.4479,9.4479,9.4479,9.4479,9.4479,9.4479,9.464,9.48,9.504,9.5753,9.7654,9.8704,10.0051,10.0971,10.1635,10.1806,10.1875,10.1875,10.1875,10.1875,10.1875,10.1875,10.1875,10.1875,10.1875,10.1875,10.1875,10.1875,10.1875,10.1875,10.1875,10.1875,10.1875,10.1875,10.1875,10.1875,10.1875,10.1875,10.1875,10.1875,10.1875,10.1875,10.1944,10.1875,10.1944,10.2082,10.2151,10.2082,10.2357,10.2903,10.3471,10.3996,10.4385,9.9581,9.9581,9.9581,9.9581,9.9581,9.9581,9.9581,9.9581,9.9581,9.9581,9.9581,9.9581,9.9581,9.9581,9.9581,9.9581,9.9581,9.9581,9.9581,9.9581,9.9581,9.9581,9.9581,9.9581,9.9581,9.9581,9.9581,9.9581,9.9581,9.9581,9.9581,9.9581,9.9581,9.9523,9.9552,9.9465,9.9291,9.9203,9.8386,9.772,9.7022,9.6469,9.6295,9.615,9.6063,9.583,9.583,9.5743,9.5044,9.4666,9.4919,9.4793,9.4291,9.4789,9.4825,9.4729,9.4604,9.4359,9.4121,9.4105,9.4186,9.4318,9.4479,9.4398,9.4398,9.4479,9.4479,9.4479,9.4479,9.4479,9.488,9.6426,9.7426,9.8555,9.9834,10.0971,10.1806,10.1806,10.1875,10.1875,10.1875,10.1875,10.1875,10.1875,10.1875,10.1875,10.1875,10.1875,10.1875,10.1875,10.1875,10.1875,10.1875,10.1875,10.1875,10.1875,10.1875,10.1875,10.1875,10.1875,10.1875,10.1875,10.1875,10.1875,10.1875,10.1875,10.1875,10.1875,10.1875,10.2082,10.2289,10.2597,10.2836,10.3304,10.3865,9.9581,9.9581,9.9581,9.9581,9.9581,9.9581,9.9581,9.9581,9.9581,9.9581,9.9581,9.9581,9.9581,9.9581,9.9581,9.9581,9.9581,9.9581,9.9581,9.9581,9.9581,9.9581,9.9581,9.9581,9.9581,9.9581,9.9581,9.9581,9.9581,9.9581,9.9581,9.9581,9.9552,9.9349,9.856,9.8648,9.8476,9.7895,9.7255,9.6469,9.583,9.5364,9.5015,9.4986,9.4317,9.4056,9.3968,9.4114,9.3677,9.3356,9.3433,9.3163,9.2861,9.2988,9.3318,9.3318,9.3318,9.3318,9.337,9.3727,9.3942,9.4186,9.4186,9.4267,9.4398,9.4479,9.4479,9.4479,9.4479,9.4479,9.485,9.627,9.7273,9.8331,9.9471,10.0616,10.1527,10.1667,10.1875,10.1875,10.1875,10.1875,10.1875,10.1875,10.1875,10.1875,10.1875,10.1875,10.1875,10.1875,10.1875,10.1875,10.1875,10.1875,10.1875,10.1875,10.1875,10.1875,10.1875,10.1875,10.1875,10.1875,10.1875,10.1875,10.1875,10.1875,10.1875,10.1875,10.1875,10.2082,10.2256,10.2393,10.2497,10.2903,10.3371,9.9581,9.9581,9.9581,9.9581,9.9581,9.9581,9.9581,9.9581,9.9581,9.9581,9.9581,9.9581,9.9581,9.9581,9.9581,9.9581,9.9581,9.9581,9.9581,9.9581,9.9581,9.9581,9.9581,9.9581,9.9581,9.9581,9.9581,9.9581,9.9581,9.9581,9.9523,9.9203,9.9029,9.8709,9.7575,9.7429,9.6818,9.6121,9.5772,9.5597,9.5335,9.423,9.3736,9.3387,9.2805,9.2311,9.2456,9.2456,9.234,9.2107,9.2356,9.2465,9.2519,9.2934,9.307,9.2988,9.2768,9.2519,9.2656,9.3153,9.3616,9.3809,9.3809,9.4024,9.4186,9.4318,9.4318,9.4398,9.4479,9.4479,9.464,9.5783,9.6766,9.7805,9.8852,10.0227,10.1074,10.1183,10.1806,10.1875,10.1875,10.1875,10.1875,10.1875,10.1875,10.1875,10.1875,10.1875,10.1875,10.1875,10.1875,10.1875,10.1875,10.1875,10.1875,10.1875,10.1875,10.1875,10.1875,10.1875,10.1875,10.1875,10.1875,10.1875,10.1875,10.1875,10.1875,10.1875,10.1875,10.2014,10.2188,10.2256,10.2256,10.2393,10.2597,9.9581,9.9581,9.9581,9.9581,9.9581,9.9581,9.9581,9.9581,9.9581,9.9581,9.9581,9.9581,9.9581,9.9581,9.9581,9.9581,9.9581,9.9581,9.9581,9.9581,9.9581,9.9581,9.9581,9.9581,9.9581,9.9552,9.9407,9.9581,9.9261,9.9232,9.8854,9.8302,9.7921,9.74,9.6411,9.615,9.6091,9.5568,9.4957,9.4259,9.3939,9.3038,9.234,9.2252,9.2107,9.1962,9.1962,9.1962,9.1962,9.1962,9.2017,9.2017,9.2017,9.2101,9.2184,9.2214,9.2101,9.2268,9.2435,9.2822,9.3041,9.34,9.34,9.3616,9.3861,9.4105,9.4186,9.4398,9.4479,9.4479,9.464,9.5625,9.6409,9.7151,9.8256,9.9512,9.9979,10.0971,10.1565,10.1875,10.1875,10.1875,10.1875,10.1875,10.1875,10.1875,10.1875,10.1875,10.1875,10.1875,10.1875,10.1875,10.1875,10.1875,10.1875,10.1875,10.1875,10.1875,10.1875,10.1875,10.1875,10.1875,10.1875,10.1875,10.1875,10.1875,10.1875,10.1875,10.1875,10.1944,10.2119,10.2188,10.2119,10.2119,10.2289,9.9581,9.9581,9.9581,9.9581,9.9581,9.9581,9.9581,9.9581,9.9581,9.9581,9.9581,9.9581,9.9581,9.9581,9.9581,9.9581,9.9581,9.9581,9.9581,9.9581,9.9581,9.9581,9.9581,9.9581,9.9581,9.9261,9.8273,9.7633,9.772,9.7807,9.7313,9.6818,9.6731,9.6091,9.5132,9.4841,9.4492,9.3823,9.3299,9.295,9.2834,9.2427,9.202,9.1991,9.1962,9.1962,9.1962,9.1962,9.1962,9.1962,9.1962,9.1962,9.1962,9.1962,9.1962,9.1962,9.1962,9.2046,9.2184,9.2406,9.2656,9.2905,9.3153,9.3482,9.3809,9.3942,9.4105,9.4318,9.4479,9.4479,9.4479,9.507,9.5783,9.6331,9.6581,9.7242,9.8449,10.0513,10.1425,10.1875,10.1736,10.1635,10.1736,10.1806,10.1806,10.1875,10.1875,10.1875,10.1875,10.1875,10.1875,10.1875,10.1875,10.1875,10.1875,10.1875,10.1875,10.1875,10.1875,10.1875,10.1875,10.1875,10.1875,10.1811,10.1875,10.1875,10.1875,10.1875,10.1875,10.1875,10.2014,10.2014,10.1944,10.1944,10.1944,9.9581,9.9581,9.9581,9.9581,9.9581,9.9581,9.9581,9.9581,9.9581,9.9581,9.9581,9.9581,9.9581,9.9581,9.9581,9.9581,9.9581,9.9581,9.9581,9.9581,9.9581,9.9581,9.9465,9.9232,9.8942,9.8389,9.7167,9.6208,9.6092,9.5801,9.5917,9.5539,9.5422,9.4667,9.3795,9.3474,9.3096,9.2316,9.2197,9.2165,9.2165,9.202,9.1962,9.1962,9.1962,9.1877,9.1877,9.1877,9.1848,9.1848,9.1877,9.1848,9.1735,9.1735,9.1764,9.168,9.1651,9.1793,9.2017,9.2352,9.2519,9.2656,9.2988,9.3482,9.3809,9.3942,9.4105,9.4347,9.4479,9.4479,9.4479,9.4559,9.507,9.5437,9.5486,9.5407,9.7212,9.9293,10.1112,10.1112,10.1253,10.1393,10.1425,10.1495,10.1667,10.1875,10.1875,10.1875,10.1875,10.1875,10.1682,10.165,10.1714,10.1682,10.1585,10.1456,10.1617,10.1553,10.1714,10.1682,10.1779,10.1811,10.1746,10.1585,10.1585,10.1553,10.1714,10.1875,10.1875,10.1875,10.1875,10.1875,10.1875,10.1875,10.1875,9.9581,9.9581,9.9581,9.9581,9.9581,9.9581,9.9581,9.9581,9.9581,9.9581,9.9581,9.9581,9.9581,9.9581,9.9581,9.9581,9.9552,9.9523,9.9174,9.9174,9.9116,9.9116,9.8912,9.8156,9.7371,9.647,9.5655,9.5539,9.551,9.5772,9.4696,9.4259,9.4143,9.3275,9.2118,9.197,9.1996,9.1539,9.1764,9.1962,9.1962,9.1877,9.1877,9.1877,9.1877,9.1595,9.1397,9.1595,9.1735,9.1312,9.168,9.1595,9.1312,9.1227,9.1227,9.1142,9.1283,9.1566,9.1932,9.2268,9.2519,9.2573,9.2988,9.34,9.3779,9.3942,9.4105,9.4318,9.4479,9.4479,9.4479,9.4479,9.4559,9.472,9.467,9.5278,9.6859,9.8524,9.9689,9.9907,10.041,10.0574,10.0716,10.104,10.1506,10.1875,10.1875,10.1875,10.1875,10.1779,10.113,10.0904,10.0808,10.0776,10.0393,10.02,10.0872,10.1033,10.1424,10.1456,10.1553,10.0909,10.0099,10.0486,10.1098,10.0937,10.0969,10.084,10.1134,10.1843,10.1714,10.1231,10.1392,10.1811,10.1875,9.7929,9.8022,9.9066,9.9581,9.9581,9.9581,9.9581,9.9581,9.9581,9.9581,9.9581,9.9581,9.9581,9.9581,9.9581,9.9552,9.9436,9.8822,9.8214,9.7662,9.7575,9.7575,9.7284,9.6266,9.5422,9.4783,9.3941,9.3363,9.3276,9.2988,9.2959,9.218,9.2151,9.1719,9.1285,9.1426,9.1481,9.1566,9.1848,9.1962,9.1848,9.168,9.1481,9.151,9.1341,9.1171,9.0857,9.1312,9.1312,9.1227,9.1171,9.1086,9.0801,9.0801,9.0971,9.1057,9.1113,9.1397,9.168,9.1932,9.1984,9.249,9.2768,9.3235,9.3698,9.4075,9.4267,9.4398,9.4449,9.4449,9.4479,9.4479,9.4479,9.4479,9.4479,9.472,9.5644,9.7089,9.8375,9.9481,9.9509,9.9616,9.9873,10.0211,10.0486,9.9777,9.981,9.9327,9.9488,9.8908,9.8876,9.9649,9.9713,9.9617,9.9101,9.923,9.9938,10.0164,10.026,10.026,9.9842,9.9037,9.8425,9.9713,10.0808,10.0582,9.9777,9.9423,9.9391,9.981,10.0067,10.0196,10.0228,10.0228,10.0454,9.5769,9.5837,9.7592,9.8393,9.8393,9.8791,9.8975,9.9003,9.937,9.9287,9.8992,9.8934,9.8669,9.8379,9.8144,9.8466,9.818,9.7425,9.6672,9.5771,9.583,9.5597,9.4609,9.3797,9.3246,9.2813,9.1689,9.1143,9.1087,9.1117,9.0601,9.0744,9.0945,9.0658,9.0857,9.0943,9.1227,9.1455,9.1624,9.1539,9.151,9.1227,9.1057,9.1057,9.0801,9.0572,9.0544,9.0801,9.0971,9.08,9.0542,9.0198,8.9828,8.9656,8.9597,8.9709,8.9851,9.0135,9.0613,9.0468,9.0838,9.1651,9.2152,9.274,9.3445,9.3759,9.38,9.3671,9.394,9.394,9.397,9.424,9.4449,9.4479,9.4479,9.4389,9.433,9.5159,9.6137,9.7303,9.788,9.8547,9.8437,9.8585,9.8779,9.7814,9.7234,9.6654,9.601,9.5302,9.6268,9.7749,9.7974,9.8296,9.7878,9.7942,9.8425,9.8683,9.8554,9.8425,9.7202,9.6332,9.6654,9.7942,9.9649,9.9456,9.849,9.8103,9.8168,9.7942,9.7942,9.8876,9.9456,9.8779,9.8876,9.3656,9.3656,9.4338,9.4656,9.5123,9.6596,9.7364,9.7657,9.8652,9.8524,9.7499,9.7236,9.6654,9.5025,9.5725,9.535,9.5706,9.565,9.5508,9.5655,9.5277,9.4232,9.2265,9.1604,9.1346,9.1174,9.0887,9.0658,9.0544,9.0572,9.0572,9.0486,9.0486,9.04,9.0199,9.0458,9.0372,9.0372,9.0744,9.0915,9.0829,9.0744,9.0658,9.0544,9.0458,9.0199,9.0113,9.0285,9.0315,8.9969,8.9653,8.8968,8.8288,8.754,8.7197,8.7088,8.7231,8.7369,8.75,8.8389,8.8943,9.0201,9.1303,9.2028,9.2217,9.2427,9.2276,9.1391,9.2115,9.2466,9.2705,9.3741,9.4109,9.4368,9.4249,9.3771,9.3073,9.2902,9.2579,9.1883,9.3699,9.4481,9.5182,9.6261,9.7717,9.646,9.6107,9.5689,9.5141,9.4304,9.4819,9.5882,9.6332,9.6783,9.6719,9.659,9.6848,9.6912,9.6687,9.63,9.5109,9.4884,9.5045,9.5399,9.6654,9.6976,9.6654,9.7041,9.7331,9.7105,9.6461,9.7685,9.9037,9.8329,9.8876,9.1312,9.2144,9.364,9.4319,9.4412,9.5234,9.56,9.5782,9.6507,9.6398,9.5754,9.5757,9.5439,9.4889,9.4714,9.5097,9.5334,9.4696,9.4493,9.4579,9.3968,9.2639,9.1231,9.0744,9.0572,9.0572,9.0285,9.0113,9.0113,8.9882,8.9795,8.9882,8.9795,8.9766,8.9738,9.0113,9.0113,9.0285,9.0486,9.0572,9.0572,9.0285,9.0113,9.0113,8.9853,8.9708,8.9593,8.9853,8.92,8.7721,8.721,8.7037,8.6616,8.6217,8.6074,8.6183,8.6128,8.6349,8.6819,8.7118,8.7892,8.8999,8.9628,9.0296,9.0692,9.0928,9.0869,8.989,9.0129,9.0346,9.0612,9.1589,9.2757,9.3577,9.2574,9.1395,9.1204,9.1085,9.1014,9.1628,9.266,9.4064,9.5246,9.56,9.5684,9.5269,9.4819,9.4755,9.4497,9.3918,9.3725,9.4143,9.4562,9.4851,9.4884,9.4851,9.5012,9.4884,9.4658,9.4562,9.3918,9.3789,9.395,9.4143,9.4304,9.4497,9.4562,9.4787,9.5399,9.5656,9.5173,9.5721,9.7427,9.7846,9.923,8.8407,8.9903,9.1638,9.2613,9.2978,9.3668,9.3906,9.3939,9.4594,9.4625,9.3899,9.4048,9.3846,9.3471,9.3414,9.3735,9.371,9.3103,9.2814,9.2841,9.1972,9.1143,9.0486,9.0314,9.0228,9.0141,8.9795,8.968,8.9621,8.9418,8.9272,8.9184,8.9272,8.9418,8.9564,8.968,8.9853,9.0141,9.0228,9.0228,9.0141,8.9853,8.968,8.9593,8.9447,8.9272,8.9272,8.9194,8.7919,8.577,8.5318,8.5175,8.5036,8.4751,8.4605,8.4798,8.4883,8.5105,8.5351,8.5457,8.6146,8.7374,8.7672,8.8099,8.8761,8.8917,8.8711,8.8289,8.8357,8.8396,8.8839,8.981,9.1081,9.2274,9.0719,8.9321,8.93,8.9356,8.9632,9.0592,9.1563,9.2888,9.3949,9.4427,9.4206,9.3597,9.3404,9.3435,9.3436,9.3115,9.337,9.337,9.337,9.3338,9.3306,9.3306,9.3306,9.3306,9.337,9.3499,9.3403,9.3306,9.3306,9.3306,9.3789,9.3918,9.3596,9.3403,9.337,9.395,9.4111,9.5045,9.6493,9.7747,9.9166,8.4861,8.6224,8.6982,8.8342,8.9672,9.1379,9.2177,9.2409,9.3706,9.3289,9.2135,9.2052,9.1247,9.0044,9.0245,9.045,9.0168,9.0456,9.0773,9.0887,9.0773,9.04,8.994,8.9621,8.9447,8.9447,8.9359,8.9244,8.9359,8.9272,8.9184,8.9184,8.9184,8.9272,8.9272,8.9272,8.9331,8.9447,8.9359,8.9359,8.9359,8.9215,8.9159,8.9159,8.9046,8.8874,8.8648,8.7832,8.673,8.56,8.4605,8.4039,8.3649,8.2987,8.2566,8.2437,8.2183,8.2324,8.2292,8.2977,8.3583,8.479,8.5409,8.5728,8.6024,8.6361,8.6246,8.5505,8.6207,8.7075,8.7747,8.8643,8.9262,8.9863,8.863,8.7698,8.764,8.7589,8.8076,8.8385,8.9042,9.0289,9.2064,9.2952,9.3115,9.2955,9.3083,9.3019,9.2922,9.3083,9.3242,9.3338,9.3338,9.3306,9.3306,9.3306,9.3306,9.3306,9.3338,9.337,9.3338,9.3306,9.3306,9.3306,9.3467,9.3435,9.3338,9.3338,9.3338,9.3531,9.4143,9.498,9.6139,9.7361,9.8812,8.6602,8.7925,8.82,8.8565,8.9165,8.9885,9.0271,9.045,9.1218,9.1078,9.0386,9.0448,9.0164,8.9678,8.9593,8.9853,9.0199,9.0285,9.0141,8.9795,8.9708,8.9621,8.9447,8.93,8.9184,8.9184,8.9184,8.9184,8.9184,8.9184,8.9184,8.9184,8.9184,8.9156,8.9184,8.9184,8.9184,8.9184,8.9156,8.9184,8.9043,8.8394,8.7971,8.7886,8.7266,8.6899,8.6786,8.5601,8.4755,8.4273,8.331,8.2659,8.255,8.2264,8.1981,8.182,8.182,8.182,8.182,8.2221,8.2739,8.3394,8.3983,8.4298,8.4377,8.4377,8.4311,8.377,8.4018,8.4199,8.4687,8.559,8.606,8.5973,8.5394,8.4868,8.4893,8.5696,8.6925,8.8433,8.9279,9.0518,9.1621,9.2471,9.2341,9.2665,9.2858,9.2858,9.3083,9.3179,9.3242,9.3306,9.3306,9.3306,9.3306,9.3306,9.3306,9.3306,9.3306,9.3306,9.3306,9.3306,9.3306,9.3306,9.3306,9.3306,9.3306,9.3306,9.337,9.3886,9.4272,9.5238,9.6332,9.7393,9.8264,8.6463,8.7803,8.8336,8.8717,8.9184,8.9184,8.9184,8.9272,8.9506,8.9506,8.9244,8.9506,8.9593,8.9593,8.9593,8.9766,9.0141,9.0141,8.9795,8.9359,8.9272,8.9272,8.9272,8.9184,8.9184,8.9184,8.9184,8.9184,8.9184,8.9184,8.8959,8.8648,8.8564,8.8423,8.7971,8.8028,8.8028,8.8056,8.8028,8.8056,8.7943,8.7153,8.673,8.6645,8.594,8.5065,8.4388,8.3513,8.3034,8.3034,8.2244,8.182,8.182,8.182,8.182,8.182,8.182,8.182,8.182,8.2141,8.2352,8.2642,8.285,8.3058,8.3058,8.3115,8.3008,8.3086,8.2613,8.2642,8.2886,8.3628,8.3925,8.3429,8.3058,8.3044,8.3565,8.4332,8.6151,8.8291,8.9139,9.0214,9.1656,9.2309,9.2276,9.2568,9.2697,9.2794,9.2922,9.2955,9.3051,9.3306,9.3306,9.3306,9.3306,9.3306,9.3306,9.3306,9.3306,9.3306,9.3306,9.3306,9.3306,9.3306,9.3306,9.3306,9.3306,9.3306,9.3306,9.3628,9.4079,9.5141,9.6558,9.7331,9.7781,8.3489,8.5305,8.6345,8.7925,8.9097,8.9184,8.9184,8.9184,8.9272,8.9272,8.9184,8.9272,8.9272,8.9272,8.9272,8.9187,8.9077,8.8964,8.8905,8.8818,8.8902,8.8902,8.8846,8.8789,8.8789,8.8846,8.9043,8.9043,8.8874,8.8789,8.831,8.7463,8.7294,8.6843,8.5686,8.5911,8.577,8.5855,8.594,8.5799,8.5573,8.5601,8.5488,8.5488,8.5319,8.4247,8.2131,8.1962,8.199,8.1933,8.1849,8.182,8.182,8.182,8.182,8.182,8.182,8.182,8.1849,8.182,8.1901,8.1981,8.1901,8.2061,8.2033,8.2033,8.2273,8.2721,8.2613,8.28,8.3478,8.3387,8.2936,8.2979,8.2642,8.2692,8.3215,8.3293,8.4167,8.6595,8.7934,8.9007,9.1257,9.2113,9.2145,9.2177,9.2308,9.2471,9.2471,9.2211,9.26,9.2987,9.3242,9.3306,9.3306,9.3306,9.3306,9.3306,9.3306,9.3306,9.3306,9.3306,9.3306,9.3306,9.3306,9.3306,9.3306,9.3306,9.3306,9.3403,9.3725,9.4368,9.5463,9.6397,9.7073,8.5461,8.7714,8.8247,8.8805,8.9184,8.9184,8.9184,8.9184,8.9184,8.9184,8.9184,8.9184,8.9184,8.9184,8.9184,8.8394,8.6786,8.673,8.6701,8.6673,8.6701,8.673,8.6701,8.6701,8.6673,8.673,8.6701,8.6701,8.6701,8.6701,8.6476,8.6081,8.6081,8.5855,8.5601,8.5545,8.5545,8.5545,8.5545,8.5517,8.5404,8.467,8.419,8.4106,8.3429,8.261,8.1905,8.182,8.182,8.182,8.182,8.182,8.182,8.182,8.182,8.182,8.182,8.182,8.182,8.182,8.182,8.182,8.182,8.182,8.182,8.182,8.1901,8.2141,8.2061,8.2141,8.2432,8.2324,8.2164,8.2193,8.2113,8.2113,8.2432,8.3215,8.4445,8.6002,8.7718,8.931,9.0444,9.0783,9.1017,9.1151,9.1187,9.1387,9.1454,9.1218,9.1084,9.2244,9.2955,9.3242,9.3242,9.3179,9.3179,9.3242,9.3306,9.3306,9.3306,9.3306,9.3306,9.3306,9.3306,9.3306,9.3306,9.3306,9.3338,9.337,9.3628,9.4046,9.4755,9.5495,9.6139,8.4845,8.7081,8.7657,8.7858,8.7858,8.7858,8.7858,8.7858,8.7886,8.7886,8.7886,8.783,8.7858,8.7886,8.7858,8.6984,8.5629,8.5545,8.5545,8.5545,8.5545,8.5545,8.5545,8.5545,8.5545,8.5545,8.5545,8.5545,8.5545,8.5545,8.5291,8.4924,8.4811,8.4585,8.4247,8.419,8.419,8.4162,8.419,8.419,8.4049,8.3372,8.2949,8.2893,8.2215,8.182,8.182,8.182,8.182,8.182,8.182,8.182,8.182,8.182,8.182,8.182,8.182,8.182,8.182,8.182,8.182,8.182,8.182,8.182,8.182,8.182,8.1929,8.1981,8.2009,8.182,8.182,8.182,8.1901,8.1981,8.1901,8.1929,8.2193,8.2771,8.3577,8.4551,8.6225,8.822,8.8999,9.0065,9.0475,9.0549,9.0684,9.0851,9.0882,9.0679,9.0986,9.2048,9.273,9.3019,9.3083,9.3019,9.3051,9.3179,9.3306,9.3306,9.3306,9.3306,9.3306,9.3306,9.3306,9.3306,9.3306,9.3306,9.3306,9.3403,9.3596,9.4046,9.469,9.4465,9.5012,8.1914,8.342,8.4898,8.5686,8.5573,8.5629,8.5601,8.577,8.5658,8.5601,8.5714,8.5686,8.5488,8.5375,8.5347,8.5319,8.5263,8.515,8.5122,8.5122,8.5178,8.5291,8.5347,8.5347,8.5291,8.5037,8.5009,8.5065,8.5178,8.5234,8.4727,8.357,8.3513,8.2977,8.2187,8.2074,8.1877,8.2103,8.2103,8.1962,8.1905,8.1905,8.1905,8.1933,8.182,8.182,8.182,8.182,8.182,8.182,8.182,8.182,8.182,8.182,8.182,8.182,8.182,8.182,8.182,8.182,8.182,8.182,8.182,8.182,8.182,8.182,8.1953,8.2324,8.1981,8.182,8.182,8.182,8.1981,8.2273,8.2033,8.2033,8.2324,8.2113,8.1929,8.2511,8.3732,8.5629,8.8118,8.9934,9.0512,9.0512,9.0716,9.0815,9.0376,9.0747,9.1254,9.1982,9.2374,9.2504,9.2536,9.2503,9.2664,9.2922,9.3051,9.3274,9.3306,9.3306,9.3306,9.3306,9.3306,9.3306,9.3306,9.3306,9.3306,9.337,9.3596,9.3596,9.3853,9.3499,9.3725,8.2847,8.3393,8.4842,8.5545,8.5545,8.5545,8.5545,8.5545,8.5545,8.5545,8.5545,8.5545,8.4557,8.3005,8.2836,8.2836,8.2836,8.2836,8.2836,8.2836,8.2836,8.2836,8.2836,8.2836,8.2836,8.2836,8.2893,8.2864,8.2836,8.2836,8.2667,8.2385,8.23,8.2131,8.1849,8.182,8.182,8.182,8.182,8.182,8.182,8.182,8.182,8.182,8.182,8.182,8.182,8.182,8.182,8.182,8.182,8.182,8.182,8.182,8.182,8.182,8.182,8.182,8.182,8.182,8.182,8.182,8.182,8.182,8.182,8.182,8.1901,8.1981,8.1901,8.182,8.182,8.182,8.182,8.1981,8.1901,8.1849,8.1953,8.1929,8.2511,8.4071,8.4475,8.5912,8.8168,8.9223,8.9642,8.9573,8.9573,8.9503,8.9503,8.9958,9.0543,9.1021,9.1356,9.1485,9.1254,9.1782,9.2242,9.2536,9.2826,9.3051,9.3242,9.3306,9.3306,9.3306,9.3306,9.3306,9.3306,9.3306,9.3306,9.3306,9.337,9.3403,9.3306,9.3338,9.3338,8.2633,8.2745,8.3634,8.4021,8.4021,8.4021,8.3993,8.4021,8.4021,8.4021,8.4021,8.4021,8.3231,8.1849,8.182,8.182,8.182,8.182,8.182,8.182,8.182,8.182,8.182,8.182,8.182,8.182,8.182,8.182,8.182,8.182,8.182,8.182,8.182,8.182,8.182,8.182,8.182,8.182,8.182,8.182,8.182,8.182,8.182,8.182,8.182,8.182,8.182,8.182,8.182,8.182,8.1953,8.1981,8.1849,8.1981,8.1981,8.182,8.182,8.182,8.182,8.182,8.182,8.182,8.182,8.182,8.182,8.182,8.182,8.182,8.182,8.182,8.182,8.182,8.182,8.182,8.182,8.182,8.182,8.2244,8.3058,8.4522,8.516,8.6062,8.7561,8.8168,8.8485,8.8972,8.9183,8.9324,8.9355,8.9642,8.9996,9.0239,9.0475,9.0679,9.112,9.1848,9.2242,9.2471,9.273,9.2955,9.3242,9.3306,9.3306,9.3306,9.3306,9.3306,9.3306,9.3306,9.3306,9.3306,9.3306,9.3306,9.3306,9.3306,9.3306,8.1877,8.182,8.1933,8.182,8.1905,8.1877,8.1933,8.1905,8.1849,8.182,8.1962,8.182,8.1877,8.182,8.182,8.182,8.182,8.182,8.182,8.182,8.182,8.182,8.182,8.182,8.182,8.182,8.182,8.182,8.182,8.182,8.182,8.182,8.182,8.182,8.182,8.182,8.182,8.182,8.182,8.182,8.182,8.182,8.182,8.182,8.182,8.182,8.182,8.182,8.182,8.182,8.2193,8.2273,8.1981,8.2193,8.2273,8.1873,8.182,8.182,8.182,8.182,8.182,8.182,8.182,8.182,8.182,8.151,8.1341,8.1341,8.1454,8.1482,8.1651,8.1736,8.182,8.182,8.1953,8.1981,8.2061,8.2929,8.3936,8.4292,8.5236,8.5883,8.6845,8.7386,8.7851,8.8901,8.9254,8.9425,8.9495,8.9573,8.9712,8.9819,8.9958,9.037,9.1048,9.1814,9.2046,9.2309,9.2826,9.3051,9.3115,9.3211,9.3306,9.3306,9.3306,9.3306,9.3306,9.3306,9.3306,9.3306,9.3306,9.3306,9.3306,9.3306,9.3306,8.182,8.182,8.182,8.182,8.182,8.182,8.182,8.182,8.1792,8.182,8.182,8.182,8.182,8.182,8.182,8.182,8.182,8.182,8.182,8.182,8.182,8.182,8.182,8.182,8.182,8.182,8.182,8.182,8.182,8.182,8.182,8.182,8.182,8.182,8.182,8.182,8.182,8.182,8.182,8.182,8.182,8.182,8.182,8.182,8.1792,8.182,8.182,8.182,8.182,8.182,8.2193,8.2432,8.2324,8.2432,8.2403,8.2273,8.1953,8.182,8.182,8.182,8.182,8.182,8.182,8.182,8.1623,7.9479,7.8181,7.8802,7.9507,8.0015,8.0353,8.1143,8.182,8.1901,8.2613,8.2679,8.2164,8.3683,8.5206,8.5853,8.6403,8.7107,8.8097,8.8586,8.8627,8.8941,8.9144,8.9183,8.9183,8.9152,8.9254,8.9394,8.985,9.0164,8.9712,9.0438,9.1053,9.1021,9.1883,9.2535,9.2761,9.3051,9.3242,9.3306,9.3306,9.3306,9.3306,9.3306,9.3306,9.3306,9.3306,9.3306,9.3306,9.3306,9.3306,8.182,8.182,8.182,8.182,8.182,8.182,8.182,8.1736,8.0579,8.0043,8.0099,8.0664,8.0946,8.1002,8.1567,8.182,8.182,8.182,8.182,8.182,8.182,8.182,8.182,8.182,8.182,8.182,8.182,8.182,8.182,8.182,8.182,8.182,8.182,8.182,8.182,8.182,8.182,8.182,8.1228,8.0946,8.0918,8.0353,8.0043,8.0071,8.0043,8.0071,8.0043,8.0043,8.0122,8.0307,8.0775,8.1008,8.0902,8.0902,8.0902,8.0669,8.0278,8.0071,8.0043,8.0043,8.0043,8.0043,8.0043,8.0043,8.0043,7.8378,7.7504,7.7927,7.835,7.8745,7.8999,7.962,8.0278,8.0853,8.1414,8.1747,8.1789,8.3277,8.4893,8.6088,8.6273,8.6625,8.7928,8.809,8.8244,8.8981,8.9042,8.9042,8.9042,8.852,8.8314,8.924,8.9712,8.975,8.9642,9.027,9.0851,9.1151,9.1914,9.2503,9.2794,9.2987,9.3306,9.3306,9.3306,9.3306,9.3306,9.3306,9.3306,9.3306,9.3306,9.3306,9.3306,9.3306,9.3306,8.1256,8.1284,8.1313,8.1284,8.1284,8.1284,8.1284,8.1087,7.8943,7.7955,7.8012,7.9112,7.962,7.9648,8.0777,8.1284,8.1256,8.1256,8.1284,8.1284,8.1454,8.1567,8.1567,8.1764,8.182,8.182,8.182,8.182,8.182,8.182,8.182,8.182,8.182,8.182,8.182,8.182,8.1651,8.1284,8.0184,7.962,7.9592,7.8519,7.7955,7.8003,7.806,7.8003,7.808,7.8136,7.8261,7.8593,7.915,7.9301,7.9226,7.9186,7.8893,7.8488,7.7912,7.7684,7.7778,7.7806,7.7834,7.7927,7.7955,7.7701,7.7326,7.7306,7.7419,7.7447,7.776,7.7901,7.8006,7.8356,7.9086,7.9881,8.0091,8.0446,8.1214,8.2682,8.4201,8.5575,8.5258,8.5473,8.6462,8.6647,8.7077,8.8059,8.8029,8.8336,8.7998,8.7107,8.7129,8.9047,8.9325,8.9085,8.8883,8.985,9.0102,9.0917,9.1317,9.1673,9.2151,9.234,9.2598,9.3209,9.3306,9.3145,9.2759,9.2823,9.2598,9.2855,9.2855,9.3016,9.3274,9.3048,9.3047,7.8632,7.8632,7.8604,7.8632,7.8632,7.8604,7.8632,7.8604,7.8153,0.0,0.0,7.8181,7.8294,7.8322,7.8548,7.8632,7.8632,7.8632,7.8632,7.8689,7.9733,8.0212,8.0297,8.1313,8.182,8.182,8.182,8.182,8.182,8.182,8.182,8.182,8.182,8.182,8.182,8.182,8.0777,7.8745,7.8407,7.8266,7.8294,7.804,7.808,7.8413,7.8413,7.8565,7.8924,7.8924,7.8924,7.9,7.9554,7.9807,7.9703,7.8753,7.8176,7.7972,7.6631,7.6181,7.6909,7.6994,7.7241,7.7871,7.7955,7.6733,7.3999,7.449,7.4908,7.4908,7.6669,7.7755,7.7784,7.9484,8.0768,8.1015,8.1952,8.2162,8.1485,8.3222,8.432,8.4153,8.4527,8.5013,8.5197,8.5258,8.5412,8.5626,8.5909,8.5633,8.5387,8.3821,8.3887,8.7707,8.7314,8.5892,8.5965,8.6461,8.6772,8.7679,8.82,8.874,8.9519,8.9764,9.073,9.2404,9.3274,9.2565,9.1245,9.044,9.0183,9.131,9.1567,9.1889,9.2855,9.2404,9.2236,7.7955,7.7955,7.7955,7.7955,0.0,7.7955,7.7222,7.6065,7.6093,7.6065,7.6121,7.677,7.7052,7.7081,7.7673,7.7955,7.7955,7.7955,7.7955,7.7983,7.8604,7.8914,7.8914,7.9563,7.9874,7.9874,7.9874,7.9874,7.9845,7.9874,7.9845,7.9874,7.9845,7.9845,7.9845,7.9845,7.8943,7.7081,7.7052,7.7203,7.7326,7.6703,7.654,7.6983,7.6983,0.0,0.0,0.0,0.0,0.0,0.0,0.0,0.0,7.637,7.5009,7.4303,7.2221,7.0888,7.0553,7.1086,7.1577,7.187,7.3063,7.292,7.0743,7.1952,7.2822,7.278,7.411,7.5014,7.5002,7.6331,7.7843,7.9044,7.9775,8.0465,8.1041,8.2162,8.2715,8.2381,8.2592,8.3206,8.3882,8.3974,8.422,8.4798,8.4957,8.5019,8.4742,8.2623,8.1947,8.5234,8.5172,8.4994,8.519,8.5559,8.599,8.6642,8.7347,8.7786,8.802,8.7423,8.7285,8.867,9.0247,9.073,8.9346,8.9056,8.9217,8.9861,9.0086,9.0569,9.1825,9.1664,9.1754,7.725,7.7222,7.725,7.725,7.725,7.725,7.6093,7.4259,7.4259,7.4259,7.4344,7.5388,7.5839,7.5896,7.6827,7.725,7.725,7.725,7.7222,7.725,7.7504,7.7617,7.7617,7.7842,7.7955,7.7955,7.7955,7.7955,7.7955,7.7955,7.7955,7.7955,7.7955,7.7955,7.7927,0.0,0.0,0.0,7.5839,7.596,7.6302,7.5336,7.5157,7.5671,7.5813,0.0,7.6208,7.6068,7.6237,7.6658,7.6588,0.0,7.6575,0.0,0.0,0.0,0.0,0.0,0.0,0.0,0.0,0.0,6.6899,6.7895,6.7405,6.9668,7.1165,7.1182,7.2094,7.2616,7.2708,7.3301,7.4627,7.6754,7.7093,7.7836,7.9762,8.0074,8.0196,8.0411,8.0504,8.1026,8.2316,8.2592,8.2991,8.3851,8.4123,8.4189,8.4128,8.1701,8.0719,8.235,8.3483,8.4261,8.4751,8.4924,8.5127,8.6336,8.6933,8.7048,8.6618,8.5569,8.4845,8.5006,8.6673,8.7961,8.7285,8.7704,8.8154,8.8573,8.8605,8.8959,9.0086,9.0467,9.1135,7.4711,7.4739,7.4739,7.4739,7.4739,7.4739,7.4541,7.4259,7.4259,7.4259,7.4259,7.4428,7.4513,7.4513,7.4682,7.4739,7.4739,7.4739,7.4739,7.4795,7.5896,7.6403,7.646,7.7476,7.7955,7.7955,7.7955,7.7955,7.7955,7.7955,7.7955,7.7955,7.7955,7.7955,7.7842,7.5811,7.4654,7.4513,7.4513,7.4485,7.4586,7.4736,7.5486,7.6699,7.7086,7.791,7.9089,7.8586,7.8615,7.9186,7.8653,7.7869,7.6737,7.3414,7.0126,0.0,6.2281,0.0,0.0,0.0,0.0,0.0,0.0,0.0,0.0,6.7638,7.0367,7.1035,7.2368,7.3629,7.4704,7.4709,7.5228,7.6604,7.6849,7.688,7.7217,7.7309,7.777,7.9029,7.9183,7.9674,8.0841,8.1118,8.1118,8.1394,8.1425,8.1333,8.1118,7.9121,7.8384,8.078,8.1271,8.1803,8.2192,8.2351,8.2821,8.3925,8.4437,8.4735,8.4895,8.478,8.4684,8.4716,8.4973,8.5231,8.5134,8.5166,8.5649,8.6802,8.699,8.7114,8.7495,8.8186,8.9426,7.4259,7.4259,7.4259,7.3441,7.2228,7.22,7.2228,7.2228,7.22,7.2228,7.2228,7.2228,7.2228,7.22,7.2228,7.22,7.22,7.2228,7.2595,7.3328,7.3892,7.4485,7.5134,7.5642,7.5896,7.5896,7.5896,7.5896,7.5896,7.5896,7.5896,7.5896,7.5896,7.5557,7.4936,7.3836,7.361,7.4259,7.4912,7.56,7.6349,7.6055,7.6337,7.7342,7.7529,7.7978,7.8816,7.8589,7.8458,7.8557,7.783,7.6371,7.3973,7.0591,6.651,0.0,0.0,0.0,0.0,0.0,0.0,0.0,0.0,0.0,0.0,0.0,7.0155,6.9081,7.1295,7.1621,6.8769,7.0937,7.2518,7.2395,7.3009,7.3412,7.3412,7.4791,7.5958,7.6603,7.7309,7.7954,7.8507,7.8569,7.8845,7.9674,7.906,7.8415,7.7862,7.734,7.7432,7.9372,8.0323,8.0666,7.9618,7.9889,8.0398,8.1312,8.1749,8.1946,8.2117,8.1837,8.1812,8.2359,8.2906,8.3043,8.2464,8.2335,8.2818,8.4026,8.427,8.4491,8.5618,8.6823,8.8018,7.3384,7.3187,7.0817,6.9491,6.8842,6.8842,6.9491,7.0535,7.0535,7.0115,6.9304,7.0199,6.947,6.7631,6.7044,6.747,6.8515,6.8515,6.9764,7.2002,7.2058,7.2538,7.3384,7.3413,7.3384,7.3384,7.3102,7.3074,7.3356,7.3102,7.3074,7.3328,7.3174,7.2341,7.1025,7.1465,7.2129,7.3104,7.4242,7.5507,7.6751,7.6411,7.6674,7.7549,7.7593,7.7828,7.8513,7.8312,7.8261,7.8198,7.6725,7.4396,7.1268,6.686,0.0,0.0,0.0,0.0,0.0,0.0,0.0,0.0,0.0,5.2933,5.3716,0.0,6.6571,0.0,6.8191,6.8748,6.5091,6.7579,0.0,0.0,6.8487,6.874,6.8463,7.0521,7.2241,7.2825,7.4084,7.5251,7.6204,7.6326,7.6756,7.7739,7.6726,7.5866,7.5955,7.5987,7.6477,7.8197,7.9404,7.9589,7.8249,7.8432,7.9134,7.9785,7.9842,7.9849,7.9904,7.9588,7.9751,8.0685,8.1554,8.1554,8.0749,8.0469,8.0855,8.1416,8.137,8.1722,8.3723,8.5244,8.649,7.0873,7.0083,6.1027,5.9757,6.3673,6.3729,6.6331,7.0478,7.0507,6.8678,6.5872,6.9067,6.6278,5.9075,5.696,0.0,6.2513,6.2632,6.5498,7.0732,7.0761,7.0789,7.0873,7.0902,7.0873,7.0873,6.9717,6.9773,7.0789,6.9842,6.9745,7.0789,7.0018,6.8527,6.6622,6.8414,6.9502,6.9615,7.0916,7.2016,7.2979,7.4424,7.5733,7.7002,7.7397,7.821,7.9444,7.8881,7.8818,7.9369,7.6133,7.2964,7.0072,0.0,0.0,0.0,0.0,0.0,0.0,0.0,0.0,0.0,0.0,0.0,0.0,0.0,0.0,5.8823,6.2086,0.0,6.8737,6.7197,0.0,0.0,0.0,6.3041,6.1614,6.2862,6.4675,6.702,0.0,0.0,7.4514,7.5006,7.5067,7.5159,7.3992,7.4171,7.684,7.4904,7.4318,7.7198,7.7941,7.8029,7.7791,7.8247,7.8899,7.9744,7.9729,7.9118,7.9172,7.9622,8.0717,8.1458,8.1941,8.1651,8.0598,8.0321,8.017,7.9086,7.9365,8.0178,8.1681,8.2873,8.4012,6.2249,5.5934,5.1324,5.1459,5.4671,5.4909,5.8143,6.3328,6.3453,6.2155,5.9939,6.1563,5.8431,5.1815,5.0985,0.0,0.0,0.0,5.8835,6.4483,6.5843,6.8014,7.0783,7.0632,7.073,7.0909,7.0221,7.0112,7.0535,7.0083,6.7752,6.3507,0.0,6.2062,6.2903,6.5501,6.7641,6.9264,7.2284,7.4127,7.458,7.5989,7.6817,7.7089,7.7178,7.7656,7.8598,7.8356,7.7462,7.5832,7.2303,6.7689,0.0,0.0,0.0,0.0,0.0,0.0,0.0,0.0,0.0,0.0,0.0,4.2083,4.2592,0.0,0.0,0.0,5.254,5.4092,6.0364,6.2898,0.0,0.0,0.0,0.0,0.0,0.0,0.0,6.1614,6.5229,6.8463,7.0828,7.0429,7.0245,7.1074,7.1228,7.1366,7.1701,0.0,7.4018,7.4209,7.5149,7.5756,7.5265,7.4952,7.5194,7.6395,7.7047,7.7486,7.7518,7.7776,7.8354,7.9026,7.8912,7.8623,7.8676,7.8325,7.7907,7.795,7.8863,7.9928,8.0921,8.219,8.3385,5.1218,0.0,0.0,0.0,0.0,4.4881,4.8527,5.4258,5.4462,5.3564,5.1943,5.2875,0.0,0.0,0.0,0.0,0.0,0.0,5.2683,5.8278,6.2024,6.5359,6.8338,6.8139,6.8205,6.8508,6.7506,6.7205,6.7488,6.5855,6.1623,5.5227,0.0,0.0,0.0,0.0,6.5182,6.7882,7.2009,7.4497,7.5046,7.6037,7.6598,7.6653,7.6649,7.6907,7.7454,7.6312,7.4394,7.1761,6.6886,0.0,0.0,0.0,0.0,0.0,0.0,0.0,0.0,0.0,0.0,0.0,0.0,0.0,0.0,0.0,0.0,0.0,0.0,0.0,5.2438,5.7572,5.9055,0.0,0.0,0.0,0.0,0.0,0.0,0.0,0.0,0.0,6.5301,6.5855,6.6748,0.0,0.0,6.9644,6.8696,7.0671,7.2046,7.1648,7.3328,0.0,7.3146,7.2551,7.2493,7.3526,7.4609,7.5028,7.4203,7.4042,7.4486,7.5484,7.6378,7.6365,7.4899,7.4167,7.4215,7.47,7.6045,7.7369,7.8011,7.9601,8.083,0.0,0.0,0.0,0.0,3.3838,0.0,0.0,0.0,4.4204,4.3267,0.0,4.4015,0.0,0.0,0.0,0.0,3.7085,4.2433,0.0,0.0,6.0034,6.288,6.1825,6.1861,6.2133,6.2316,6.0028,5.9371,6.0114,5.463,4.9933,0.0,0.0,0.0,0.0,0.0,6.1794,6.4544,6.8783,7.1534,7.2767,7.3454,7.4327,7.5365,7.5665,7.5983,7.6222,7.2393,6.9577,6.7921,5.9841,0.0,0.0,0.0,0.0,0.0,0.0,0.0,0.0,0.0,0.0,0.0,0.0,0.0,0.0,0.0,0.0,0.0,0.0,0.0,0.0,5.1644,0.0,0.0,0.0,0.0,0.0,0.0,0.0,0.0,0.0,5.7066,5.7513,6.1803,6.5731,6.7207,0.0,0.0,0.0,0.0,6.7563,7.0351,7.2962,7.4019,7.2524,7.2478,7.2638,7.2687,0.0,0.0,6.9029,6.8556,6.918,7.102,7.5034,7.5966,6.807,6.7725,6.8478,6.8079,6.9718,7.1109,7.1432,7.352,7.4814,0.0,0.0,0.0,0.0,0.0,0.0,0.0,0.0,0.0,3.6682,3.5449,3.5804,0.0,0.0,0.0,0.0,0.0,0.0,0.0,0.0,4.9811,5.4105,5.6814,5.7033,5.7389,5.7516,5.574,5.2398,0.0,0.0,0.0,0.0,0.0,0.0,0.0,0.0,5.8241,6.2199,6.7465,7.0612,7.1422,7.1847,7.235,7.3013,7.3115,7.2401,7.0833,6.7549,6.3889,0.0,0.0,0.0,0.0,0.0,0.0,0.0,0.0,0.0,0.0,0.0,0.0,0.0,0.0,0.0,0.0,0.0,0.0,0.0,0.0,0.0,0.0,0.0,4.8818,0.0,0.0,0.0,0.0,0.0,0.0,0.0,0.0,0.0,5.0754,5.4464,5.8505,6.17,6.2931,6.4448,6.6938,0.0,0.0,0.0,0.0,0.0,0.0,0.0,6.9603,6.9419,6.8596,6.7744,6.7399,6.3715,6.2402,6.7144,0.0,0.0,6.1398,6.1803,6.3469,6.3296,6.4762,6.5959,6.6029,6.7503,6.7337,0.0,0.0,0.0,0.0,0.0,0.0,0.0,0.0,0.0,2.8855,2.8583,0.0,0.0,0.0,0.0,0.0,0.0,0.0,0.0,0.0,0.0,0.0,5.0018,5.0802,0.0,0.0,0.0,0.0,0.0,0.0,0.0,0.0,0.0,0.0,0.0,0.0,5.6426,6.1281,6.7157,7.0461,7.086,7.1196,7.1511,7.1824,7.1824,7.0575,6.7903,0.0,0.0,0.0,0.0,0.0,0.0,0.0,0.0,0.0,0.0,0.0,0.0,0.0,0.0,0.0,0.0,0.0,0.0,0.0,0.0,0.0,0.0,0.0,0.0,0.0,4.391,0.0,0.0,0.0,0.0,0.0,0.0,0.0,0.0,0.0,0.0,4.847,5.2647,5.6422,5.8459,6.0728,6.3784,6.4617,6.5534,0.0,0.0,0.0,0.0,0.0,0.0,0.0,0.0,0.0,0.0,0.0,0.0,0.0,6.2412,6.0674,5.3909,5.4656,5.6399,5.6457,0.0,0.0,0.0,0.0,0.0,0.0,0.0,0.0,0.0,0.0,0.0,0.0,0.0,0.0,0.0,2.1089,0.0,0.0,1.8504,0.0,0.0,0.0,0.0,0.0,0.0,0.0,0.0,0.0,0.0,0.0,0.0,0.0,0.0,0.0,0.0,0.0,0.0,0.0,0.0,0.0,0.0,5.6194,6.1701,6.755,7.0746,7.0986,7.1415,7.1713,7.191,7.1992,7.0607,6.7627,0.0,0.0,0.0,0.0,0.0,0.0,0.0,0.0,0.0,0.0,0.0,0.0,0.0,0.0,0.0,0.0,0.0,0.0,0.0,0.0,0.0,0.0,0.0,0.0,0.0,0.0,3.968,4.1863,4.2302,0.0,0.0,0.0,0.0,0.0,0.0,0.0,0.0,0.0,5.1688,5.5616,5.8853,6.0602,6.1659,6.3119,6.5261,6.6858,6.7429,6.6151,6.6248,6.5821,0.0,0.0,0.0,0.0,0.0,0.0,0.0,0.0,0.0,0.0,0.0,0.0,0.0,0.0,0.0,0.0,0.0,0.0,0.0,0.0,0.0,0.0,0.0,0.0,0.0,0.0,0.0,0.0,0.0,0.0,0.0,0.0,0.0,0.0,0.0,0.0,0.0,0.0,0.0,0.0,0.0,0.0,0.0,0.0,0.0,0.0,0.0,0.0,0.0,0.0,0.0,0.0,0.0,0.0,5.3649,5.9272,6.5153,6.825,6.8539,6.8858,6.9079,6.9094,6.816,6.5855,6.2212,0.0,0.0,0.0,0.0,0.0,0.0,0.0,0.0,0.0,0.0,0.0,0.0,0.0,0.0,0.0,0.0,0.0,0.0,0.0,0.0,0.0,0.0,0.0,0.0,0.0,0.0,0.0,4.2046,4.2522,3.9694,0.0,0.0,0.0,0.0,0.0,0.0,0.0,0.0,0.0,0.0,5.624,5.8748,6.119,6.2834,6.2966,6.5576,6.6401,6.316,6.4256,6.4248,6.045,0.0,0.0,0.0,0.0,0.0,0.0,0.0,0.0,0.0,0.0,0.0,0.0,0.0,0.0,0.0,0.0,0.0,0.0,0.0,0.0,0.0,0.0,0.0,0.0,0.0,0.0,0.0,0.0,0.0,0.0,0.0,0.0,0.0,0.0,0.0,0.0,0.0,0.0,0.0,0.0,0.0,0.0,0.0,0.0,0.0,0.0,0.0,0.0,0.0,0.0,0.0,0.0,0.0,5.2522,5.7668,6.4117,6.7434,6.7606,6.7746,6.7581,6.7001,6.5738,6.2599,0.0,0.0,0.0,0.0,0.0,0.0,0.0,0.0,0.0,0.0,0.0,0.0,0.0,0.0,0.0,0.0,0.0,0.0,0.0,0.0,0.0,0.0,0.0,0.0,0.0,0.0,0.0,0.0,3.8818,4.0201,3.8919,0.0,0.0,0.0,0.0,0.0,0.0,0.0,0.0,0.0,0.0,5.2147,5.43,5.7812,0.0,0.0,6.2439,6.2924,6.0548,6.1567,6.1284,5.7198,5.4062,0.0,0.0,0.0,0.0,0.0,0.0,0.0,0.0,0.0,0.0,0.0,0.0,0.0,0.0,0.0,0.0,0.0,0.0,0.0,0.0,0.0,0.0,0.0,0.0,0.0,0.0,0.0,0.0,0.0,0.0,0.0,0.0,0.0,0.0,0.0,0.0,0.0,0.0,0.0,0.0,0.0,0.0,0.0,0.0,0.0,0.0,0.0,0.0,0.0,0.0,0.0,0.0,5.2334,5.6677,6.3832,6.7516,6.7516,6.7549,6.6905,6.5629,6.4353,6.0364,0.0,0.0,0.0,0.0,0.0,0.0,0.0,0.0,0.0,0.0,0.0,0.0,0.0,0.0,0.0,0.0,0.0,0.0,0.0,0.0,0.0,0.0,0.0,0.0,0.0,0.0,0.0,0.0,0.0,0.0,0.0,0.0,0.0,0.0,0.0,0.0,0.0,0.0,0.0,0.0,0.0,4.7384,4.8451,5.2461,5.6039,0.0,5.819,5.7937,5.805,5.8338,5.7466,5.4114,0.0,0.0,0.0,0.0,0.0,0.0,0.0,0.0,0.0,0.0,0.0,0.0,0.0,0.0,0.0,0.0,0.0,0.0,0.0,0.0,0.0,0.0,0.0,0.0,0.0,0.0,0.0,0.0,0.0,0.0,0.0,0.0,0.0,0.0,0.0,0.0,0.0,0.0,0.0,0.0,0.0,0.0,0.0,0.0,0.0,0.0,0.0,0.0,0.0,0.0,0.0,0.0,0.0,0.0,5.5105,6.1392,6.4619,6.4663,6.4619,6.4502,6.4083,6.2023,0.0,0.0,0.0,0.0,0.0,0.0,0.0,0.0,0.0,0.0,0.0,0.0,0.0,0.0,0.0,0.0,0.0,0.0,0.0,0.0,0.0,0.0,0.0,0.0,0.0,0.0,0.0,2.2508,0.0,0.0,0.0,0.0,0.0,0.0,0.0,0.0,0.0,0.0,0.0,0.0,0.0,0.0,4.6875,4.8121,5.0638,5.2899,0.0,0.0,5.7205,5.3805,5.5309,5.5176,0.0,0.0,0.0,0.0,0.0,0.0,0.0,0.0,0.0,0.0,0.0,0.0,0.0,0.0,0.0,0.0,0.0,0.0,0.0,0.0,0.0,0.0,0.0,0.0,0.0,0.0,0.0,0.0,0.0,0.0,0.0,0.0,0.0,0.0,0.0,0.0,0.0,0.0,0.0,0.0,0.0,0.0,0.0,0.0,0.0,0.0,0.0,0.0,0.0,0.0,0.0,0.0,0.0,0.0,4.78,5.2845,5.9305,6.2945,6.3567,6.3825,6.3662,6.3088,6.0773,5.6585,0.0,0.0,0.0,0.0,0.0,0.0,0.0,0.0,0.0,0.0,0.0,0.0,0.0,0.0,0.0,0.0,0.0,0.0,0.0,0.0,0.0,0.0,0.0,0.0,0.0,0.0,0.0,0.0,0.0,0.0,0.0,0.0,0.0,0.0,0.0,0.0,0.0,0.0,0.0,0.0,0.0,0.0,4.9304,5.009,0.0,0.0,0.0,5.3857,5.1865,0.0,0.0,0.0,0.0,0.0,0.0,0.0,0.0,0.0,0.0,0.0,0.0,0.0,0.0,0.0,0.0,0.0,0.0,0.0,0.0,0.0,0.0,0.0,0.0,0.0,0.0,0.0,0.0,0.0,0.0,0.0,0.0,0.0,0.0,0.0,0.0,0.0,0.0,0.0,0.0,0.0,0.0,0.0,0.0,0.0,0.0,0.0,0.0,0.0,0.0,0.0,0.0,0.0,0.0,0.0,0.0,0.0,5.0358,5.7185,6.1496,6.2987,6.3719,6.3421,6.2153,6.0221,5.572,0.0,0.0,0.0,0.0,0.0,0.0,0.0,0.0,0.0,0.0,0.0,0.0,0.0,0.0,0.0,0.0,0.0,0.0,0.0,0.0,0.0,0.0,0.0,0.0,0.0,0.0,0.0,0.0,0.0,0.0,0.0,0.0,0.0,0.0,0.0,0.0,0.0,0.0,0.0,0.0,0.0,4.3784,5.0131,4.93,4.838,0.0,0.0,4.9316,5.0707,5.1127,0.0,0.0,0.0,0.0,0.0,0.0,0.0,0.0,0.0,0.0,0.0,0.0,0.0,0.0,0.0,0.0,0.0,0.0,0.0,0.0,0.0,0.0,0.0,0.0,0.0,0.0,0.0,0.0,0.0,0.0,0.0,0.0,0.0,0.0,0.0,0.0,0.0,0.0,0.0,0.0,0.0,0.0,0.0,0.0,0.0,0.0,0.0,0.0,0.0,0.0,0.0,0.0,0.0,0.0,0.0,0.0,4.8728,5.3814,5.7664,6.0047,6.0783,6.0969,6.0714,5.9869,5.595,0.0,0.0,0.0,0.0,0.0,0.0,0.0,0.0,0.0,0.0,0.0,0.0,0.0,0.0,0.0,0.0,0.0,0.0,0.0,0.0,0.0,0.0,0.0,0.0,0.0,0.0,0.0,0.0,0.0,0.0,0.0,0.0,0.0,0.0,0.0,0.0,0.0,0.0,0.0,0.0,0.0,4.1009,4.5202,4.3808,0.0,0.0,0.0,0.0,4.6212,4.6525,0.0,0.0,0.0,0.0,0.0,0.0,0.0,0.0,0.0,0.0,0.0,0.0,0.0,0.0,0.0,0.0,0.0,0.0,0.0,0.0,0.0,0.0,0.0,0.0,0.0,0.0,0.0,0.0,0.0,0.0,0.0,0.0,0.0,0.0,0.0,0.0,0.0,0.0,0.0,0.0,0.0,0.0,0.0,0.0,0.0,0.0,0.0,0.0,0.0,0.0,0.0,0.0,0.0,0.0,0.0,0.0,4.7226,5.1859,5.5513,5.8147,5.8897,5.8915,5.8233,5.775,5.4366,0.0,0.0,0.0,0.0,0.0,0.0,0.0,0.0,0.0,0.0,0.0,0.0,0.0,0.0,0.0,0.0,0.0,0.0,0.0,0.0,0.0,0.0,0.0,0.0,0.0,0.0,0.0,0.0,0.0,0.0,0.0,0.0,0.0,0.0,0.0,0.0,0.0,0.0,0.0,0.0,3.5579,3.8326,4.1188,0.0,0.0,0.0,0.0,0.0,0.0,4.5029,4.3687,0.0,0.0,0.0,0.0,0.0,0.0,0.0,0.0,0.0,0.0,0.0,0.0,0.0,0.0,0.0,0.0,0.0,0.0,0.0,0.0,0.0,0.0,0.0,0.0,0.0,0.0,0.0,0.0,0.0,0.0,0.0,0.0,0.0,0.0,0.0,0.0,0.0,0.0,0.0,0.0,0.0,0.0,0.0,0.0,0.0,0.0,0.0,0.0,0.0,0.0,0.0,0.0,0.0,0.0,0.0,4.5469,5.0027,5.3801,5.6731,5.7699,5.7447,5.601,5.5586,5.2437,4.6326,0.0,0.0,0.0,0.0,0.0,0.0,0.0,0.0,0.0,0.0,0.0,0.0,0.0,0.0,0.0,0.0,0.0,0.0,0.0,0.0,0.0,0.0,0.0,0.0,0.0,0.0,0.0,0.0,0.0,0.0,0.0,0.0,0.0,0.0,0.0,0.0,0.0,0.0,0.0,3.2954,3.5662,0.0,0.0,0.0,0.0,0.0,0.0,0.0,0.0,4.1878,0.0,0.0,0.0,0.0,0.0,0.0,0.0,0.0,0.0,0.0,0.0,0.0,0.0,0.0,0.0,0.0,0.0,0.0,0.0,0.0,0.0,0.0,0.0,0.0,0.0,0.0,0.0,0.0,0.0,0.0,0.0,0.0,0.0,0.0,0.0,0.0,0.0,0.0,0.0,0.0,0.0,0.0,0.0,0.0,0.0,0.0,0.0,0.0,0.0,0.0,0.0,0.0,0.0,0.0,0.0,0.0,4.7038,5.1284,5.5352,5.721,5.7447,5.6043,5.5487,5.1817,4.4591,0.0,0.0,0.0,0.0,0.0,0.0,0.0,0.0,0.0,0.0,0.0,0.0,0.0,0.0,0.0,0.0,0.0,0.0,0.0,0.0,0.0,0.0,0.0,0.0,0.0,0.0,0.0,0.0,0.0,0.0,0.0,0.0,0.0,0.0,0.0,0.0,0.0,0.0,2.614,2.9837,0.0,0.0,0.0,0.0,0.0,0.0,0.0,0.0,3.8566,0.0,0.0,0.0,0.0,0.0,0.0,0.0,0.0,0.0,0.0,0.0,0.0,0.0,0.0,0.0,0.0,0.0,0.0,0.0,0.0,0.0,0.0,0.0,0.0,0.0,0.0,0.0,0.0,0.0,0.0,0.0,0.0,0.0,0.0,0.0,0.0,0.0,0.0,0.0,0.0,0.0,0.0,0.0,0.0,0.0,0.0,0.0,0.0,0.0,0.0,0.0,0.0,0.0,0.0,0.0,0.0,0.0,0.0,5.0132,5.3295,5.5627,5.6016,5.4157,5.141,4.7559,0.0,0.0,0.0,0.0,0.0,0.0,0.0,0.0,0.0,0.0,0.0,0.0,0.0,0.0,0.0,0.0,0.0,0.0,0.0,0.0,0.0,0.0,0.0,0.0,0.0,0.0,0.0,0.0,0.0,0.0,0.0,0.0,0.0,0.0,0.0,0.0,0.0,0.0,0.0,0.0,0.0,0.0,0.0,0.0,0.0,0.0,0.0,0.0,0.0,0.0,0.0,0.0,0.0,0.0,0.0,0.0,0.0,0.0,0.0,0.0,0.0,0.0,0.0,0.0,0.0,0.0,0.0,0.0,0.0,0.0,0.0,0.0,0.0,0.0,0.0,0.0,0.0,0.0,0.0,0.0,0.0,0.0,0.0,0.0,0.0,0.0,0.0,0.0,0.0,0.0,0.0,0.0,0.0,0.0,0.0,0.0,0.0,0.0,0.0,0.0,0.0,0.0,0.0,0.0,0.0,0.0,0.0,0.0,4.907,5.1061,5.4092,5.4564,5.2243,4.7884,4.4092,0.0,0.0,0.0,0.0,0.0,0.0,0.0,0.0,0.0,0.0,0.0,0.0,0.0,0.0,0.0,0.0,0.0,0.0,0.0,0.0,0.0,0.0,0.0,0.0,0.0,0.0,0.0,0.0,0.0,0.0,0.0,0.0,0.0,0.0,0.0,0.0,0.0,0.0,0.0,0.0,0.0,0.0,0.0,0.0,0.0,0.0,0.0,0.0,3.3598,0.0,0.0,0.0,0.0,0.0,0.0,0.0,0.0,0.0,0.0,0.0,0.0,0.0,0.0,0.0,0.0,0.0,0.0,0.0,0.0,0.0,0.0,0.0,0.0,0.0,0.0,0.0,0.0,0.0,0.0,0.0,0.0,0.0,0.0,0.0,0.0,0.0,0.0,0.0,0.0,0.0,0.0,0.0,0.0,0.0,0.0,0.0,0.0,0.0,0.0,0.0,0.0,0.0,0.0,0.0,0.0,0.0,0.0,0.0,4.7326,4.907,5.3136,5.3947,5.1175,4.821,4.4629,0.0,0.0,0.0,0.0,0.0,0.0,0.0,0.0,0.0,0.0,0.0,0.0,0.0,0.0,0.0,0.0,0.0,0.0,0.0,0.0,0.0,0.0,0.0,0.0,0.0,0.0,0.0,0.0,0.0,0.0,0.0,0.0,0.0,0.0,0.0,0.0,0.0,0.0,0.0,0.0,0.0,0.0,0.0,0.0,0.0,0.0,0.0,0.0,0.0,0.0,0.0,0.0,0.0,0.0,0.0,0.0,0.0,0.0,0.0,0.0,0.0,0.0,0.0,0.0,0.0,0.0,0.0,0.0,0.0,0.0,0.0,0.0,0.0,0.0,0.0,0.0,0.0,0.0,0.0,0.0,0.0,0.0,0.0,0.0,0.0,0.0,0.0,0.0,0.0,0.0,0.0,0.0,0.0,0.0,0.0,0.0,0.0,0.0,0.0,0.0,0.0,0.0,0.0,0.0,0.0,0.0,0.0,0.0,4.4192,4.7188,5.1457,5.1424,4.654,4.3003,3.9397,0.0,0.0,0.0,0.0,0.0,0.0,0.0,0.0,0.0,0.0,0.0,0.0,0.0,0.0,0.0,0.0,0.0,0.0,0.0,0.0,0.0,0.0,0.0,0.0,0.0,0.0,0.0,0.0,0.0,0.0,0.0,0.0,0.0,0.0,0.0,0.0,0.0,0.0,0.0,0.0,0.0,0.0,0.0,0.0,0.0,0.0,0.0,0.0,0.0,0.0,0.0,0.0,0.0,0.0,0.0,0.0,0.0,0.0,0.0,0.0,0.0,0.0,0.0,0.0,0.0,0.0,0.0,0.0,0.0,0.0,0.0,0.0,0.0,0.0,0.0,0.0,0.0,0.0,0.0,0.0,0.0,0.0,0.0,0.0,0.0,0.0,0.0,0.0,0.0,0.0,0.0,0.0,0.0,0.0,0.0,0.0,0.0,0.0,0.0,0.0,0.0,0.0,0.0,0.0,0.0,0.0,0.0,0.0,0.0,4.4056,4.7437,4.6986,4.2415,3.8912,3.5385,0.0,0.0,0.0,0.0,0.0,0.0,0.0,0.0,0.0,0.0,0.0,0.0,0.0,0.0,0.0,0.0,0.0,0.0,0.0,0.0,0.0,0.0,0.0,0.0,0.0,0.0,0.0,0.0,0.0,0.0,0.0,0.0,0.0,0.0,0.0,0.0,0.0,0.0,0.0,0.0,0.0,0.0,0.0,0.0,0.0,0.0,0.0,0.0,0.0,0.0,0.0,0.0,0.0,0.0,0.0,0.0,0.0,0.0,0.0,0.0,0.0,0.0,0.0,0.0,0.0,0.0,0.0,0.0,0.0,0.0,0.0,0.0,0.0,0.0,0.0,0.0,0.0,0.0,0.0,0.0,0.0,0.0,0.0,0.0,0.0,0.0,0.0,0.0,0.0,0.0,0.0,0.0,0.0,0.0,0.0,0.0,0.0,0.0,0.0,0.0,0.0,0.0,0.0,0.0,0.0,0.0,0.0,0.0,0.0,3.8896,3.9751,4.0105,3.9947,3.838,3.4956,0.0,0.0,0.0,0.0,0.0,0.0,0.0,0.0,0.0,0.0,0.0,0.0,0.0,0.0,0.0,0.0,0.0,0.0,0.0,0.0,0.0,0.0,0.0,0.0,0.0,0.0,0.0,0.0,0.0,0.0,0.0,0.0,0.0,0.0,0.0,0.0,0.0,0.0,0.0,0.0,0.0,0.0,0.0,0.0,0.0,0.0,0.0,0.0,0.0,0.0,0.0,0.0,0.0,0.0,0.0,0.0,0.0,0.0,0.0,0.0,0.0,0.0,0.0,0.0,0.0,0.0,0.0,0.0,0.0,0.0,0.0,0.0,0.0,0.0,0.0,0.0,0.0,0.0,0.0,0.0,0.0,0.0,0.0,0.0,0.0,0.0,0.0,0.0,0.0,0.0,0.0,0.0,0.0,0.0,0.0,0.0,0.0,0.0,0.0,0.0,0.0,0.0,0.0,0.0,0.0,0.0,0.0,0.0,0.0,3.1963,3.3106,3.3849,3.4139,3.1757,2.9029,2.5888,0.0,0.0,0.0,0.0,0.0,0.0,0.0,0.0,0.0,0.0,0.0,0.0,0.0,0.0,0.0,0.0,0.0,0.0,0.0,0.0,0.0,0.0,0.0,0.0,0.0,0.0,0.0,0.0,0.0,0.0,0.0,0.0,0.0,0.0,0.0,0.0,0.0,0.0,0.0,0.0,0.0,0.0,0.0,0.0,0.0,0.0,0.0,0.0,0.0,0.0,0.0,0.0,0.0,0.0,0.0,0.0,0.0,0.0,0.0,0.0,0.0,0.0,0.0,0.0,0.0,0.0,0.0,0.0,0.0,0.0,0.0,0.0,0.0,0.0,0.0,0.0,0.0,0.0,0.0,0.0,0.0,0.0,0.0,0.0,0.0,0.0,0.0,0.0,0.0,0.0,0.0,0.0,0.0,0.0,0.0,0.0,0.0,0.0,0.0,0.0,0.0,0.0,0.0,0.0,0.0,0.0,0.0,0.0,2.7212,2.8777,2.9676,2.9776,2.7461,2.5318,0.0,0.0,0.0,0.0,0.0,0.0,0.0,0.0,0.0,0.0,0.0,0.0,0.0,0.0,0.0,0.0,0.0,0.0,0.0,0.0,0.0,0.0,0.0,0.0,0.0,0.0,0.0,0.0,0.0,0.0,0.0,0.0,0.0,0.0,0.0,0.0,0.0,0.0,0.0,0.0,0.0,0.0,0.0,0.0,0.0,0.0,0.0,0.0,0.0,0.0,0.0,0.0,0.0,0.0,0.0,0.0,0.0,0.0,0.0,0.0,0.0,0.0,0.0,0.0,0.0,0.0,0.0,0.0,0.0,0.0,0.0,0.0,0.0,0.0,0.0,0.0,0.0,0.0,0.0,0.0,0.0,0.0,0.0,0.0,0.0,0.0,0.0,0.0,0.0,0.0,0.0,0.0,0.0,0.0,0.0,0.0,0.0,0.0,0.0,0.0,0.0,0.0,0.0,0.0,0.0,0.0,0.0,0.0,2.1138,2.5311,2.7126,2.8016,2.8002,2.6682,2.4684,0.0,0.0,0.0,0.0,0.0,0.0,0.0,0.0,0.0,0.0,0.0,0.0,0.0,0.0,0.0,0.0,0.0,0.0,0.0,0.0,0.0,0.0,0.0,0.0,0.0,0.0,0.0,0.0,0.0,0.0,0.0,0.0,0.0,0.0,0.0,0.0,0.0,0.0,0.0,0.0,0.0,0.0,0.0,0.0,0.0,0.0,0.0,0.0,0.0,0.0,0.0,0.0,0.0,0.0,0.0,0.0,0.0,0.0,0.0,0.0,0.0,0.0,0.0,0.0,0.0,0.0,0.0,0.0,0.0,0.0,0.0,0.0,0.0,0.0,0.0,0.0,0.0,0.0,0.0,0.0,0.0,0.0,0.0,0.0,0.0,0.0,0.0,0.0,0.0,0.0,0.0,0.0,0.0,0.0,0.0,0.0,0.0,0.0,0.0,0.0,0.0,0.0,0.0,0.0,0.0,0.0,0.0,0.0,0.0,2.2257,0.0,2.6335,2.6355,2.5042,2.344,0.0,0.0,0.0,0.0,0.0,0.0,0.0,0.0,0.0,0.0,0.0,0.0,0.0,0.0,0.0,0.0,0.0,0.0,0.0,0.0,0.0,0.0,0.0,0.0,0.0,0.0,0.0,0.0,0.0,0.0,0.0,0.0,0.0,0.0,0.0,0.0,0.0,0.0,0.0,0.0,0.0,0.0,0.0,0.0,0.0,0.0,0.0,0.0,0.0,0.0,0.0,0.0,0.0,0.0,0.0,0.0,0.0,0.0,0.0,0.0,0.0,0.0,0.0,0.0,0.0,0.0,0.0,0.0,0.0,0.0,0.0,0.0,0.0,0.0,0.0,0.0,0.0,0.0,0.0,0.0,0.0,0.0,0.0,0.0,0.0,0.0,0.0,0.0,0.0,0.0,0.0,0.0,0.0,0.0,0.0,0.0,0.0,0.0,0.0,0.0,0.0,0.0,0.0,0.0,0.0,0.0,0.0,0.0,0.0,2.0757,2.2734,2.432,2.5368,2.4116,2.2711,0.0,0.0,0.0,0.0,0.0,0.0,0.0,0.0,0.0,0.0,0.0,0.0,0.0,0.0,0.0,0.0,0.0,0.0,0.0,0.0,0.0,0.0,0.0,0.0,0.0,0.0,0.0,0.0,0.0,0.0,0.0,0.0,0.0,0.0,0.0,0.0,0.0,0.0,0.0,0.0,0.0,0.0,0.0,0.0,0.0,0.0,0.0,0.0,0.0,0.0,0.0,0.0,0.0,0.0,0.0,0.0,0.0,0.0,0.0,0.0,0.0,0.0,0.0,0.0,0.0,0.0,0.0,0.0,0.0,0.0,0.0,0.0,0.0,0.0,0.0,0.0,0.0,0.0,0.0,0.0,0.0,0.0,0.0,0.0,0.0,0.0,0.0,0.0,0.0,0.0,0.0,0.0,0.0,0.0,0.0,0.0,0.0,0.0,0.0,0.0,0.0,0.0,0.0,0.0,0.0,0.0,0.0,0.0,0.0,2.0632,2.0805,2.2192,2.4945,2.3849,2.2495,0.0,0.0,0.0,0.0,0.0,0.0,0.0,0.0,0.0,0.0,0.0,0.0,0.0,0.0,0.0,0.0,0.0,0.0,0.0,0.0,0.0,0.0,0.0,0.0,0.0,0.0,0.0,0.0,0.0,0.0,0.0,0.0,0.0,0.0,0.0,0.0,0.0,0.0,0.0,0.0,0.0,0.0,0.0,0.0,0.0,0.0,0.0,0.0,0.0,0.0,0.0,0.0,0.0,0.0,0.0,0.0,0.0,0.0,0.0,0.0,0.0,0.0,0.0,0.0,0.0,0.0,0.0,0.0,0.0,0.0,0.0,0.0,0.0,0.0,0.0,0.0,0.0,0.0,0.0,0.0,0.0,0.0,0.0,0.0,0.0,0.0,0.0,0.0,0.0,0.0,0.0,0.0,0.0,0.0,0.0,0.0,0.0,0.0,0.0,0.0,0.0,0.0,0.0,0.0,0.0,0.0,0.0,0.0,0.0,0.0,2.0573,2.2015,2.4704,2.467,2.337,2.0908,0.0,0.0,0.0,0.0,0.0,0.0,0.0,0.0,0.0,0.0,0.0,0.0,0.0,0.0,0.0,0.0,0.0,0.0,0.0,0.0,0.0,0.0,0.0,0.0,0.0,0.0,0.0,0.0,0.0,0.0,0.0,0.0,0.0,0.0,0.0,0.0,0.0,0.0,0.0,0.0,0.0,0.0,0.0,0.0,0.0,0.0,0.0,0.0,0.0,0.0,0.0,0.0,0.0,0.0,0.0,0.0,0.0,0.0,0.0,0.0,0.0,0.0,0.0,0.0,0.0,0.0,0.0,0.0,0.0,0.0,0.0,0.0,0.0,0.0,0.0,0.0,0.0,0.0,0.0,0.0,0.0,0.0,0.0,0.0,0.0,0.0,0.0,0.0,0.0,0.0,0.0,0.0,0.0,0.0,0.0,0.0,0.0,0.0,0.0,0.0,0.0,0.0,0.0,0.0,0.0,0.0,0.0,0.0,0.0,0.0,2.1853,2.4734,2.437,2.2777,0.0,0.0,0.0,0.0,0.0,0.0,0.0,0.0,0.0,0.0,0.0,0.0,0.0,0.0,0.0,0.0,0.0,0.0,0.0,0.0,0.0,0.0,0.0,0.0,0.0,0.0,0.0,0.0,0.0,0.0,0.0,0.0,0.0,0.0,0.0,0.0,0.0,0.0,0.0,0.0,0.0,0.0,0.0,0.0,0.0,0.0,0.0,0.0,0.0,0.0,0.0,0.0,0.0,0.0,0.0,0.0,0.0,0.0,0.0,0.0,0.0,0.0,0.0,0.0,0.0,0.0,0.0,0.0,0.0,0.0,0.0,0.0,0.0,0.0,0.0,0.0,0.0,0.0,0.0,0.0,0.0,0.0,0.0,0.0,0.0,0.0,0.0,0.0,0.0,0.0,0.0,0.0,0.0,0.0,0.0,0.0,0.0,0.0,0.0,0.0,0.0,0.0,0.0,0.0,0.0,0.0,0.0,0.0,0.0,0.0,0.0,2.1622,2.4543,2.3421,0.0,1.9055,0.0,0.0,0.0,0.0,0.0,0.0,0.0,0.0,0.0,0.0,0.0,0.0,0.0,0.0,0.0,0.0,0.0,0.0,0.0,0.0,0.0,0.0,0.0,0.0,0.0,0.0,0.0,0.0,0.0,0.0,0.0,0.0,0.0,0.0,0.0,0.0,0.0,0.0,0.0,0.0,0.0,0.0,0.0,0.0,0.0,0.0,0.0,0.0,0.0,0.0,0.0,0.0,0.0,0.0,0.0,0.0,0.0,0.0,0.0,0.0,0.0,0.0,0.0,0.0,0.0,0.0,0.0,0.0,0.0,0.0,0.0,0.0,0.0,0.0,0.0,0.0,0.0,0.0,0.0,0.0,0.0,0.0,0.0,0.0,0.0,0.0,0.0,0.0,0.0,0.0,0.0,0.0,0.0,0.0,0.0,0.0,0.0,0.0,0.0,0.0,0.0,0.0,0.0,0.0,0.0,0.0,0.0,0.0,0.0,0.0,0.0,0.0,2.3245,2.2304,2.1601,0.0,0.0,0.0,0.0,0.0,0.0,0.0,0.0,0.0,0.0,0.0,0.0,0.0,0.0,0.0,0.0,0.0,0.0,0.0,0.0,0.0,0.0,0.0,0.0,0.0,0.0,0.0,0.0,0.0,0.0,0.0,0.0,0.0,0.0,0.0,0.0,0.0,0.0,0.0,0.0,0.0,0.0,0.0,0.0,0.0,0.0,0.0,0.0,0.0,0.0,0.0,0.0,0.0,0.0,0.0,0.0,0.0,0.0,0.0,0.0,0.0,0.0,0.0,0.0,0.0,0.0,0.0,0.0,0.0,0.0,0.0,0.0,0.0,0.0,0.0,0.0,0.0,0.0,0.0,0.0,0.0,0.0,0.0,0.0,0.0,0.0,0.0,0.0,0.0,0.0,0.0,0.0,0.0,0.0,0.0,0.0,0.0,0.0,0.0,0.0,0.0,0.0,0.0,0.0,0.0,0.0,0.0,0.0,0.0,0.0,2.0445,2.3202,2.2175,2.1254,2.0587,0.0,0.0,0.0,0.0,0.0,0.0,0.0,0.0,0.0,0.0,0.0,0.0,0.0,0.0,0.0,0.0,0.0,0.0,0.0,0.0,0.0,0.0,0.0,0.0,0.0,0.0,0.0,0.0,0.0,0.0,0.0,0.0,0.0,0.0,0.0,0.0,0.0,0.0,0.0,0.0,0.0,0.0,0.0,0.0,0.0,0.0,0.0,0.0,0.0,0.0,0.0,0.0,0.0,0.0,0.0,0.0,0.0,0.0,0.0,0.0,0.0,0.0,0.0,0.0,0.0,0.0,0.0,0.0,0.0,0.0,0.0,0.0,0.0,0.0,0.0,0.0,0.0,0.0,0.0,0.0,0.0,0.0,0.0,0.0,0.0,0.0,0.0,0.0,0.0,0.0,0.0,0.0,0.0,0.0,0.0,0.0,0.0,0.0,0.0,0.0,0.0,0.0,0.0,0.0,0.0,0.0,0.0,0.0,0.0,0.0,0.0,0.0,0.0,0.0,1.8825,0.0,0.0,0.0,0.0,0.0,0.0,0.0,0.0,0.0,0.0,0.0,0.0,0.0,0.0,0.0,0.0,0.0,0.0,0.0,0.0,0.0,0.0,0.0,0.0,0.0,0.0,0.0,0.0,0.0,0.0,0.0,0.0,0.0,0.0,0.0,0.0,0.0,0.0,0.0,0.0,0.0,0.0,0.0,0.0,0.0,0.0,0.0,0.0,0.0,0.0,0.0,0.0,0.0,0.0,0.0,0.0,0.0,0.0,0.0,0.0,0.0,0.0,0.0,0.0,0.0,0.0,0.0,0.0,0.0,0.0,0.0,0.0,0.0,0.0,0.0,0.0,0.0,0.0,0.0,0.0,0.0,0.0,0.0,0.0,0.0,0.0,0.0,0.0,0.0,0.0,0.0,0.0,0.0,0.0,0.0,0.0,0.0,0.0,0.0,0.0,0.0,0.0,0.0,0.0,0.0,0.0,0.0,0.0,0.0,0.0,0.0,0.0,0.0,0.0,0.0,0.0,0.0,0.0,0.0,0.0,0.0,0.0,0.0,0.0,0.0,0.0,0.0,0.0,0.0,0.0,0.0,0.0,0.0,0.0,0.0,0.0,0.0,0.0,0.0,0.0,0.0,0.0,0.0,0.0,0.0,0.0,0.0,0.0,0.0,0.0,0.0,0.0,0.0,0.0,0.0,0.0,0.0,0.0,0.0,0.0,0.0,0.0,0.0,0.0,0.0,0.0,0.0,0.0,0.0,0.0,0.0,0.0,0.0,0.0,0.0,0.0,0.0,0.0,0.0,0.0,0.0,0.0,0.0,0.0,0.0,0.0,0.0,0.0,0.0,0.0,0.0,0.0,0.0,0.0,0.0,0.0,0.0,0.0,0.0,0.0,0.0,0.0,0.0,0.0,0.0,0.0,0.0,0.0,0.0,0.0,0.0,0.0,0.0,0.0,0.0,0.0,0.0,0.0,0.0,0.0,0.0,0.0,0.0,0.0,0.0,0.0,0.0,0.0,0.0,0.0,0.0,0.0,0.0,0.0,0.0,0.0,0.0,0.0,0.0,0.0,0.0,0.0,0.0,0.0,0.0,0.0,0.0,0.0,0.0,0.0,0.0,0.0,0.0,0.0,0.0,0.0,0.0,0.0,0.0,0.0,0.0,0.0,0.0,0.0,0.0,0.0,0.0,0.0,0.0,0.0,0.0,0.0,0.0,0.0,0.0,0.0,0.0,0.0,0.0,0.0,0.0,0.0,0.0,0.0,0.0,0.0,0.0,0.0,0.0,0.0,0.0,0.0,0.0,0.0,0.0,0.0,0.0,0.0,0.0,0.0,0.0,0.0,0.0,0.0,0.0,0.0,0.0,0.0,0.0,0.0,0.0,0.0,0.0,0.0,0.0,0.0,0.0,0.0,0.0,0.0,0.0,0.0,0.0,0.0,0.0,0.0,0.0,0.0,0.0,0.0,0.0,0.0,0.0,0.0,0.0,0.0,0.0,0.0,0.0,0.0,0.0,0.0,0.0,0.0,0.0,0.0,0.0,0.0,0.0,0.0,0.0,0.0,0.0,0.0,0.0,0.0,0.0,0.0,0.0,0.0,0.0,0.0,0.0,0.0,0.0,0.0,0.0,0.0,0.0,0.0,0.0,0.0,0.0,0.0,0.0,0.0,0.0,0.0,0.0,0.0,0.0,0.0,0.0,0.0,0.0,0.0,0.0,0.0,0.0,0.0,0.0,0.0,0.0,0.0,0.0,0.0,0.0,0.0,0.0,0.0,0.0,0.0,0.0,0.0,0.0,0.0,0.0,0.0,0.0,0.0,0.0,0.0,0.0,0.0,0.0,0.0,0.0,0.0,0.0,0.0,0.0,0.0,0.0,0.0,0.0,0.0,0.0,0.0,0.0,0.0,0.0,0.0,0.0,0.0,0.0,0.0,0.0,0.0,0.0,0.0,0.0,0.0,0.0,0.0,0.0,0.0,0.0,0.0,0.0,0.0,0.0,0.0,0.0,0.0,0.0,0.0,0.0,0.0,0.0,0.0,0.0,0.0,0.0,0.0,0.0,0.0,0.0,0.0,0.0,0.0,0.0,0.0,0.0,0.0,0.0,0.0,0.0,0.0,0.0,0.0,0.0,0.0,0.0,0.0,0.0,0.0,0.0,0.0,0.0,0.0,0.0,0.0,0.0,0.0,0.0,0.0,0.0,0.0,0.0,0.0,0.0,0.0,0.0,0.0,0.0,0.0,0.0,0.0,0.0,0.0,0.0,0.0,0.0,0.0,0.0,0.0,0.0,0.0,0.0,0.0,0.0,0.0,0.0,0.0,0.0,0.0,0.0,0.0,0.0,0.0,0.0,0.0,0.0,0.0,0.0,0.0,0.0,0.0,0.0,0.0,0.0,0.0,0.0,0.0,0.0,0.0,0.0,0.0,0.0,0.0,0.0,0.0,0.0,0.0,0.0,0.0,0.0,0.0,0.0,0.0,0.0,0.0,0.0,0.0,0.0,0.0,0.0,0.0,0.0,0.0,0.0,0.0,0.0,0.0,0.0,0.0,0.0,0.0,0.0,0.0,0.0,0.0,0.0,0.0,0.0,0.0,0.0,0.0,0.0,0.0,0.0,0.0,0.0,0.0,0.0,0.0,0.0,0.0,0.0,0.0,0.0,0.0,0.0,0.0,0.0,0.0,0.0,0.0,0.0,0.0,0.0,0.0,0.0,0.0,0.0,0.0,0.0,0.0,0.0,0.0,0.0,0.0,0.0,0.0,0.0,0.0,0.0,0.0,0.0,0.0,0.0,0.0,0.0,0.0,0.0,0.0,0.0,0.0,0.0,0.0,0.0,0.0,0.0,0.0,0.0,0.0,0.0,0.0,0.0,0.0,0.0,0.0,0.0,0.0,0.0,0.0,0.0,0.0,0.0,0.0,0.0,0.0,0.0,0.0,0.0,0.0,0.0,0.0,0.0,0.0,0.0,0.0,0.0,0.0,0.0,0.0,0.0,0.0,0.0,0.0,0.0,0.0,0.0,0.0,0.0,0.0,0.0,0.0,0.0,0.0,0.0,0.0,0.0,0.0,0.0,0.0,0.0,0.0,0.0,0.0,0.0,0.0,0.0,0.0,0.0,0.0,0.0,0.0,0.0,0.0,0.0,0.0,0.0,0.0,0.0,0.0,0.0,0.0,0.0,0.0,0.0,0.0,0.0,0.0,0.0,0.0,0.0,0.0,0.0,0.0,0.0,0.0,0.0,0.0,0.0,0.0,0.0,0.0,0.0,0.0,0.0,0.0,0.0,0.0,0.0,0.0,0.0,0.0,0.0,0.0,0.0,0.0,0.0,0.0,0.0,0.0,0.0,0.0,0.0,0.0,0.0,0.0,0.0,0.0,0.0,0.0,0.0,0.0,0.0,0.0,0.0,0.0,0.0,0.0,0.0,0.0,0.0,0.0,0.0,0.0,0.0,0.0,0.0,0.0,0.0,0.0,0.0,0.0,0.0,0.0,0.0,0.0,0.0,0.0,0.0,0.0,0.0,0.0,0.0,0.0,0.0,0.0,0.0,0.0,0.0,0.0,0.0,0.0,0.0,0.0,0.0,0.0,0.0,0.0,0.0,0.0,0.0,0.0,0.0,0.0,0.0,0.0,0.0,0.0,0.0,0.0,0.0,0.0,0.0,0.0,0.0,0.0,0.0,0.0,0.0,0.0,0.0,0.0,0.0,0.0,0.0,0.0,0.0,0.0,0.0,0.0,0.0,0.0,0.0,0.0,0.0,0.0,0.0,0.0,0.0,0.0,0.0,0.0,0.0,0.0,0.0,0.0,0.0,0.0,0.0,0.0,0.0,0.0,0.0,0.0,0.0,0.0,0.0,0.0,0.0,0.0,0.0,0.0,0.0,0.0,0.0,0.0,0.0,0.0,0.0,0.0,0.0,0.0,0.0,0.0,0.0,0.0,0.0,0.0,0.0,0.0,0.0,0.0,0.0,0.0,0.0,0.0,0.0,0.0,0.0,0.0,0.0,0.0,0.0,0.0,0.0,0.0,0.0,0.0,0.0,0.0,0.0,0.0,0.0,0.0,0.0,0.0,0.0,0.0,0.0,0.0,0.0,0.0,0.0,0.0,0.0,0.0,0.0,0.0,0.0,0.0,0.0,0.0,0.0,0.0,0.0,0.0,0.0,0.0,0.0,0.0,0.0,0.0,0.0,0.0,0.0,0.0,0.0,0.0,0.0,0.0,0.0,0.0,0.0,0.0,0.0,0.0,0.0,0.0,0.0,0.0,0.0,0.0,0.0,0.0,0.0,0.0,0.0,0.0,0.0,0.0,0.0,0.0,0.0,0.0,0.0,0.0,0.0,0.0,0.0,0.0,0.0,0.0]}]]]